     2.10           OBSERVATION DATA    G (GPS)             RINEX VERSION / TYPE
teqc 2002Apr3 20050812 22:29:26UTC                          PGM / RUN BY / DATE
                                                            COMMENT
L2: 1 -> 1; 5 -> 5; 40 -> 9                                 COMMENT
L2: 1 -> 1; 5 -> 5; 40 -> 9                                 COMMENT
L2: 1 -> 1; 5 -> 5; 40 -> 9                                 COMMENT
L2: 1 -> 1; 5 -> 5; 40 -> 9                                 COMMENT
Original Marker Name: DUNE                                  COMMENT
Campaign Name: USGS Coachella Subsidence 1996-2000          COMMENT
4-Character Station Name: DUNE                              COMMENT
6-Character Antenna Code: DMRCHT                            COMMENT
Vertical Measurement Point: BPA                             COMMENT
Vertical Offset to Rinex Ref. Point: 0.0000                 COMMENT
Radial Measurement Point: RRP                               COMMENT
Radial Offset to Rinex Ref. Point: 0.0000                   COMMENT
Antenna Height from Field Measurement: 2.0000 m             COMMENT
Additional Antenna Identification Info.:                    COMMENT
Turborogue and Ashtech Choke Ring                           COMMENT
Original XYZ: -2349714.3100 -4760604.6600 3523030.0300      COMMENT
New XYZ position is based on association with SCEC monument COMMENT
E1D0T6W6+0011. Position of that monument is believed to be  COMMENT
valid to within 1 m horizontally; vertical accuracy         COMMENT
should be no worse than 3-times this value.                 COMMENT
                                                            COMMENT
Revised Rinex header created by UCSD GPS archive for        COMMENT
GSAC on 20-Apr-2005 (2005:110) 16:26:40 GMT                 COMMENT
For assistance contact dagnew@ucsd.edu                      COMMENT
or anderson@python.ucsd.edu                                 COMMENT
                                                            COMMENT
DUNEPORT AZ                                                 MARKER NAME
6DK US GEOLOGICAL SURVEY WATER RESOURC.                     OBSERVER / AGENCY
623 ASHTECH L-XII 7C                                        REC # / TYPE / VERS
713 DORNE-MARGOL. TYPE T                                    ANT # / TYPE
 -2349693.0000 -4760657.0000  3523044.0000                  APPROX POSITION XYZ
        2.0000        0.0000        0.0000                  ANTENNA: DELTA H/E/N
     1     1     0                                          WAVELENGTH FACT L1/2
     4    C1    L1    L2    S1                              # / TYPES OF OBSERV
     0                                                      INTERVAL
  1996     6     6    15     4   15.000000                  TIME OF FIRST OBS
  1996     6     6    21     0    0.000000                  TIME OF LAST OBS
                                                            END OF HEADER
 96  6  6 15  4 15.0000000  0  4G 2G 7G19G15
  21174928.482    -5077931.801 9    -28328.67727       106.000
  21061363.292    -1158526.621 9   -190309.28321       102.000
  22156617.143    18344843.845 8    102804.49421        68.000
  23610989.712    -4415917.817 7    -80998.90022        52.000
 96  6  6 15  4 30.0000000  0  4G 2G 7G19G15
  21174204.483    -5081768.073 9    -31317.97328       106.000
  21055255.290    -1190641.011 9   -215329.53221       104.000
  22163230.835    18379600.092 8    129888.49221        68.000
  23608199.064    -4430570.419 7    -92416.49722        50.000
 96  6  6 15  4 45.0000000  0  4G 2G 7G19G15
  21173505.937    -5085404.144 9    -34151.26628       106.000
  21049192.108    -1222493.470 9   -240149.92921       102.000
  22169890.814    18414583.096 8    157147.98724        68.000
  23605468.404    -4444942.197 7   -103615.29623        48.000
 96  6  6 15  5  0.0000000  0  4G 2G 7G19G15
  21172850.710    -5088853.915 9    -36839.40329       106.000
  21043176.622    -1254095.916 9   -264775.20325       102.000
  22176582.451    18449782.792 8    184576.27825        66.000
  23602775.848    -4459046.449 7   -114605.61223        46.000
 96  6  6 15  5 15.0000000  0  6G 2G27G26G 7G19G15
  21172230.590    -5092131.054 9    -39393.02129       108.000
  20273741.741   -19549551.323 9     27197.61721       104.000
  23585662.795     9235153.310 7   -102287.00621        46.000
  21037209.343    -1285459.656 9   -289214.46526       102.000
  22183321.816    18485188.483 8    212165.11525        68.000
  23600145.139    -4472895.407 7   -125397.00124        48.000
 96  6  6 15  5 30.0000000  0  6G 2G27G26G 7G19G15
  21171634.243    -5095245.941 9    -41820.20029       108.000
  20275444.952   -19540597.366 9     34181.75921       106.000
  23580284.848     9206891.546 7   -124309.15821        46.000
  21031286.104    -1316592.718 9   -313473.98727       100.000
  22190096.526    18520790.089 8    239906.60225        68.000
  23597561.858    -4486498.800 7   -135997.02924        48.000
 96  6  6 15  5 45.0000000  0  6G 2G27G26G 7G19G15
  21171072.731    -5098211.414 9    -44130.96629       108.000
  20277191.842   -19531423.837 9     41327.95921       108.000
  23574952.140     9178856.042 7   -146155.00723        48.000
  21025402.797    -1347506.231 9   -337562.43828       102.000
  22196903.493    18556574.783 8    267790.76826        66.000
  23595011.643    -4499869.461 7   -146415.76225        48.000
 96  6  6 15  6  0.0000000  0  6G 2G27G26G 7G19G15
  21170533.375    -5101039.742 9    -46334.85529       106.000
  20278978.935   -19522037.171 9     48638.11321       106.000
  23569646.863     9151031.009 7   -167836.84024        46.000
  21019559.032    -1378212.989 9   -361489.76028       102.000
  22203752.012    18592530.883 8    295808.49926        68.000
  23592511.884    -4513018.915 7   -156662.03325        48.000
 96  6  6 15  6 15.0000000  0  6G 2G27G26G 7G19G15
  21170023.038    -5103731.077 9    -48431.99229       108.000
  20280802.932   -19512435.589 9     56116.48021       104.000
  23564400.045     9123414.082 7   -189356.52825        52.000
  21013756.369    -1408711.066 9   -385254.49629       100.000
  22210624.904    18628658.269 8    323959.66226        68.000
  23590052.357    -4525947.395 7   -166736.16425        50.000
 96  6  6 15  6 30.0000000  0  6G 2G27G26G 7G19G15
  21169540.342    -5106287.671 9    -50424.15529       112.000
  20282672.408   -19502618.323 9     63762.62421       106.000
  23559178.860     9096007.131 7   -210712.58225        48.000
  21007990.461    -1439000.807 9   -408856.89129       100.000
  22217530.054    18664958.994 8    352245.94626        66.000
  23587631.263    -4538653.444 7   -176636.96525        48.000
 96  6  6 15  6 45.0000000  0  6G 2G27G26G 7G19G15
  21169073.985    -5108708.842 9    -52310.78329       108.000
  20284585.803   -19492578.536 9     71585.74221       108.000
  23554013.286     9068815.828 7   -231900.60725        52.000
  21002266.074    -1469078.782 9   -432294.26429        98.000
  22224468.750    18701439.784 8    380672.51626        64.000
  23585255.557    -4551132.207 7   -186360.70525        48.000
 96  6  6 15  7  0.0000000  0  6G 2G27G26G 7G19G15
  21168636.918    -5111009.712 9    -54103.66529       108.000
  20286535.144   -19482327.202 9     79568.63321       106.000
  23548866.509     9041825.250 7   -252932.23725        48.000
  20996581.499    -1498959.208 9   -455577.70529       100.000
  22231441.623    18738086.682 8    409228.53526        66.000
  23582919.155    -4563397.662 7   -195918.19625        46.000
 96  6  6 15  7 15.0000000  0  6G 2G27G26G 7G19G15
  21168218.197    -5113187.857 9    -55800.93029       108.000
  20288528.854   -19471860.302 9     87730.36024       104.000
  23543776.842     9015039.106 7   -273804.56225        52.000
  20990932.090    -1528640.107 9   -478705.68029        98.000
  22238450.291    18774899.478 8    437913.81126        64.000
  23580632.548    -4575446.576 7   -205306.96625        48.000
 96  6  6 15  7 30.0000000  0  6G 2G27G26G 7G19G15
  21167826.758    -5115246.330 9    -57404.92929       108.000
  20290561.027   -19461181.734 9     96051.28026       106.000
  23538713.378     8988454.886 7   -294519.53426        50.000
  20985321.564    -1558127.416 9   -501682.77729        98.000
  22245491.966    18811873.678 8    466724.86626        68.000
  23578379.637    -4587281.769 7   -214529.13725        48.000
 96  6  6 15  7 45.0000000  0  6G 2G27G26G 7G19G15
  21167463.200    -5117191.471 9    -58920.63029       108.000
  20292629.925   -19450297.570 9    104532.42327       104.000
  23533691.464     8962064.211 7   -315083.68326        50.000
  20979748.482    -1587428.387 9   -524514.70629        98.000
  22252555.197    18849001.981 8    495655.97126        66.000
  23576168.098    -4598909.188 7   -223589.49125        48.000
 96  6  6 15  8  0.0000000  0  6G 2G27G26G 7G19G15
  21167106.687    -5119026.209 9    -60350.29729       106.000
  20294741.573   -19439210.050 9    113172.03828       106.000
  23528708.494     8935862.140 7   -335500.88726        50.000
  20974205.140    -1616547.454 9   -547204.88329        96.000
  22259651.374    18886283.404 8    524706.39826        68.000
  23573998.980    -4610330.262 7   -232489.01425        48.000
 96  6  6 15  8 15.0000000  0  6G 2G27G26G 7G19G15
  21166782.911    -5120751.568 9    -61694.74029       108.000
  20296886.768   -19427921.883 9    121968.01129       106.000
  23523755.173     8909848.125 7   -355771.54526        50.000
  20968700.351    -1645486.074 9   -569754.44629        98.000
  22266775.042    18923717.933 8    553876.17126        66.000
  23571860.171    -4621545.036 7   -241227.79325        46.000
 96  6  6 15  8 30.0000000  0  6G 2G27G26G 7G19G15
  21166477.722    -5122357.989 9    -62946.48929       108.000
  20299079.630   -19416426.481 9    130925.46529       104.000
  23518845.952     8884033.492 7   -375886.83526        54.000
  20963229.108    -1674236.259 9   -592157.18529        98.000
  22273923.713    18961316.005 8    583173.35526        64.000
  23569763.123    -4632544.007 7   -249798.42725        46.000
 96  6  6 15  8 45.0000000  0  6G 2G27G26G 7G19G15
  21166191.541    -5123854.169 9    -64112.34829       108.000
  20301301.931   -19404732.062 9    140037.98529       104.000
  23513964.701     8858411.746 7   -395851.83926        52.000
  20957786.706    -1702806.986 9   -614420.08529        96.000
  22281118.073    18999069.786 8    612591.86026        66.000
  23567718.628    -4643334.655 7   -258206.74525        50.000
 96  6  6 15  9  0.0000000  0  6G 2G27G26G 7G19G15
  21165926.644    -5125244.390 9    -65195.64829       108.000
  20303566.623   -19392844.703 9    149300.86329       108.000
  23509126.770     8832975.537 7   -415672.24926        52.000
  20952386.725    -1731203.248 9   -636547.03229        98.000
  22288316.929    19036971.982 7    642126.02826        62.000
  23565700.695    -4653924.341 7   -266458.42725        48.000
 96  6  6 15  9 15.0000000  0  6G 2G27G26G 7G19G15
  21165685.941    -5126522.946 9    -66191.92829       108.000
  20305864.503   -19380762.828 9    158715.31429       104.000
  23504325.564     8807727.644 7   -435345.94526        52.000
  20947016.842    -1759421.749 9   -658535.46029        96.000
  22295568.849    19075025.766 7    671778.31026        62.000
  23563718.887    -4664310.110 7   -274551.22025        50.000
 96  6  6 15  9 30.0000000  0  6G 2G27G26G 7G19G15
  21165465.233    -5127676.969 9    -67091.15629       108.000
  20308200.605   -19368473.880 9    168291.10429       106.000
  23499555.446     8782681.324 7   -454862.56426        52.000
  20941683.774    -1787445.765 9   -680372.36929        96.000
  22302836.867    19113248.114 7    701561.93426        60.000
  23561780.399    -4674477.111 7   -282473.54725        48.000
 96  6  6 15  9 45.0000000  0  6G 2G27G26G 7G19G15
  21165266.921    -5128723.777 9    -67906.85929       106.000
  20310577.870   -19355994.621 9    178015.20029       108.000
  23494833.145     8757817.112 7   -474237.25326        54.000
  20936384.493    -1815291.157 9   -702070.06129        96.000
  22310141.700    19151623.535 7    731464.82626        60.000
  23559890.627    -4684442.619 7   -290238.89925        48.000
 96  6  6 15 10  0.0000000  0  6G 2G27G26G 7G19G15
  21165086.356    -5129657.029 9    -68634.07329       106.000
  20312987.302   -19343321.133 9    187890.64529       106.000
  23490128.353     8733142.457 7   -493464.25226        54.000
  20931121.846    -1842950.765 9   -723622.99129        96.000
  22317476.722    19190158.669 7    761492.19126        62.000
  23558034.252    -4694201.422 7   -297843.16225        48.000
 96  6  6 15 10 15.0000000  0  6G 2G27G26G 7G19G15
  21164927.046    -5130482.693 9    -69277.44229       106.000
  20315434.627   -19330462.602 9    197910.26929       106.000
  23485469.937     8708653.078 7   -512546.88926        54.000
  20925891.157    -1870430.678 9   -745035.91629        96.000
  22324835.308    19228843.881 8    791636.49226        64.000
  23556211.784    -4703761.497 7   -305292.56725        48.000
 96  6  6 15 10 30.0000000  0  6G 2G27G26G 7G19G15
  21164790.730    -5131211.158 9    -69845.08229       106.000
  20317914.930   -19317430.782 9    208064.92629       106.000
  23480846.178     8684341.165 7   -531491.24526        56.000
  20920693.805    -1897739.792 9   -766315.74029        94.000
  22332226.571    19267666.976 8    821888.23426        66.000
  23554430.807    -4713134.660 7   -312596.31725        48.000
 96  6  6 15 10 45.0000000  0  6G 2G27G26G 7G19G15
  21164672.912    -5131833.114 9    -70329.74029       108.000
  20320429.739   -19304215.472 9    218362.56529       106.000
  23476256.806     8660213.973 7   -550291.65826        52.000
  20915531.529    -1924867.750 9   -787454.40229        94.000
  22339640.169    19306634.866 7    852252.79626        62.000
  23552685.805    -4722312.095 7   -319747.55025        46.000
 96  6  6 15 11  0.0000000  0  6G 2G27G26G 7G19G15
  21164573.231    -5132352.606 9    -70734.52629       108.000
  20322979.174   -19290820.346 9    228800.32729       104.000
  23471694.384     8636264.966 7   -568953.19926        54.000
  20910405.917    -1951819.829 9   -808456.01929        94.000
  22347081.168    19345741.845 7    882725.75226        62.000
  23550978.667    -4731298.943 7   -326750.27425        44.000
 96  6  6 15 11 15.0000000  0  6G 2G27G26G 7G19G15
  21164492.347    -5132768.488 9    -71058.58829       108.000
  20325562.576   -19277247.274 9    239376.73829       106.000
  23467172.045     8612492.346 7   -587477.30926        52.000
  20905311.754    -1978596.851 9   -829321.22329        94.000
  22354546.569    19384986.628 7    913306.06826        60.000
  23549302.077    -4740095.731 7   -333604.91225        46.000
 96  6  6 15 11 30.0000000  0  6G 2G27G26G 7G19G15
  21164438.474    -5133079.521 9    -71300.95429       108.000
  20328177.486   -19263492.302 9    250094.89329       104.000
  23462682.233     8588899.951 7   -605860.99926        52.000
  20900249.548    -2005194.669 9   -850046.78729        94.000
  22362042.370    19424370.552 7    943994.81526        60.000
  23547667.879    -4748697.714 7   -340307.77225        48.000
 96  6  6 15 11 45.0000000  0  6G 2G27G26G 7G19G15
  21164394.674    -5133295.354 9    -71469.13729       110.000
  20330828.490   -19249565.252 9    260947.13729       106.000
  23458222.940     8565478.441 7   -624111.52426        54.000
  20895216.213    -2031624.340 9   -870641.33129        94.000
  22369561.405    19463880.190 7    974781.53626        60.000
  23546066.028    -4757114.836 7   -346866.57425        44.000
 96  6  6 15 12  0.0000000  0  6G 2G27G26G 7G19G15
  21164372.730    -5133423.378 9    -71568.88229       110.000
  20333508.065   -19235474.585 9    271926.88229       102.000
  23453798.963     8542221.702 7   -642233.66926        52.000
  20890216.634    -2057896.708 9   -891113.29429        94.000
  22377104.033    19503504.118 7   1005657.31926        60.000
  23544499.013    -4765356.427 7   -353288.54225        44.000
 96  6  6 15 12 15.0000000  0  6G 2G27G26G 7G19G15
  21164363.586    -5133447.676 9    -71587.83429       110.000
  20336226.014   -19221202.916 9    283047.64829       106.000
  23449407.363     8519147.064 7   -660213.91826        54.000
  20885256.088    -2083994.579 9   -911449.30029        96.000
  22384670.855    19543256.205 8   1036632.93726        64.000
  23542964.195    -4773406.061 7   -359560.98825        42.000
 96  6  6 15 12 30.0000000  0  6G 2G27G26G 7G19G15
  21164382.233    -5133370.778 9    -71527.92129       112.000
  20338976.400   -19206749.344 9    294310.17029       106.000
  23445052.848     8496251.752 7   -678054.38726        54.000
  20880315.269    -2109918.402 9   -931649.67629        92.000
  22392254.974    19583133.766 7   1067706.33726        62.000
  23541472.158    -4781264.894 7   -365684.75725        46.000
 96  6  6 15 12 45.0000000  0  6G 2G27G26G 7G19G15
  21164405.767    -5133242.835 9    -71428.22429       108.000
  20341751.668   -19192162.948 9    305676.18829       104.000
  23440722.196     8473482.765 7   -695796.45726        54.000
  20875412.163    -2135718.086 9   -951753.31829        98.000
  22399861.399    19623089.922 7   1098840.97926        62.000
  23540005.933    -4788982.002 7   -371698.06425        42.000
 96  6  6 15 13  0.0000000  0  6G 2G27G26G 7G19G15
  21164435.356    -5133084.948 9    -71305.18929       112.000
  20344551.340   -19177464.864 9    317129.22929       108.000
  23436403.985     8450817.520 7   -713457.66226        52.000
  20870519.610    -2161417.043 9   -971778.47629        96.000
  22407476.217    19663103.469 7   1130020.35026        62.000
  23538560.634    -4796577.917 7   -377616.98225        46.000
 96  6  6 15 13 15.0000000  0  6G 2G27G26G 7G19G15
  21164482.963    -5132829.835 9    -71106.41929       108.000
  20347378.803   -19162587.983 9    328721.59729       106.000
  23432126.966     8428327.888 7   -730982.06026        54.000
  20865661.383    -2186947.691 9   -991672.48229        94.000
  22415113.010    19703242.754 7   1161297.69626        62.000
  23537144.954    -4803984.272 7   -383388.16425        44.000
 96  6  6 15 13 30.0000000  0  6G 2G27G26G 7G19G15
  21164549.187    -5132487.671 9    -70839.78629       110.000
  20350247.457   -19147537.739 9    340449.06129       108.000
  23427881.035     8406010.199 7   -748372.50026        54.000
  20860837.273    -2212313.062 9  -1011437.69929        96.000
  22422774.266    19743501.299 7   1192667.97126        60.000
  23535760.842    -4811206.012 7   -389015.46825        42.000
 96  6  6 15 13 45.0000000  0  6G 2G27G26G 7G19G15
  21164630.821    -5132062.773 9    -70508.70429       108.000
  20353138.326   -19132318.431 9    352308.25329       104.000
  23423663.855     8383860.619 7   -765631.90526        54.000
  20856042.212    -2237515.574 9  -1031076.00829        96.000
  22430455.998    19783876.305 7   1224128.99726        62.000
  23534430.873    -4818246.168 7   -394501.32225        44.000
 96  6  6 15 14  0.0000000  0  6G 2G27G26G 7G19G15
  21164725.855    -5131559.750 9    -70116.74129       110.000
  20356066.848   -19116934.201 9    364295.95129       106.000
  23419481.510     8361874.590 7   -782763.83926        52.000
  20851274.133    -2262559.617 9  -1050590.84929        96.000
  22438160.755    19824367.026 7   1255680.18926        62.000
  23533125.456    -4825109.357 7   -399849.24025        42.000
 96  6  6 15 14 15.0000000  0  6G 2G27G26G 7G19G15
  21164834.290    -5130982.685 9    -69667.07429       110.000
  20359025.830   -19101388.537 9    376409.45329       104.000
  23415330.314     8340048.593 7   -799771.10626        54.000
  20846536.903    -2287446.891 9  -1069983.52129        94.000
  22445889.494    19864972.536 7   1287320.82126        62.000
  23531847.051    -4831798.236 7   -405061.33525        42.000
 96  6  6 15 14 30.0000000  0  6G 2G27G26G 7G19G15
  21164960.653    -5130336.437 9    -69163.50129       110.000
  20362015.750   -19085687.429 9    388644.06229       108.000
  23411202.532     8318377.543 7   -816657.63226        54.000
  20841832.350    -2312181.235 9  -1089257.02829        96.000
  22453634.602    19905690.142 7   1319048.80026        62.000
  23530617.303    -4838315.445 7   -410139.66825        42.000
 96  6  6 15 14 45.0000000  0  6G 2G27G26G 7G19G15
  21165094.720    -5129626.945 9    -68610.65229       112.000
  20365030.733   -19069838.606 9    400993.79429       106.000
  23407103.559     8296855.871 7   -833427.77926        54.000
  20837153.129    -2336768.864 9  -1108416.21929        98.000
  22461404.713    19946518.506 7   1350863.08726        62.000
  23529402.813    -4844666.233 7   -415088.34625        42.000
 96  6  6 15 15  0.0000000  0  6G 2G27G26G 7G19G15
  21165242.458    -5128857.163 9    -68010.82629       112.000
  20368071.288   -19053844.049 9    413457.09129       106.000
  23403043.890     8275483.137 7   -850081.86126        56.000
  20832497.232    -2361216.656 9  -1127466.44429        96.000
  22469196.889    19987454.851 7   1382761.54326        60.000
  23528223.010    -4850853.331 7   -419909.42225        42.000
 96  6  6 15 15 15.0000000  0  6G 2G27G26G 7G19G15
  21165395.262    -5128031.355 9    -67367.33129       112.000
  20371142.781   -19037708.269 9    426030.41329       106.000
  23399000.769     8254257.929 7   -866620.98626        54.000
  20827874.073    -2385528.947 9  -1146411.07329        96.000
  22477001.716    20028493.412 7   1414739.60926        58.000
  23527076.394    -4856881.905 6   -424606.99925        40.000
 96  6  6 15 15 30.0000000  0  6G 2G27G26G 7G19G15
  21165567.493    -5127146.645 9    -66677.94529       112.000
  20374239.068   -19021427.039 9    438717.08429       104.000
  23394993.623     8233184.755 7   -883041.60926        56.000
  20823273.428    -2409699.975 9  -1165245.63429        96.000
  22484835.143    20069637.810 7   1446800.16226        58.000
  23525961.106    -4862748.562 6   -429178.44125        40.000
 96  6  6 15 15 45.0000000  0  6G 2G27G26G 7G19G15
  21165746.199    -5126202.271 9    -65942.08629       110.000
  20377368.152   -19005002.047 9    451515.77329       106.000
  23391009.561     8212259.037 7   -899347.37726        54.000
  20818699.794    -2433733.206 9  -1183972.82229        96.000
  22492678.643    20110887.253 7   1478942.53826        58.000
  23524875.917    -4868454.494 7   -433624.60925        42.000
 96  6  6 15 16  0.0000000  0  6G 2G27G26G 7G19G15
  21165935.907    -5125193.831 9    -65156.28729       108.000
  20380521.459   -18988432.839 9    464426.82729       106.000
  23387056.528     8191482.338 7   -915536.99726        54.000
  20814154.011    -2457629.622 9  -1202593.42129        96.000
  22500548.015    20152243.742 7   1511168.35326        56.000
  23523813.393    -4873999.560 6   -437945.42025        40.000
 96  6  6 15 16 15.0000000  0  6G 2G27G26G 7G19G15
  21166142.854    -5124117.540 9    -64317.61729       112.000
  20383702.376   -18971716.004 9    477452.92429       106.000
  23383132.154     8170857.447 7   -931608.35826        54.000
  20809631.792    -2481387.660 9  -1221106.16329        96.000
  22508441.820    20193709.123 7   1543479.02526        56.000
  23522798.356    -4879381.456 7   -442139.11325        42.000
 96  6  6 15 16 30.0000000  0  6G 2G27G26G 7G19G15
  21166357.656    -5122973.813 9    -63426.41529       112.000
  20386912.014   -18954853.348 9    490592.64829       106.000
  23379240.249     8150382.512 7   -947562.84126        54.000
  20805137.513    -2505008.380 9  -1239511.90829        96.000
  22516355.412    20235278.763 7   1575870.91226        58.000
  23521806.102    -4884601.300 7   -446206.52325        42.000
 96  6  6 15 16 45.0000000  0  6G 2G27G26G 7G19G15
  21166589.605    -5121764.103 9    -62483.77329       112.000
  20390146.056   -18937843.124 9    503847.36929       106.000
  23375365.821     8130055.798 7   -963401.87526        52.000
  20800667.068    -2528495.637 9  -1257813.66029        98.000
  22524283.963    20276950.103 7   1608342.08126        56.000
  23520833.276    -4889660.791 7   -450148.96825        42.000
 96  6  6 15 17  0.0000000  0  6G 2G27G26G 7G19G15
  21166833.606    -5120487.242 9    -61488.81729       112.000
  20393412.384   -18920681.048 9    517220.39929       106.000
  23371524.131     8109879.929 7   -979123.30726        54.000
  20796223.274    -2551848.431 9  -1276010.63629        96.000
  22532235.238    20318720.879 7   1640890.71526        58.000
  23519902.390    -4894559.102 6   -453965.84525        40.000
 96  6  6 15 17 15.0000000  0  6G 2G27G26G 7G19G15
  21167085.941    -5119143.640 9    -60441.86429       112.000
  20396708.513   -18903367.947 9    530711.11729       106.000
  23367715.717     8089852.832 7   -994728.85026        52.000
  20791803.674    -2575066.946 9  -1294102.99129        96.000
  22540202.223    20360586.011 7   1673512.87326        58.000
  23519005.951    -4899297.659 7   -457658.20425        42.000
 96  6  6 15 17 30.0000000  0  6G 2G27G26G 7G19G15
  21167359.352    -5117733.485 9    -59343.04129       112.000
  20400031.232   -18885906.100 9    544317.75629       106.000
  23363933.415     8069972.503 7  -1010219.99626        54.000
  20787413.573    -2598145.279 9  -1312086.09429        96.000
  22548186.445    20402546.434 7   1706209.26526        58.000
  23518140.300    -4903874.642 7   -461224.67125        42.000
 96  6  6 15 17 45.0000000  0  6G 2G27G26G 7G19G15
  21167639.808    -5116249.102 9    -58186.37929       110.000
  20403381.893   -18868286.591 9    558047.22729       106.000
  23360181.513     8050244.633 7  -1025592.37826        54.000
  20783049.674    -2621075.198 9  -1329953.56329        96.000
  22556187.007    20444610.070 7   1738986.11626        54.000
  23517293.806    -4908279.970 7   -464657.35825        42.000
 96  6  6 15 18  0.0000000  0  6G 2G27G26G 7G19G15
  21167937.922    -5114702.956 9    -56981.60529       110.000
  20406764.571   -18850521.648 9    571890.02529       106.000
  23356457.461     8030656.494 7  -1040855.85326        56.000
  20778712.157    -2643869.335 9  -1347715.22429        96.000
  22564205.076    20486761.926 7   1771831.68226        54.000
  23516492.881    -4912526.786 7   -467966.58225        42.000
 96  6  6 15 18 15.0000000  0  6G 2G27G26G 7G19G15
  21168238.463    -5113097.672 9    -55730.73429       110.000
  20410171.682   -18832611.047 9    585846.33229       106.000
  23352756.283     8011209.126 7  -1056009.65526        50.000
  20774400.782    -2666526.632 9  -1365370.25929        96.000
  22572241.283    20528999.967 7   1804744.41426        54.000
  23515707.095    -4916615.290 7   -471152.39125        42.000
 96  6  6 15 18 30.0000000  0  6G 2G27G26G 7G19G15
  21168557.413    -5111436.063 9    -54435.96429       108.000
  20413609.492   -18814552.305 9    599918.07429       106.000
  23349079.419     7991903.616 7  -1071052.90326        56.000
  20770115.818    -2689045.515 9  -1382917.43129        96.000
  22580295.836    20571324.604 7   1837724.62926        54.000
  23514961.361    -4920544.846 7   -474214.38425        44.000
 96  6  6 15 18 45.0000000  0  6G 2G27G26G 7G19G15
  21168881.908    -5109717.314 9    -53096.67929       108.000
  20417073.594   -18796344.943 9    614105.61929       106.000
  23345429.296     7972742.041 7  -1085984.01126        52.000
  20765856.337    -2711423.597 9  -1400354.89729        96.000
  22588367.688    20613737.790 7   1870773.85026        52.000
  23514245.217    -4924314.015 7   -477151.38225        42.000
 96  6  6 15 19  0.0000000  0  6G 2G27G26G 7G19G15
  21169221.093    -5107943.417 9    -51714.42929       110.000
  20420569.174   -18777992.499 9    628406.21729       106.000
  23341814.368     7953723.935 7  -1100803.30926        56.000
  20761625.126    -2733661.459 9  -1417683.10229        96.000
  22596457.888    20656239.101 7   1903891.70926        50.000
  23513555.604    -4927925.246 7   -479965.34125        42.000
 96  6  6 15 19 15.0000000  0  6G 2G27G26G 7G19G15
  21169567.953    -5106109.597 9    -50285.46529       108.000
  20424086.039   -18759495.194 9    642819.70829       106.000
  23338216.739     7934852.902 7  -1115508.01026        52.000
  20757421.196    -2755753.517 9  -1434897.67429        96.000
  22604566.614    20698833.286 7   1937081.97626        56.000
  23512901.667    -4931375.256 7   -482653.65425        42.000
 96  6  6 15 19 30.0000000  0  6G 2G27G26G 7G19G15
  21169926.925    -5104230.514 9    -48821.25729       106.000
  20427630.156   -18740868.886 9    657333.69529       106.000
  23334653.645     7916112.912 7  -1130110.60326        54.000
  20753244.908    -2777715.257 9  -1452010.72529        96.000
  22612685.833    20741507.949 7   1970334.94626        52.000
  23512271.473    -4934678.815 7   -485227.83425        42.000
 96  6  6 15 19 45.0000000  0  6G 2G27G26G 7G19G15
  21170294.800    -5102299.949 9    -47316.91329       106.000
  20431201.284   -18722105.682 9    671954.37229       108.000
  23331115.435     7897512.835 7  -1144604.16226        54.000
  20749087.925    -2799542.456 9  -1469018.91629        96.000
  22620823.460    20784269.564 7   2003655.66226        52.000
  23511670.599    -4937829.978 7   -487683.26825        42.000
 96  6  6 15 20  0.0000000  0  6G 2G27G26G 7G19G15
  21170670.800    -5100311.614 9    -45767.56329       108.000
  20434797.204   -18703198.079 9    686687.55629       106.000
  23327604.236     7879060.609 7  -1158982.52426        52.000
  20744963.051    -2821231.733 9  -1485919.64129        96.000
  22628979.673    20827125.297 7   2037049.69126        54.000
  23511097.726    -4940824.256 6   -490016.48425        40.000
 96  6  6 15 20 15.0000000  0  6G 2G27G26G 7G19G15
  21171063.288    -5098261.662 9    -44170.20129       106.000
  20438423.074   -18684144.946 9    701534.14129       106.000
  23324124.635     7860759.660 7  -1173242.99126        54.000
  20740862.250    -2842779.987 9  -1502710.49029        98.000
  22637153.755    20870079.650 7   2070520.62226        52.000
  23510566.523    -4943659.987 7   -492226.15425        44.000
 96  6  6 15 20 30.0000000  0  6G 2G27G26G 7G19G15
  21171462.521    -5096152.852 9    -42526.96929       108.000
  20442080.782   -18664949.657 9    716491.50229       108.000
  23320669.317     7842606.758 7  -1187388.11326        52.000
  20736784.443    -2864188.414 9  -1519392.37829        96.000
  22645348.701    20913134.196 7   2104069.58826        56.000
  23510056.427    -4946338.130 7   -494313.02725        44.000
 96  6  6 15 20 45.0000000  0  6G 2G27G26G 7G19G15
  21171873.807    -5093985.467 9    -40838.10329       108.000
  20445759.145   -18645617.268 9    731555.69529       108.000
  23317242.809     7824597.455 7  -1201421.36126        54.000
  20732737.634    -2885459.040 9  -1535966.88829        98.000
  22653558.548    20956286.375 7   2137694.64126        54.000
  23509576.609    -4948862.037 7   -496279.69625        44.000
 96  6  6 15 21  0.0000000  0  6G 2G27G26G 7G19G15
  21172297.533    -5091758.698 9    -39102.95929       108.000
  20449463.021   -18626150.166 9    746724.85529       108.000
  23313837.886     7806729.828 7  -1215344.17126        52.000
  20728721.435    -2906594.008 9  -1552435.68229        98.000
  22661788.750    20999531.926 7   2171392.44626        54.000
  23509123.023    -4951232.227 7   -498126.59425        44.000
 96  6  6 15 21 15.0000000  0  6G 2G27G26G 7G19G15
  21172732.622    -5089477.166 9    -37325.14829       108.000
  20453188.003   -18606550.076 9    761997.64429       108.000
  23310462.822     7789002.645 7  -1229157.55126        56.000
  20724719.355    -2927598.429 9  -1568802.75529        96.000
  22670032.593    21042867.357 7   2205160.30526        52.000
  23508700.495    -4953450.781 7   -499855.32125        46.000
 96  6  6 15 21 30.0000000  0  6G 2G27G26G 7G19G15
  21173181.232    -5087138.898 9    -35503.12929       108.000
  20456945.601   -18586813.975 9    777376.40929       108.000
  23307118.068     7771419.105 7  -1242858.99326        52.000
  20720749.983    -2948471.750 9  -1585067.67729        98.000
  22678298.141    21086292.035 7   2238997.71526        52.000
  23508310.885    -4955513.591 7   -501462.72425        46.000
 96  6  6 15 21 45.0000000  0  6G 2G27G26G 7G19G15
  21173632.000    -5084743.716 9    -33636.74529       110.000
  20460730.751   -18566940.583 9    792862.17129       108.000
  23303799.425     7753978.706 7  -1256448.94526        52.000
  20716802.946    -2969211.426 9  -1601228.46029        98.000
  22686574.811    21129805.611 7   2272904.37325        50.000
  23507947.537    -4957419.526 7   -502947.82925        48.000
 96  6  6 15 22  0.0000000  0  6G 2G27G26G 7G19G15
  21174099.796    -5082293.671 9    -31727.62529       110.000
  20464532.809   -18546932.189 9    808453.11329       106.000
  23300511.841     7736679.122 7  -1269929.12526        54.000
  20712879.862    -2989819.402 9  -1617286.62029        98.000
  22694875.015    21173407.180 7   2306879.59525        52.000
  23507610.060    -4959169.377 7   -504311.33625        46.000
 96  6  6 15 22 15.0000000  0  6G 2G27G26G 7G19G15
  21174579.134    -5079789.119 9    -29776.02629       110.000
  20468369.703   -18526791.469 9    824147.17129       108.000
  23297248.960     7719516.578 7  -1283302.55626        54.000
  20708984.478    -3010298.077 9  -1633244.03129        98.000
  22703186.611    21217093.413 7   2340920.79125        50.000
  23507307.060    -4960764.826 7   -505554.57625        44.000
 96  6  6 15 22 30.0000000  0  6G 2G27G26G 7G19G15
  21175065.127    -5077230.743 9    -27782.48729       110.000
  20472223.115   -18506517.304 9    839945.22229       108.000
  23294005.895     7702491.168 7  -1296569.10726        56.000
  20705109.421    -3030648.845 9  -1649101.76829        96.000
  22711518.923    21260861.098 7   2375025.46525        54.000
  23507030.531    -4962204.246 7   -506676.16925        42.000
 96  6  6 15 22 45.0000000  0  6G 2G27G26G 7G19G15
  21175559.485    -5074621.722 9    -25749.48329       110.000
  20476110.644   -18486112.271 9    855845.23029       108.000
  23290792.060     7685601.599 7  -1309729.81826        54.000
  20701258.077    -3050877.266 9  -1664864.17429        98.000
  22719860.048    21304701.069 7   2409186.47525        52.000
  23506789.288    -4963491.674 7   -507679.38125        44.000
 96  6  6 15 23  0.0000000  0  6G 2G27G26G 7G19G15
  21176069.462    -5071959.126 9    -23674.73129       112.000
  20480019.787   -18465569.125 9    871852.87229       110.000
  23287601.579     7668851.431 7  -1322781.88526        52.000
  20697435.454    -3070981.400 9  -1680529.72929       100.000
  22728211.607    21348610.924 7   2443401.92525        50.000
  23506573.498    -4964624.109 7   -508561.77925        46.000
 96  6  6 15 23 15.0000000  0  6G 2G27G26G 7G19G15
  21176572.304    -5069296.415 9    -21599.90229       112.000
  20483946.319   -18444937.411 9    887929.52029       110.000
  23284429.055     7652190.011 7  -1335764.80726        52.000
  20693626.081    -3091013.494 9  -1696139.14729        98.000
  22736567.182    21392540.419 7   2477632.67825        50.000
  23506378.843    -4965652.572 7   -509363.17725        42.000
 96  6  6 15 23 30.0000000  0  6G 2G27G26G 7G19G15
  21177083.540    -5066616.188 9    -19511.40129       110.000
  20487896.235   -18424198.361 9    904089.82329       110.000
  23281285.881     7635632.537 7  -1348666.73726        56.000
  20689830.798    -3110953.838 9  -1711677.07729        98.000
  22744938.347    21436509.418 7   2511894.24025        50.000
  23506205.233    -4966560.078 7   -510070.30025        44.000
 96  6  6 15 23 45.0000000  0  6G 2G27G26G 7G19G15
  21177606.018    -5063874.704 9    -17375.18229       110.000
  20491865.966   -18403309.099 9    920367.15929       110.000
  23278156.618     7619217.820 7  -1361457.41726        54.000
  20686059.559    -3130758.342 9  -1727109.15629        98.000
  22753322.493    21480561.293 7   2546220.35925        50.000
  23506065.589    -4967305.297 7   -510650.98525        42.000
 96  6  6 15 24  0.0000000  0  6G 2G27G26G 7G19G15
  21178147.444    -5061035.111 9    -15162.53129       110.000
  20495876.350   -18382228.759 9    936793.38729       110.000
  23275072.802     7602984.822 7  -1374106.51526        54.000
  20682325.164    -3150390.043 9  -1742406.58229        98.000
  22761725.315    21524736.811 7   2580642.78925        50.000
  23505961.831    -4967850.952 7   -511076.17125        42.000
 96  6  6 15 24 15.0000000  0  6G 2G27G26G 7G19G15
  21178695.914    -5058154.401 9    -12917.81029       110.000
  20499913.475   -18361010.689 9    953326.94829       110.000
  23272003.887     7586879.605 7  -1386656.03226        54.000
  20678608.247    -3169906.482 9  -1757614.18529        98.000
  22770145.526    21568979.218 7   2615117.38925        48.000
  23505888.682    -4968253.130 7   -511389.55525        42.000
 96  6  6 15 24 30.0000000  0  6G 2G27G26G 7G19G15
  21179251.759    -5055237.786 9    -10645.12429       110.000
  20503976.832   -18339657.783 9    969965.57129       110.000
  23268962.702     7570901.387 7  -1399106.61126        56.000
  20674919.181    -3189306.190 9  -1772730.83929        96.000
  22778578.538    21613283.473 7   2649640.14225        48.000
  23505837.537    -4968514.945 7   -511593.58425        42.000
 96  6  6 15 24 45.0000000  0  6G 2G27G26G 7G19G15
  21179821.125    -5052244.246 9     -8312.49929       108.000
  20508073.226   -18318132.409 9    986738.57629       110.000
  23265954.555     7555093.436 7  -1411424.49526        56.000
  20671256.557    -3208545.954 9  -1787722.86529        96.000
  22787024.231    21657692.890 7   2684244.85325        48.000
  23505817.931    -4968594.854 7   -511655.82725        42.000
 96  6  6 15 25  0.0000000  0  6G 2G27G26G 7G19G15
  21180379.338    -5049283.734 9     -6005.61429       108.000
  20512182.362   -18296543.104 9   1003561.40329       110.000
  23262957.949     7539346.163 7  -1423695.09126        56.000
  20667607.693    -3227732.049 9  -1802673.06229        98.000
  22795480.267    21702102.732 7   2718849.91625        46.000
  23505815.293    -4968602.165 6   -511661.51625        38.000
 96  6  6 15 25 15.0000000  0  6G 2G27G26G 7G19G15
  21180952.722    -5046282.182 9     -3666.73429       108.000
  20516318.208   -18274816.976 9   1020490.85929       110.000
  23259988.085     7523734.132 7  -1435860.32426        54.000
  20663982.033    -3246786.989 9  -1817521.07129       100.000
  22803946.047    21746594.766 7   2753519.03925        44.000
  23505844.313    -4968461.326 6   -511551.76425        40.000
 96  6  6 15 25 30.0000000  0  6G 2G27G26G 7G19G15
  21181535.698    -5043223.215 9     -1283.13929       110.000
  20520481.157   -18252942.396 9   1037535.97029       110.000
  23257049.130     7508274.343 7  -1447906.91726        56.000
  20660381.016    -3265697.304 9  -1832256.37329        96.000
  22812433.831    21791188.680 7   2788267.47825        50.000
  23505900.404    -4968157.284 7   -511314.84325        42.000
 96  6  6 15 25 45.0000000  0  6G 2G27G26G 7G19G15
  21182128.028    -5040110.462 9      1142.39329       110.000
  20524670.996   -18230925.363 9   1054692.09629       110.000
  23254132.899     7492963.174 7  -1459837.68026        56.000
  20656809.318    -3284469.448 9  -1846884.01329        98.000
  22820940.352    21835878.657 7   2823090.81425        46.000
  23505989.682    -4967695.069 7   -510954.66125        42.000
 96  6  6 15 26  0.0000000  0  6G 2G27G26G 7G19G15
  21182729.621    -5036949.726 9      3605.29329       110.000
  20528886.258   -18208776.398 9   1071951.02629       110.000
  23251247.097     7477797.114 7  -1471655.40826        56.000
  20653263.613    -3303110.906 9  -1861409.82629        96.000
  22829461.083    21880656.477 7   2857982.60025        48.000
  23506111.038    -4967081.210 7   -510476.34625        42.000
 96  6  6 15 26 15.0000000  0  6G 2G27G26G 7G19G15
  21183336.012    -5033745.957 9      6101.72829       108.000
  20533126.163   -18186500.165 9   1089309.12929       110.000
  23248384.948     7462773.843 7  -1483361.82826        56.000
  20649741.292    -3321623.573 9  -1875835.27729        98.000
  22837996.384    21925516.874 7   2892938.72925        46.000
  23506251.341    -4966318.575 7   -509882.07225        42.000
 96  6  6 15 26 30.0000000  0  6G 2G27G26G 7G19G15
  21183956.672    -5030498.715 9      8632.04729       108.000
  20537384.774   -18164101.102 9   1106762.92729       108.000
  23245555.057     7447890.977 7  -1494958.88326        56.000
  20646246.311    -3340005.241 9  -1890158.65529        98.000
  22846554.020    21970459.414 7   2927958.86325        48.000
  23506424.831    -4965407.871 6   -509172.44425        40.000
 96  6  6 15 26 45.0000000  0  6G 2G27G26G 7G19G15
  21184584.108    -5027203.824 9     11199.49629       106.000
  20541670.787   -18141581.512 9   1124310.65429       108.000
  23242749.659     7433149.140 7  -1506446.04326        56.000
  20642768.269    -3358255.878 9  -1904379.93129        96.000
  22855120.769    22015487.489 7   2963045.66825        48.000
  23506624.882    -4964347.731 7   -508346.35825        42.000
 96  6  6 15 27  0.0000000  0  6G 2G27G26G 7G19G15
  21185217.089    -5023862.502 9     13803.12829       106.000
  20545977.846   -18118940.977 9   1141952.62229       108.000
  23239973.311     7418544.604 7  -1517826.20226        58.000
  20639320.895    -3376379.591 9  -1918502.29529        96.000
  22863704.127    22060599.476 7   2998197.83425        46.000
  23506854.793    -4963139.994 7   -507405.26125        42.000
 96  6  6 15 27 15.0000000  0  6G 2G27G26G 7G19G15
  21185862.123    -5020471.113 9     16445.76229       106.000
  20550315.393   -18096176.343 9   1159691.28329       108.000
  23237221.127     7404074.621 7  -1529101.52226        56.000
  20635898.345    -3394375.749 9  -1932525.27129        98.000
  22872309.729    22105794.348 7   3033414.58325        48.000
  23507106.799    -4961783.096 7   -506347.91425        42.000
 96  6  6 15 27 30.0000000  0  6G 2G27G26G 7G19G15
  21186519.328    -5017030.438 9     19126.80029       106.000
  20554668.409   -18073290.183 9   1177524.64229       110.000
  23234487.709     7389739.575 7  -1540271.67226        56.000
  20632493.182    -3412247.677 9  -1946451.44929        96.000
  22880918.090    22151068.628 7   3068693.21425        46.000
  23507401.465    -4960277.495 7   -505174.74325        44.000
 96  6  6 15 27 45.0000000  0  6G 2G27G26G 7G19G15
  21187182.349    -5013541.881 9     21845.16129       104.000
  20559044.510   -18050282.663 9   1195452.57729       110.000
  23231785.350     7375539.959 7  -1551336.31426        56.000
  20629119.678    -3429993.236 9  -1960279.15529        98.000
  22889543.029    22196418.504 7   3104030.74326        46.000
  23507714.748    -4958622.388 6   -503885.00925        40.000
 96  6  6 15 28  0.0000000  0  6G 2G27G26G 7G19G15
  21187863.118    -5009960.747 9     24635.65829       106.000
  20563454.517   -18027107.806 9   1213510.91029       108.000
  23229122.233     7361520.096 7  -1562260.86026        56.000
  20625774.743    -3447564.083 9  -1973970.70829        98.000
  22898198.997    22241886.766 7   3139460.55526        44.000
  23508069.462    -4956771.907 7   -502443.09725        44.000
 96  6  6 15 28 15.0000000  0  6G 2G27G26G 7G19G15
  21188556.687    -5006328.875 9     27465.67329       106.000
  20567890.186   -18003802.769 9   1231670.65529       110.000
  23226480.342     7347640.324 7  -1573076.28026        58.000
  20622457.090    -3464995.701 9  -1987553.80529        98.000
  22906866.207    22287433.475 7   3174951.43326        44.000
  23508451.428    -4954764.532 6   -500878.94725        40.000
 96  6  6 15 28 30.0000000  0  6G 2G27G26G 7G19G15
  21189250.197    -5002680.348 9     30308.68929       104.000
  20572343.033   -17980399.873 9   1249906.67929       110.000
  23223857.488     7333864.753 7  -1583810.50626        56.000
  20619157.244    -3482323.338 9  -2001055.83929        96.000
  22915542.110    22333025.350 7   3210477.54926        44.000
  23508858.726    -4952633.919 6   -499218.67825        40.000
 96  6  6 15 28 45.0000000  0  6G 2G27G26G 7G19G15
  21189957.228    -4998978.653 9     33193.12529       104.000
  20576820.614   -17956862.474 9   1268247.50129       108.000
  23221260.716     7320231.238 7  -1594434.01926        56.000
  20615888.098    -3499516.530 9  -2014453.13529        96.000
  22924238.670    22378697.127 7   3246065.89826        46.000
  23509291.416    -4950344.916 7   -497435.02625        42.000
 96  6  6 15 29  0.0000000  0  6G 2G27G26G 7G19G15
  21190660.271    -4995264.022 9     36087.64529       106.000
  20581318.550   -17933226.136 9   1286665.42229       108.000
  23218685.528     7306700.241 7  -1604977.65626        58.000
  20612633.851    -3516615.855 9  -2027777.27529        96.000
  22932925.396    22424406.202 7   3281683.34726        46.000
  23509747.490    -4947936.449 7   -495558.28925        42.000
 96  6  6 15 29 15.0000000  0  6G 2G27G26G 7G19G15
  21191375.246    -4991508.705 9     39013.85329       104.000
  20585842.838   -17909460.172 9   1305184.34129       108.000
  23216137.652     7293297.660 7  -1615421.23226        54.000
  20609403.437    -3533594.075 9  -2041007.06729        96.000
  22941643.061    22470180.256 7   3317351.41726        48.000
  23510235.463    -4945380.834 7   -493566.89725        42.000
 96  6  6 15 29 30.0000000  0  6G 2G27G26G 7G19G15
  21192104.881    -4987693.745 9     41986.55129       106.000
  20590393.327   -17885546.492 9   1323818.37229       108.000
  23213615.498     7280047.257 7  -1625746.20926        54.000
  20606197.217    -3550430.389 9  -2054126.26429        98.000
  22950365.852    22516041.529 7   3353087.43926        48.000
  23510754.164    -4942657.561 6   -491444.89025        40.000
 96  6  6 15 29 45.0000000  0  6G 2G27G26G 7G19G15
  21192834.906    -4983842.006 9     44987.89829       106.000
  20594965.312   -17861504.752 9   1342552.18229       106.000
  23211116.458     7266928.731 7  -1635968.43126        56.000
  20603018.937    -3567144.765 9  -2067150.44729        96.000
  22959116.135    22561968.897 7   3388874.98626        52.000
  23511297.747    -4939788.296 7   -489209.13125        42.000
 96  6  6 15 30  0.0000000  0  6G 2G27G26G 7G19G15
  21193574.464    -4979955.119 9     48016.64629       106.000
  20599564.728   -17837337.202 9   1361384.02529       104.000
  23208646.169     7253933.969 7  -1646094.22626        56.000
  20599858.944    -3583742.759 9  -2080083.95029        96.000
  22967864.438    22607957.790 7   3424710.43626        52.000
  23511872.839    -4936777.625 7   -486863.10825        42.000
 96  6  6 15 30 15.0000000  0  6G 2G27G26G 7G19G15
  21194327.243    -4976013.027 9     51088.41029       104.000
  20604194.003   -17813020.039 9   1380332.45829       106.000
  23206199.472     7241080.995 7  -1656109.53626        54.000
  20596727.462    -3600206.558 9  -2092912.87729        96.000
  22976623.984    22654030.068 7   3460610.85826        52.000
  23512481.268    -4933605.605 7   -484391.42525        44.000
 96  6  6 15 30 30.0000000  0  6G 2G27G26G 7G19G15
  21195088.296    -4972005.161 9     54211.41029       104.000
  20608855.416   -17788542.928 9   1399405.51629       108.000
  23203781.316     7228379.386 7  -1666006.89526        56.000
  20593621.163    -3616529.799 9  -2105632.29529        96.000
  22985413.989    22700197.558 7   3496585.51726        52.000
  23513116.288    -4930262.206 7   -481786.16425        42.000
 96  6  6 15 30 45.0000000  0  6G 2G27G26G 7G19G15
  21195859.542    -4967953.184 9     57368.79029       106.000
  20613536.256   -17763931.792 9   1418583.02129       106.000
  23201394.069     7215804.404 7  -1675805.59726        54.000
  20590538.607    -3632740.957 9  -2118264.34829        96.000
  22994216.495    22746436.633 7   3532615.94326        52.000
  23513775.352    -4926772.625 7   -479066.97325        44.000
 96  6  6 15 31  0.0000000  0  6G 2G27G26G 7G19G15
  21196632.257    -4963880.795 9     60541.28429       104.000
  20618242.488   -17739212.306 9   1437844.15829       108.000
  23199016.295     7203330.950 7  -1685525.93226        58.000
  20587469.841    -3648861.957 9  -2130826.96029        94.000
  23003014.085    22792724.151 7   3568683.33526        50.000
  23514466.044    -4923159.861 7   -476252.62025        44.000
 96  6  6 15 31 15.0000000  0  6G 2G27G26G 7G19G15
  21197404.342    -4959842.856 9     63687.66929       106.000
  20622952.587   -17714440.702 9   1457146.64329       106.000
  23196653.151     7190903.815 7  -1695209.21626        54.000
  20584408.720    -3664943.781 9  -2143358.23929        94.000
  23011826.484    22839007.322 7   3604748.39125        54.000
  23515162.492    -4919479.242 7   -473384.60325        42.000
 96  6  6 15 31 30.0000000  0  6G 2G27G26G 7G19G15
  21198174.059    -4955764.267 9     66865.79429       106.000
  20627689.758   -17689545.813 9   1476545.23629       106.000
  23194316.629     7178604.887 7  -1704792.78226        56.000
  20581372.183    -3680904.445 9  -2155795.12929        96.000
  23020641.312    22885366.767 7   3640872.52425        50.000
  23515891.617    -4915650.410 6   -470401.10825        40.000
 96  6  6 15 31 45.0000000  0  6G 2G27G26G 7G19G15
  21198964.702    -4951642.543 9     70077.53029       108.000
  20632453.340   -17664523.646 9   1496043.02829       106.000
  23191995.576     7166441.359 7  -1714270.85026        54.000
  20578361.037    -3696739.363 9  -2168134.02029        94.000
  23029487.168    22931803.645 7   3677057.09625        52.000
  23516650.632    -4911669.982 6   -467299.46725        40.000
 96  6  6 15 32  0.0000000  0  6G 2G27G26G 7G19G15
  21199753.426    -4947477.799 9     73322.78129       106.000
  20637236.379   -17639376.257 9   1515638.39029       106.000
  23189705.281     7154408.035 7  -1723647.48426        56.000
  20575366.380    -3712451.990 9  -2180377.61929        94.000
  23038337.431    22978315.320 7   3713299.95226        52.000
  23517435.518    -4907540.601 7   -464081.68825        42.000
 96  6  6 15 32 15.0000000  0  6G 2G27G26G 7G19G15
  21200553.632    -4943273.021 9     76599.22229       108.000
  20642046.129   -17614107.173 9   1535328.56529       106.000
  23187442.807     7142505.763 7  -1732921.99826        54.000
  20572400.384    -3728041.111 9  -2192524.98329        94.000
  23047204.722    23024903.331 7   3749602.28626        52.000
  23518254.791    -4903262.445 7   -460748.08825        42.000
 96  6  6 15 32 30.0000000  0  6G 2G27G26G 7G19G15
  21201361.633    -4939025.604 9     79908.91029       108.000
  20646876.565   -17588716.537 9   1555113.48029       104.000
  23185201.439     7130740.911 7  -1742089.42226        56.000
  20569456.302    -3743503.560 9  -2204573.64129        92.000
  23056080.887    23071569.134 7   3785965.22125        54.000
  23519093.101    -4898833.330 7   -457296.84125        42.000
 96  6  6 15 32 45.0000000  0  6G 2G27G26G 7G19G15
  21202180.816    -4934732.941 9     83253.82629       104.000
  20651729.815   -17563209.596 9   1574989.01129       104.000
  23182988.401     7119116.945 7  -1751147.06026        52.000
  20566538.512    -3758839.864 9  -2216523.99429        92.000
  23064973.871    23118311.594 7   3822387.87825        54.000
  23519971.972    -4894254.082 6   -453728.58325        40.000
 96  6  6 15 33  0.0000000  0  6G 2G27G26G 7G19G15
  21203002.787    -4930399.480 9     86630.56929       106.000
  20656608.098   -17537590.147 9   1594952.19929       104.000
  23180806.362     7107633.267 7  -1760095.39326        56.000
  20563645.604    -3774048.059 9  -2228374.54929        90.000
  23073886.701    23165125.733 7   3858866.39925        56.000
  23520864.215    -4889526.963 7   -450045.12925        42.000
 96  6  6 15 33 15.0000000  0  6G 2G27G26G 7G19G15
  21203839.357    -4926025.427 9     90038.90529       108.000
  20661504.518   -17511857.094 9   1615003.89929       104.000
  23178647.166     7096293.602 7  -1768931.47726        52.000
  20560775.661    -3789124.925 9  -2240122.76229        92.000
  23082807.085    23212009.602 7   3895399.27825        52.000
  23521790.513    -4884651.142 7   -446245.77625        44.000
 96  6  6 15 33 30.0000000  0  6G 2G27G26G 7G19G15
  21204679.556    -4921587.795 9     93496.79229       106.000
  20666427.740   -17485984.402 9   1635164.43229       102.000
  23176524.336     7085122.464 7  -1777636.27526        56.000
  20557938.186    -3804050.861 9  -2251753.35129        92.000
  23091746.596    23258984.460 7   3932003.05325        52.000
  23522751.558    -4879604.261 7   -442313.18425        44.000
 96  6  6 15 33 45.0000000  0  6G 2G27G26G 7G19G15
  21205535.044    -4917100.381 9     96993.47729       106.000
  20671376.384   -17459986.015 9   1655422.90729       104.000
  23174424.170     7074100.675 7  -1786224.69526        54.000
  20555123.404    -3818846.774 9  -2263282.63229        94.000
  23100700.318    23306030.453 7   3968662.23925        52.000
  23523742.012    -4874404.037 7   -438261.03825        44.000
 96  6  6 15 34  0.0000000  0  6G 2G27G26G 7G19G15
  21206397.397    -4912569.747 9    100523.83929       106.000
  20676345.804   -17433866.693 9   1675775.61429       102.000
  23172356.651     7063215.968 7  -1794706.29726        54.000
  20552328.499    -3833524.012 9  -2274719.44429        94.000
  23109668.489    23353137.683 7   4005369.15925        52.000
  23524755.131    -4869059.733 7   -434096.61725        42.000
 96  6  6 15 34 15.0000000  0  6G 2G27G26G 7G19G15
  21207269.133    -4907991.797 9    104091.06129       106.000
  20681338.697   -17407622.438 9   1696225.67529       102.000
  23170311.287     7052472.383 7  -1803077.92926        56.000
  20549557.308    -3848076.650 9  -2286059.14629        92.000
  23118635.702    23400309.804 7   4042126.56825        50.000
  23525805.574    -4863566.659 7   -429816.28725        44.000
 96  6  6 15 34 30.0000000  0  6G 2G27G26G 7G19G15
  21208147.015    -4903369.222 9    107693.06829       106.000
  20686359.801   -17381253.968 9   1716772.52929       104.000
  23168292.455     7041870.590 7  -1811339.05026        56.000
  20546812.378    -3862509.255 9  -2297305.32829        94.000
  23127630.525    23447541.423 7   4078930.41725        50.000
  23526877.062    -4857926.774 7   -425421.55225        44.000
 96  6  6 15 34 45.0000000  0  6G 2G27G26G 7G19G15
  21209035.480    -4898700.517 9    111331.01729       104.000
  20691396.075   -17354758.745 9   1737418.14229       102.000
  23166301.593     7031407.802 7  -1819491.87726        54.000
  20544091.521    -3876825.100 9  -2308460.54029        92.000
  23136624.808    23494829.519 7   4115778.27625        50.000
  23527977.090    -4852140.633 7   -420912.85525        42.000
 96  6  6 15 35  0.0000000  0  6G 2G27G26G 7G19G15
  21209931.980    -4893989.540 9    115001.91629       106.000
  20696466.764   -17328136.058 9   1758163.08229       102.000
  23164338.822     7021082.471 7  -1827537.60026        54.000
  20541385.924    -3891024.433 9  -2319524.94029        94.000
  23145636.809    23542172.203 7   4152668.65425        50.000
  23529105.209    -4846208.829 7   -416290.71625        42.000
 96  6  6 15 35 15.0000000  0  6G 2G27G26G 7G19G15
  21210841.340    -4889234.543 9    118707.09529       108.000
  20701558.769   -17301379.721 9   1779012.17129       102.000
  23162402.702     7010894.611 7  -1835476.19026        54.000
  20538708.448    -3905103.190 9  -2330495.40129        94.000
  23154658.553    23589571.551 7   4189603.19325        46.000
  23530262.528    -4840129.166 6   -411553.32125        40.000
 96  6  6 15 35 30.0000000  0  6G 2G27G26G 7G19G15
  21211751.180    -4884438.406 9    122444.34329       108.000
  20706673.228   -17274491.322 9   1799964.16129       100.000
  23160483.191     7000837.632 7  -1843312.81526        54.000
  20536051.897    -3919067.069 9  -2341376.35529        94.000
  23163691.120    23637026.862 7   4226581.33025        48.000
  23531443.591    -4833905.073 7   -406703.39925        42.000
 96  6  6 15 35 45.0000000  0  6G 2G27G26G 7G19G15
  21212679.488    -4879560.790 9    126245.06329       106.000
  20711821.834   -17247428.817 9   1821051.80929       100.000
  23158605.921     6990950.884 7  -1851016.77226        56.000
  20533424.876    -3932872.154 9  -2352133.55429        94.000
  23172736.488    23684583.059 7   4263638.06025        48.000
  23532669.442    -4827494.240 7   -401707.90425        44.000
 96  6  6 15 36  0.0000000  0  6G 2G27G26G 7G19G15
  21213627.971    -4874575.740 9    130129.53529       108.000
  20717014.509   -17220165.816 9   1842295.70929       100.000
  23156757.610     6981263.722 7  -1858565.20926        54.000
  20530832.151    -3946485.640 9  -2362741.45429        94.000
  23181814.893    23732270.458 7   4300797.03325        48.000
  23533929.680    -4820867.631 7   -396544.32725        46.000
 96  6  6 15 36 15.0000000  0  6G 2G27G26G 7G19G15
  21214570.099    -4869623.236 9    133988.62329       108.000
  20722209.193   -17192843.776 9   1863585.60729       102.000
  23154935.412     6971638.101 7  -1866065.67326        54.000
  20528251.387    -3960043.290 9  -2373305.86729        96.000
  23190887.513    23779953.006 7   4337952.25025        48.000
  23535202.688    -4814162.531 7   -391319.54325        44.000
 96  6  6 15 36 30.0000000  0  6G 2G27G26G 7G19G15
  21215535.131    -4864608.959 9    137895.84529       108.000
  20727443.719   -17165371.724 9   1884992.36829       102.000
  23153123.166     6962167.213 7  -1873445.59826        52.000
  20525701.113    -3973453.187 9  -2383755.13229        96.000
  23199972.963    23827725.596 7   4375177.62525        46.000
  23536514.700    -4807285.457 7   -385960.81825        44.000
 96  6  6 15 36 45.0000000  0  6G 2G27G26G 7G19G15
  21216498.604    -4859460.317 9    141907.78229       104.000
  20732709.124   -17137678.756 9   1906571.31129       102.000
  23151362.995     6952918.312 7  -1880652.54126        54.000
  20523189.392    -3986646.591 9  -2394036.47529        96.000
  23209096.187    23875662.233 7   4412530.04225        48.000
  23537873.269    -4800166.361 7   -380414.23825        46.000
 96  6  6 15 37  0.0000000  0  6G 2G27G26G 7G19G15
  21217454.852    -4854454.247 9    145808.60429       106.000
  20737965.805   -17110044.577 9   1928104.41529        98.000
  23149600.185     6943615.178 7  -1887901.75526        54.000
  20520670.056    -3999897.956 9  -2404362.22229        94.000
  23218197.496    23923487.016 7   4449796.09125        44.000
  23539213.851    -4793083.839 7   -374895.42225        44.000
 96  6  6 15 37 15.0000000  0  6G 2G27G26G 7G19G15
  21218415.896    -4849412.656 9    149737.10829       106.000
  20743247.638   -17082289.426 9   1949731.79629       100.000
  23147849.607     6934438.586 7  -1895052.36326        54.000
  20518170.146    -4013022.630 9  -2414589.23329        94.000
  23227315.714    23971383.306 7   4487117.82525        46.000
  23540589.749    -4785856.733 7   -369263.88525        46.000
 96  6  6 15 37 30.0000000  0  6G 2G27G26G 7G19G15
  21219382.367    -4844334.932 9    153693.78929       106.000
  20748551.627   -17054414.323 9   1971452.65329        98.000
  23146129.758     6925385.223 7  -1902106.92726        56.000
  20515695.869    -4026022.420 9  -2424718.93829        94.000
  23236441.756    24019351.155 7   4524495.34625        46.000
  23541995.506    -4778485.730 7   -363520.25225        46.000
 96  6  6 15 37 45.0000000  0  6G 2G27G26G 7G19G15
  21220354.174    -4839206.041 9    157690.30629       106.000
  20753882.326   -17026405.992 9   1993277.30029        98.000
  23144431.763     6916471.793 7  -1909052.42826        56.000
  20513251.332    -4038882.281 9  -2434739.61629        94.000
  23245585.276    24067405.823 7   4561940.51925        48.000
  23543434.989    -4770954.645 7   -357651.83625        44.000
 96  6  6 15 38  0.0000000  0  6G 2G27G26G 7G19G15
  21221341.871    -4834019.590 9    161731.69329       106.000
  20759238.238   -16998261.948 9   2015207.72229        98.000
  23142761.859     6907702.602 7  -1915885.57226        56.000
  20510829.938    -4051598.632 9  -2444648.45729        96.000
  23254738.270    24115548.697 7   4599454.45725        44.000
  23544888.293    -4763259.740 7   -351655.82125        44.000
 96  6  6 15 38 15.0000000  0  6G 2G27G26G 7G19G15
  21222342.008    -4828774.073 9    165819.11029       106.000
  20764619.573   -16969983.812 9   2037242.61929        98.000
  23141120.406     6899075.898 7  -1922607.70026        56.000
  20508435.526    -4064177.019 9  -2454449.79929        94.000
  23263930.116    24163776.182 7   4637034.27225        48.000
  23546389.534    -4755402.939 7   -345533.65225        44.000
 96  6  6 15 38 30.0000000  0  6G 2G27G26G 7G19G15
  21223351.889    -4823472.886 9    169949.89829       108.000
  20770023.632   -16941575.904 9   2059378.63429        96.000
  23139503.055     6890584.102 7  -1929224.70026        56.000
  20506064.917    -4076625.991 9  -2464150.30329        94.000
  23273116.627    24212080.595 7   4674674.05125        48.000
  23547915.867    -4747390.398 7   -339290.12325        46.000
 96  6  6 15 38 45.0000000  0  6G 2G27G26G 7G19G15
  21224369.625    -4818114.255 9    174125.44629       106.000
  20775455.302   -16913032.468 9   2081620.27329        96.000
  23137907.440     6882232.422 7  -1935732.50726        52.000
  20503722.278    -4088941.655 9  -2473746.91129        96.000
  23282324.662    24260461.614 7   4712373.50025        46.000
  23549467.713    -4739219.928 7   -332923.54125        46.000
 96  6  6 15 39  0.0000000  0  6G 2G27G26G 7G19G15
  21225399.142    -4812702.858 9    178342.11229       108.000
  20780914.312   -16884356.368 9   2103965.26329        98.000
  23136351.037     6874020.648 7  -1942131.28226        56.000
  20501402.155    -4101124.028 9  -2483239.67329        94.000
  23291543.970    24308913.449 7   4750128.12225        46.000
  23551052.176    -4730894.207 7   -326435.94625        44.000
 96  6  6 15 39 15.0000000  0  6G 2G27G26G 7G19G15
  21226439.362    -4807240.569 9    182598.43729       108.000
  20786396.257   -16855549.881 9   2126411.85729        96.000
  23134813.552     6865948.182 7  -1948421.50826        54.000
  20499112.760    -4113174.031 9  -2492629.28029        94.000
  23300776.048    24357432.200 7   4787934.91925        46.000
  23552665.689    -4722413.918 7   -319827.91025        48.000
 96  6  6 15 39 30.0000000  0  6G 2G27G26G 7G19G15
  21227494.511    -4801723.602 9    186897.37029       110.000
  20791900.956   -16826608.700 9   2148963.43929        96.000
  23133303.018     6858018.363 7  -1954600.57926        52.000
  20496845.279    -4125093.924 9  -2501917.51129        96.000
  23310020.029    24406019.797 7   4825795.36425        46.000
  23554311.160    -4713776.276 7   -313097.28525        46.000
 96  6  6 15 39 45.0000000  0  6G 2G27G26G 7G19G15
  21228551.669    -4796148.561 9    191241.56329       106.000
  20797437.014   -16797531.479 9   2171621.00429        98.000
  23131826.390     6850236.438 7  -1960664.45026        56.000
  20494600.373    -4136882.664 9  -2511103.52629        94.000
  23319278.789    24454677.862 7   4863710.70625        46.000
  23555986.760    -4704978.572 7   -306241.93125        48.000
 96  6  6 15 40  0.0000000  0  6G 2G27G26G 7G19G15
  21229621.959    -4790513.360 9    195632.63329       108.000
  20802993.637   -16768314.073 9   2194387.78729        96.000
  23130371.467     6842608.716 7  -1966608.12926        54.000
  20492384.727    -4148536.689 9  -2520184.58729        94.000
  23328552.599    24503409.668 7   4901683.54025        46.000
  23557687.542    -4696017.161 7   -299258.99625        46.000
 96  6  6 15 40 15.0000000  0  6G 2G27G26G 7G19G15
  21230733.229    -4784692.114 9    200168.65529       108.000
  20808605.452   -16738828.125 9   2217363.84429        98.000
  23128976.683     6835264.787 7  -1972330.68426        56.000
  20490214.769    -4159929.875 9  -2529062.40529        94.000
  23337870.748    24552343.881 7   4939814.05725        46.000
  23559445.915    -4686765.265 7   -292049.74925        48.000
 96  6  6 15 40 30.0000000  0  6G 2G27G26G 7G19G15
  21231841.142    -4778857.500 9    204715.09429       108.000
  20814232.347   -16709244.674 9   2240415.08429        94.000
  23127598.117     6828035.905 7  -1977963.56926        54.000
  20488065.707    -4171232.756 9  -2537869.83929        94.000
  23347186.979    24601310.376 7   4977968.92025        44.000
  23561226.712    -4677393.213 7   -284747.66825        46.000
 96  6  6 15 40 45.0000000  0  6G 2G27G26G 7G19G15
  21232963.835    -4772973.943 9    209300.03229       110.000
  20819890.480   -16679526.422 9   2263572.16029        96.000
  23126256.186     6820965.613 7  -1983472.89026        56.000
  20485938.410    -4182402.453 9  -2546573.50529        94.000
  23356514.392    24650346.342 7   5016178.73825        46.000
  23563047.202    -4667862.365 7   -277321.00325        46.000
 96  6  6 15 41  0.0000000  0  6G 2G27G26G 7G19G15
  21234110.451    -4766948.428 9    213995.16929       110.000
  20825589.384   -16649583.231 9   2286904.52629        98.000
  23124957.725     6814146.751 7  -1988786.25626        52.000
  20483853.953    -4193346.824 9  -2555101.55629        94.000
  23365885.184    24699545.188 7   5054515.50825        46.000
  23564909.962    -4658080.479 7   -269698.75725        48.000
 96  6  6 15 41 15.0000000  0  6G 2G27G26G 7G19G15
  21235257.697    -4760922.228 9    218690.90729       108.000
  20831300.311   -16619558.880 9   2310300.09229        98.000
  23123681.269     6807435.951 7  -1994015.48326        54.000
  20481789.312    -4204207.622 9  -2563564.52729        96.000
  23375236.401    24748767.744 7   5092870.69625        44.000
  23566790.800    -4648189.198 7   -261991.26925        48.000
 96  6  6 15 41 30.0000000  0  6G 2G27G26G 7G19G15
  21236408.091    -4754862.772 9    223412.55529       108.000
  20837040.827   -16589417.135 9   2333787.15929        98.000
  23122430.385     6800867.460 7  -1999133.81426        56.000
  20479746.377    -4214950.092 9  -2571935.29429        94.000
  23384627.969    24798050.223 7   5131272.59425        44.000
  23568696.731    -4638153.040 7   -254170.87725        48.000
 96  6  6 15 41 45.0000000  0  5G27G26G 7G19G15
  20842808.804   -16559092.039 9   2357416.27529       100.000
  23121218.084     6794505.791 7  -2004091.74526        52.000
  20477735.729    -4225505.984 9  -2580161.46929        94.000
  23394016.329    24847457.525 7   5169770.99225        42.000
  23570655.095    -4627907.133 7   -246187.86625        48.000
 96  6  6 15 42  0.0000000  0  6G 2G27G26G 7G19G15
  21238731.272    -4742658.220 9    232922.07529       108.000
  20848577.440   -16528790.115 9   2381028.18029       100.000
  23120013.098     6788142.942 7  -2009049.79426        56.000
  20475725.830    -4236077.219 9  -2588398.76929        94.000
  23403411.345    24896782.141 7   5208205.68725        42.000
  23572608.363    -4617657.018 7   -238200.78925        48.000
 96  6  6 15 42 15.0000000  0  6G 2G27G26G 7G19G15
  21239885.533    -4736586.059 9    237653.62229       108.000
  20854361.576   -16498381.207 9   2404723.42429       102.000
  23118823.132     6781907.827 7  -2013908.32126        52.000
  20473734.309    -4246534.332 9  -2596547.16029        94.000
  23412806.931    24946154.905 7   5246677.94025        44.000
  23574576.230    -4607271.884 7   -230108.45425        46.000
 96  6  6 15 42 30.0000000  0  6G 2G27G26G 7G19G15
  21241042.432    -4730503.488 9    242393.30329       108.000
  20860166.397   -16467881.979 9   2428489.04629       100.000
  23117654.871     6775782.736 7  -2018681.10326        54.000
  20471760.385    -4256893.212 9  -2604619.01029        96.000
  23422206.684    24995558.977 7   5285174.61025        42.000
  23576572.998    -4596767.563 7   -221923.27225        46.000
 96  6  6 15 42 45.0000000  0  6G 2G27G26G 7G19G15
  21242208.475    -4724374.614 9    247169.04429       108.000
  20865994.303   -16437254.922 9   2452354.27729        98.000
  23116512.871     6769801.671 7  -2023341.69726        52.000
  20469817.880    -4267117.996 9  -2612586.38829        96.000
  23431621.276    25045028.457 6   5323722.22225        40.000
  23578604.152    -4586107.271 7   -213616.53925        48.000
 96  6  6 15 43  0.0000000  0  6G 2G27G26G 7G19G15
  21243381.773    -4718221.347 9    251963.78629       106.000
  20871842.594   -16406522.626 9   2476301.50729       100.000
  23115412.183     6763938.936 7  -2027910.10126        56.000
  20467891.623    -4277234.020 9  -2620469.01129        96.000
  23441045.762    25094540.983 6   5362303.39125        38.000
  23580656.711    -4575314.498 7   -205206.59425        48.000
 96  6  6 15 43 15.0000000  0  6G 2G27G26G 7G19G15
  21244561.576    -4712015.799 9    256799.27329       110.000
  20877712.680   -16375657.474 9   2500352.27329        98.000
  23114316.352     6758217.020 7  -2032368.72626        56.000
  20465993.787    -4287216.799 9  -2628247.78229        96.000
  23450477.592    25144124.386 6   5400939.75725        40.000
  23582738.020    -4564362.122 7   -196672.30025        48.000
 96  6  6 15 43 30.0000000  0  6G 2G27G26G 7G19G15
  21245734.514    -4705847.406 9    261605.80229       108.000
  20883600.394   -16344745.229 9   2524439.70329       100.000
  23113233.861     6752548.723 7  -2036785.60026        54.000
  20464100.478    -4297153.632 9  -2635990.79329        96.000
  23459912.541    25193691.479 6   5439563.39725        38.000
  23584835.608    -4553336.215 7   -188080.66925        46.000
 96  6  6 15 43 45.0000000  0  6G 2G27G26G 7G19G15
  21246911.559    -4699659.867 9    266427.27029       110.000
  20889500.640   -16313729.427 9   2548607.86629        98.000
  23112180.720     6746990.531 7  -2041116.63726        56.000
  20462231.482    -4306991.332 9  -2643656.49529        96.000
  23469349.108    25243296.954 6   5478216.99225        38.000
  23586963.415    -4542181.047 7   -179388.33825        48.000
 96  6  6 15 44  0.0000000  0  6G 2G27G26G 7G19G15
  21248100.986    -4693427.975 9    271283.29929       110.000
  20895423.999   -16282591.746 9   2572870.99929        98.000
  23111144.398     6741562.306 7  -2045346.41026        54.000
  20460379.964    -4316712.532 9  -2651231.45629        98.000
  23478804.922    25292960.823 6   5516916.09425        36.000
  23589115.175    -4530876.403 7   -170579.53225        48.000
 96  6  6 15 44 15.0000000  0  6G 2G27G26G 7G19G15
  21249295.749    -4687144.125 9    276179.79729       108.000
  20901374.699   -16251324.269 9   2597235.24029       100.000
  23110141.322     6736271.853 7  -2049468.87026        54.000
  20458550.960    -4326315.420 9  -2658714.23829        96.000
  23488262.774    25342691.019 6   5555666.86425        36.000
  23591296.885    -4519414.326 7   -161648.03425        48.000
 96  6  6 15 44 30.0000000  0  6G 2G27G26G 7G19G15
  21250497.437    -4680813.980 9    281112.37229       110.000
  20907349.833   -16219932.068 9   2621696.68129       100.000
  23109162.770     6731112.887 7  -2053488.85326        58.000
  20456748.158    -4335806.166 9  -2666109.61029        98.000
  23497742.931    25392483.107 6   5594465.86125        38.000
  23593505.366    -4507801.166 7   -152598.81925        46.000
 96  6  6 15 44 45.0000000  0  6G 2G27G26G 7G19G15
  21251709.887    -4674439.239 9    286079.69329       110.000
  20913348.560   -16188415.509 9   2646255.02429       100.000
  23108200.795     6726084.155 7  -2057407.36126        54.000
  20454962.084    -4345182.665 9  -2673415.99029        98.000
  23507215.863    25442335.673 6   5633311.96725        34.000
  23595738.280    -4496037.569 7   -143432.35925        46.000
 96  6  6 15 45  0.0000000  0  6G 2G27G26G 7G19G15
  21252934.600    -4668024.437 9    291078.23629       110.000
  20919362.996   -16156777.768 9   2670907.80029        98.000
  23107267.152     6721182.334 7  -2061226.95726        56.000
  20453198.226    -4354445.913 9  -2680634.08529        96.000
  23516728.308    25492247.304 6   5672204.09725        38.000
  23598012.836    -4484126.178 7   -134150.78525        48.000
 96  6  6 15 45 15.0000000  0  6G 2G27G26G 7G19G15
  21254158.982    -4661574.215 9    296104.37329       106.000
  20925410.620   -16125024.847 9   2695650.32029        98.000
  23106360.729     6716402.238 7  -2064951.70526        56.000
  20451457.421    -4363596.581 9  -2687764.48329        96.000
  23526228.521    25542214.611 6   5711139.61925        36.000
  23600301.511    -4472071.712 7   -124757.70725        48.000
 96  6  6 15 45 30.0000000  0  6G 2G27G26G 7G19G15
  21255397.035    -4655086.162 9    301159.98329       108.000
  20931473.862   -16093153.834 9   2720484.86629        98.000
  23105473.973     6711748.360 7  -2068578.11526        56.000
  20449739.250    -4372631.393 9  -2694804.59029        98.000
  23535749.989    25592238.796 6   5750119.47825        36.000
  23602624.753    -4459871.482 7   -115251.04225        46.000
 96  6  6 15 45 45.0000000  0  6G 2G27G26G 7G19G15
  21256637.396    -4648550.760 9    306252.52629       106.000
  20937563.486   -16061157.338 9   2745417.19829        98.000
  23104616.327     6707229.336 7  -2072099.44526        58.000
  20448041.765    -4381544.590 9  -2701749.93529        98.000
  23545283.030    25642325.246 6   5789147.86925        36.000
  23604971.438    -4447519.709 7   -105626.27725        48.000
 96  6  6 15 46  0.0000000  0  6G 2G27G26G 7G19G15
  21257893.826    -4641966.469 9    311383.13529       106.000
  20943673.676   -16029036.028 9   2770446.77729        98.000
  23103779.216     6702842.512 7  -2075517.78126        56.000
  20446368.713    -4390337.271 9  -2708601.36629        96.000
  23554825.394    25692472.936 6   5828224.00625        36.000
  23607356.707    -4435018.126 7    -95884.79725        46.000
 96  6  6 15 46 15.0000000  0  6G 2G27G26G 7G19G15
  21259153.944    -4635343.042 9    316544.23429       106.000
  20949811.927   -15996795.912 9   2795568.93229        98.000
  23102965.610     6698580.127 7  -2078839.09626        58.000
  20444719.495    -4399014.123 9  -2715362.55129        96.000
  23564376.422    25742675.605 6   5867342.87025        38.000
  23609756.306    -4422373.635 7    -86031.93725        46.000
 96  6  6 15 46 30.0000000  0  6G 2G27G26G 7G19G15
  21260420.057    -4628678.678 9    321737.24429       104.000
  20955967.266   -15964431.274 9   2820788.12629        98.000
  23102176.946     6694447.777 7  -2082059.12926        56.000
  20443092.761    -4407566.190 9  -2722026.50229        98.000
  23573944.148    25792939.624 6   5906509.60025        38.000
  23612193.319    -4409582.086 7    -76064.52325        46.000
 96  6  6 15 46 45.0000000  0  6G 2G27G26G 7G19G15
  21261695.824    -4621973.433 9    326962.09829       104.000
  20962151.804   -15931943.025 9   2846103.62429        98.000
  23101415.443     6690446.733 7  -2085176.81226        58.000
  20441489.172    -4415990.291 9  -2728590.73429        98.000
  23583518.740    25843264.193 6   5945723.56125        36.000
  23614658.122    -4396643.642 7    -65982.59925        46.000
 96  6  6 15 47  0.0000000  0  6G 2G27G26G 7G19G15
  21262982.204    -4615227.972 9    332218.29429       106.000
  20968356.069   -15899332.728 9   2871514.23929        98.000
  23100680.981     6686577.427 7  -2088191.86026        58.000
  20439908.396    -4424289.414 9  -2735057.58529        98.000
  23593108.501    25893646.635 6   5984982.52725        38.000
  23617151.826    -4383560.108 7    -55787.68525        48.000
 96  6  6 15 47 15.0000000  0  6G 2G27G26G 7G19G15
  21264271.881    -4608442.316 9    337505.81229       106.000
  20974584.138   -15866601.431 9   2897019.13229        98.000
  23099973.231     6682840.946 7  -2091103.42226        56.000
  20438351.394    -4432466.720 9  -2741429.50229        98.000
  23602705.247    25944085.813 6   6024285.79325        40.000
  23619660.160    -4370332.839 7    -45480.69925        46.000
 96  6  6 15 47 30.0000000  0  6G 2G27G26G 7G19G15
  21265573.070    -4601610.241 9    342829.51429       106.000
  20980834.660   -15833745.981 9   2922620.77529        98.000
  23099290.064     6679243.079 7  -2093906.99426        58.000
  20436818.795    -4440522.024 9  -2747706.37329        96.000
  23612313.026    25994583.852 6   6063634.87825        40.000
  23622208.395    -4356959.590 7    -35060.01525        46.000
 96  6  6 15 47 45.0000000  0  6G 2G27G26G 7G19G15
  21266877.407    -4594732.009 9    348189.18129       104.000
  20987113.364   -15800766.083 9   2948319.39629        98.000
  23098627.673     6675785.231 7  -2096601.40126        56.000
  20435314.076    -4448456.101 9  -2753888.75729        98.000
  23621937.143    26045140.096 6   6103029.31525        38.000
  23624779.895    -4343440.996 7    -24525.99225        44.000
 96  6  6 15 48  0.0000000  0  6G 2G27G26G 7G19G15
  21268196.614    -4587808.542 9    353584.06029       106.000
  20993412.573   -15767660.481 9   2974115.94129        98.000
  23097997.809     6672468.078 7  -2099186.20826        60.000
  20433823.388    -4456264.684 9  -2759973.37129        98.000
  23631563.509    26095756.721 6   6142470.81825        40.000
  23627383.083    -4329775.632 7    -13877.69025        44.000
 96  6  6 15 48 15.0000000  0  6G 2G27G26G 7G19G15
  21269522.116    -4580842.775 9    359011.94129       104.000
  20999737.924   -15734433.068 9   3000007.43029       100.000
  23097394.776     6669293.360 7  -2101659.99826        54.000
  20432361.480    -4463945.478 9  -2765958.40729        98.000
  23641218.205    26146434.368 7   6181959.83625        44.000
  23630007.226    -4315963.796 7     -3115.21425        42.000
 96  6  6 15 48 30.0000000  0  6G 2G27G26G 7G19G15
  21270855.803    -4573839.430 9    364469.07329       106.000
  21006081.442   -15701089.103 9   3025989.71528       100.000
  23096814.648     6666259.772 7  -2104023.84326        60.000
  20430925.265    -4471500.892 9  -2771845.73829        98.000
  23650863.608    26197167.230 6   6221491.94125        40.000
  23632664.257    -4302009.001 7      7758.64125        42.000
 96  6  6 15 48 45.0000000  0  6G 2G27G26G 7G19G15
  21272194.436    -4566790.705 9    369961.57629       104.000
  21012447.865   -15667625.955 9   3052064.88328        98.000
  23096260.901     6663373.094 7  -2106273.21126        56.000
  20429510.544    -4478927.362 9  -2777632.59029        98.000
  23660534.493    26247959.493 7   6261070.32525        42.000
  23635349.138    -4287905.961 7     18748.02825        42.000
 96  6  6 15 49  0.0000000  0  6G 2G27G26G 7G19G15
  21273546.980    -4559697.801 9    375488.53729       106.000
  21018835.393   -15634047.686 9   3078229.77428        96.000
  23095744.779     6660628.582 7  -2108411.80626        58.000
  20428124.664    -4486228.410 9  -2783321.71429        98.000
  23670211.883    26298806.743 7   6300691.50324        42.000
  23638064.419    -4273658.035 7     29850.28325        42.000
 96  6  6 15 49 15.0000000  0  6G 2G27G26G 7G19G15
  21274903.930    -4552561.648 9    381049.16129       106.000
  21025249.722   -15600354.744 9   3104483.99828        96.000
  23095243.765     6658026.153 7  -2110439.68826        58.000
  20426752.993    -4493403.556 9  -2788912.74029        96.000
  23679886.186    26349710.257 6   6340356.59124        38.000
  23640802.063    -4259264.850 7     41065.73625        46.000
 96  6  6 15 49 30.0000000  0  6G 2G27G26G 7G19G15
  21276270.025    -4545385.330 9    386641.08429       104.000
  21031684.438   -15566549.004 9   3130826.11528        96.000
  23094783.194     6655562.709 7  -2112359.26126        58.000
  20425415.649    -4500453.949 9  -2794406.53929        96.000
  23689586.391    26400669.212 6   6380064.76824        38.000
  23643557.875    -4244727.541 7     52393.53825        44.000
 96  6  6 15 49 45.0000000  0  6G 2G27G26G 7G19G15
  21277642.655    -4538169.715 9    392263.63429       108.000
  21038137.620   -15532630.262 9   3157256.28928        96.000
  23094339.082     6653239.274 7  -2114169.71126        56.000
  20424098.901    -4507377.594 9  -2799801.58829        98.000
  23699298.437    26451684.853 6   6419817.20224        38.000
  23646359.526    -4230044.108 7     63835.15425        42.000
 96  6  6 15 50  0.0000000  0  7G 2G27G26G 7G 4G19G15
  21279020.531    -4530921.758 9    397911.40829       108.000
  21044617.215   -15498601.916 9   3183771.88528        98.000
  23093922.460     6651049.228 7  -2115876.23326        58.000
  20422804.067    -4514176.690 9  -2805099.57329        96.000
  24741330.643   -20394623.619 5  -1509627.51823        20.000
  23709018.248    26502753.239 6   6459610.75124        36.000
  23649173.468    -4215217.321 7     75388.48025        42.000
 96  6  6 15 50 15.0000000  0  7G 2G27G26G 7G 4G19G15
  21280408.750    -4523641.140 9    403584.58129       108.000
  21051109.340   -15464466.048 9   3210371.23228        96.000
  23093530.482     6648989.704 7  -2117481.10426        56.000
  20421533.307    -4520854.169 9  -2810302.82129        96.000
  24732059.142   -20443432.568 5  -1547660.46422        18.000
  23718745.464    26553872.827 6   6499444.18624        34.000
  23652026.353    -4200248.196 7     87052.73125        44.000
 96  6  6 15 50 30.0000000  0  7G 2G27G26G 7G 4G19G15
  21281801.166    -4516324.626 9    409285.77329       108.000
  21057628.177   -15430221.149 9   3237055.55328        96.000
  23093162.726     6647062.535 7  -2118982.81726        58.000
  20420289.258    -4527409.316 9  -2815410.71429        96.000
  24722771.302   -20492259.992 5  -1585707.82822        18.000
  23728490.338    26605044.267 6   6539317.99724        34.000
  23654902.112    -4185134.364 7     98829.71825        42.000
 96  6  6 15 50 45.0000000  0  7G 2G27G26G 7G 4G19G15
  21283198.139    -4508970.883 9    415015.96129       108.000
  21064162.094   -15395863.482 9   3263827.76728        96.000
  23092817.515     6645263.817 7  -2120384.40726        58.000
  20419059.179    -4533844.905 9  -2820425.46529        96.000
  24713473.928   -20541106.416 5  -1623770.01422        20.000
  23738218.873    26656267.776 6   6579232.38424        32.000
  23657807.251    -4169874.832 7    110720.25225        42.000
 96  6  6 15 51  0.0000000  0  7G 2G27G26G 7G 4G19G15
  21284605.154    -4501580.416 9    420774.76029       108.000
  21070724.911   -15361394.126 9   3290686.99328        98.000
  23092504.981     6643587.730 7  -2121690.43626        60.000
  20417860.939    -4540164.090 9  -2825349.49729        96.000
  24704185.818   -20589972.847 5  -1661847.73622        16.000
  23747995.255    26707541.380 6   6619185.78124        32.000
  23660738.142    -4154472.993 7    122721.71225        44.000
 96  6  6 15 51 15.0000000  0  7G 2G27G26G 7G 4G19G15
  21286019.216    -4494151.861 9    426563.24029       110.000
  21077307.094   -15326809.611 9   3317635.95628        98.000
  23092210.196     6642037.236 7  -2122898.61826        58.000
  20416677.838    -4546364.322 9  -2830180.84829        98.000
  24694865.780   -20638857.731 5  -1699939.79422        20.000
  23757744.116    26758864.785 6   6659177.98225        30.000
  23663692.477    -4138926.510 6    134835.81825        40.000
 96  6  6 15 51 30.0000000  0  7G 2G27G26G 7G 4G19G15
  21287441.071    -4486682.420 9    432383.57129       106.000
  21083907.085   -15292104.749 9   3344678.67428        96.000
  23091932.888     6640615.875 7  -2124006.18026        58.000
  20415520.309    -4552445.742 9  -2834919.63229        98.000
  24685565.828   -20687758.278 6  -1738044.12122        22.000
  23767533.359    26810240.379 6   6699210.88725        30.000
  23666679.429    -4123232.344 6    147065.04625        40.000
 96  6  6 15 51 45.0000000  0  7G 2G27G26G 7G 4G19G15
  21288870.961    -4479174.645 9    438233.78429       106.000
  21090535.616   -15257282.330 9   3371813.01928        96.000
  23091687.867     6639319.957 7  -2125015.99726        60.000
  20414382.657    -4558413.931 9  -2839570.16329        98.000
  24676260.390   -20736680.773 6  -1776165.51822        22.000
  23777312.259    26861662.269 6   6739279.86925        30.000
  23669696.750    -4107396.013 7    159405.03825        42.000
 96  6  6 15 52  0.0000000  0  7G 2G27G26G 7G 4G19G15
  21290305.978    -4471627.954 9    444114.30929       108.000
  21097181.805   -15222342.082 9   3399039.17528        96.000
  23091469.618     6638147.972 7  -2125929.26526        58.000
  20413272.675    -4564268.649 9  -2844132.27129        98.000
  24666964.995   -20785628.028 6  -1814306.27622        26.000
  23787108.787    26913127.824 6   6779382.83225        28.000
  23672732.328    -4091418.538 6    171855.01525        40.000
 96  6  6 15 52 15.0000000  0  7G 2G27G26G 7G 4G19G15
  21291750.528    -4464033.998 9    450031.67829       108.000
  21103856.984   -15187278.241 9   3426361.63728        96.000
  23091265.639     6637104.047 7  -2126742.70726        60.000
  20412180.711    -4570005.181 9  -2848602.28729        98.000
  24657640.521   -20834597.437 6  -1852464.24822        28.000
  23796910.831    26964643.002 6   6819524.49725        30.000
  23675807.540    -4075295.570 7    184418.34025        42.000
 96  6  6 15 52 30.0000000  0  7G 2G27G26G 7G 4G19G15
  21293207.819    -4456388.256 9    455989.41929       108.000
  21110551.799   -15152090.726 9   3453780.47928        98.000
  23091095.927     6636195.477 7  -2127450.69326        60.000
  20411108.444    -4575623.645 9  -2852980.30729        96.000
  24648307.892   -20883583.283 6  -1890634.96422        28.000
  23806730.024    27016210.144 6   6859706.62325        30.000
  23678900.888    -4059024.893 6    197096.79625        40.000
 96  6  6 15 52 45.0000000  0  7G 2G27G26G 7G 4G19G15
  21294669.517    -4448698.284 9    461981.57329       110.000
  21117268.589   -15116785.124 9   3481291.31228        96.000
  23090946.690     6635414.989 7  -2128058.86026        58.000
  20410063.967    -4581129.461 9  -2857270.57129        96.000
  24638978.980   -20932590.174 6  -1928822.15423        30.000
  23816545.589    27067824.147 6   6899925.27325        30.000
  23682026.134    -4042613.000 7    209885.24925        42.000
 96  6  6 15 53  0.0000000  0  7G 2G27G26G 7G 4G19G15
  21296141.948    -4440960.423 9    468011.08229       108.000
  21124013.320   -15081358.883 9   3508896.15928        96.000
  23090826.593     6634766.557 7  -2128564.10726        58.000
  20409037.657    -4586518.723 9  -2861469.98929        98.000
  24629655.195   -20981614.316 6  -1967022.79923        32.000
  23826380.220    27119487.504 6   6940182.43625        30.000
  23685180.701    -4026057.740 6    222785.46025        40.000
 96  6  6 15 53 15.0000000  0  7G 2G27G26G 7G 4G19G15
  21297624.631    -4433174.790 9    474077.80129       108.000
  21130776.848   -15045812.696 9   3536594.47728        96.000
  23090723.855     6634253.323 7  -2128964.07126        58.000
  20408033.622    -4591790.115 9  -2865577.56629       100.000
  24620316.959   -21030652.931 6  -2005234.63123        32.000
  23836209.516    27171200.785 6   6980478.46425        30.000
  23688359.430    -4009358.760 6    235797.61725        38.000
 96  6  6 15 53 30.0000000  0  7G 2G27G26G 7G 4G19G15
  21299112.201    -4425345.732 9    480178.36329       108.000
  21137559.202   -15010149.486 9   3564383.98328        96.000
  23090651.964     6633875.357 7  -2129258.62526        58.000
  20407051.412    -4596946.365 9  -2869595.42029        98.000
  24610991.795   -21079707.448 6  -2043458.96424        36.000
  23846068.131    27222964.008 6   7020813.34925        32.000
  23691564.691    -3992517.159 6    248920.94425        40.000
 96  6  6 15 53 45.0000000  0  7G 2G27G26G 7G 4G19G15
  21300611.374    -4417471.002 9    486314.50229       106.000
  21144373.545   -14974366.343 9   3592266.93128        96.000
  23090608.614     6633634.420 7  -2129446.37626        56.000
  20406093.485    -4601983.906 9  -2873520.78029        96.000
  24601649.393   -21128773.459 6  -2081692.21524        38.000
  23855931.962    27274784.171 6   7061192.70425        34.000
  23694788.209    -3975529.138 6    262158.37925        38.000
 96  6  6 15 54  0.0000000  0  7G 2G27G26G 7G 4G19G15
  21302114.593    -4409560.154 9    492478.79529       106.000
  21151201.588   -14938474.114 9   3620234.87028        96.000
  23090586.789     6633521.600 7  -2129534.28426        56.000
  20405157.354    -4606907.962 9  -2877357.71629        94.000
  24592305.131   -21177856.806 6  -2119938.98325        40.000
  23865798.102    27326652.379 6   7101609.42625        34.000
  23698044.555    -3958401.115 6    275504.86425        36.000
 96  6  6 15 54 15.0000000  0  7G 2G27G26G 7G 4G19G15
  21303630.643    -4401612.306 9    498671.93029       108.000
  21158053.075   -14902473.751 9   3648287.12028        96.000
  23090587.749     6633537.372 7  -2129521.98326        58.000
  20404242.297    -4611718.897 9  -2881106.48629        96.000
  24582966.327   -21226955.965 6  -2158198.01825        40.000
  23875677.762    27378569.891 6   7142064.57925        34.000
  23701335.227    -3941131.273 6    288961.87125        36.000
 96  6  6 15 54 30.0000000  0  7G 2G27G26G 7G 4G19G15
  21305150.531    -4393629.226 9    504892.51029       106.000
  21164926.416   -14866366.292 9   3676422.77728        98.000
  23090616.259     6633683.872 7  -2129407.82226        56.000
  20403348.436    -4616417.946 9  -2884768.09529        98.000
  24573620.087   -21276067.609 6  -2196466.84925        36.000
  23885568.095    27430537.532 6   7182558.79925        36.000
  23704650.062    -3923718.353 6    302530.36925        38.000
 96  6  6 15 54 45.0000000  0  7G 2G27G26G 7G 4G19G15
  21306674.916    -4385615.975 9    511136.59329       106.000
  21171815.647   -14830152.576 9   3704641.24828        98.000
  23090670.731     6633957.070 7  -2129194.92526        60.000
  20402471.723    -4621006.736 9  -2888343.77129        96.000
  24564268.481   -21325192.964 6  -2234746.32525        38.000
  23895470.300    27482550.799 6   7223088.61625        38.000
  23707983.934    -3906165.341 6    316208.03425        36.000
 96  6  6 15 55  0.0000000  0  7G 2G27G26G 7G 4G19G15
  21308205.177    -4377574.984 9    517402.27829       108.000
  21178730.570   -14793830.190 9   3732944.37228        96.000
  23090741.093     6634353.582 7  -2128886.01426        58.000
  20401621.871    -4625485.503 9  -2891833.72729        96.000
  24554929.976   -21374332.554 6  -2273036.91225        36.000
  23905384.467    27534608.297 6   7263652.83625        38.000
  23711356.659    -3888473.055 6    329994.21325        38.000
 96  6  6 15 55 15.0000000  0  7G 2G27G26G 7G 4G19G15
  21309739.394    -4369504.073 9    523691.30029       106.000
  21185658.084   -14757398.180 9   3761332.94228        96.000
  23090847.309     6634877.436 7  -2128477.82826        58.000
  20400788.958    -4629856.213 9  -2895239.46429        96.000
  24545574.233   -21423483.073 6  -2311336.00225        36.000
  23915288.920    27586709.210 6   7304250.90424        40.000
  23714745.903    -3870640.133 6    343889.97425        34.000
 96  6  6 15 55 30.0000000  0  7G 2G27G26G 7G 4G19G15
  21311281.227    -4361402.912 9    530003.88829       106.000
  21192614.588   -14720853.808 9   3789809.06628        96.000
  23090968.005     6635530.088 7  -2127969.27126        60.000
  20399979.398    -4634119.667 9  -2898561.64729        96.000
  24536219.389   -21472644.636 6  -2349643.69525        36.000
  23925205.965    27638855.301 6   7344884.23424        38.000
  23718167.434    -3852664.642 6    357896.83425        36.000
 96  6  6 15 55 45.0000000  0  7G 2G27G26G 7G 4G19G15
  21312826.987    -4353271.281 9    536340.22229       104.000
  21199590.609   -14684197.472 9   3818372.40728        98.000
  23091118.831     6636309.412 7  -2127362.00426        58.000
  20399189.715    -4638275.326 9  -2901799.83529        96.000
  24526854.142   -21521816.975 6  -2387959.78425        32.000
  23935145.014    27691044.788 6   7385551.30824        40.000
  23721616.906    -3834547.177 6    372014.33525        32.000
 96  6  6 15 56  0.0000000  0  7G 2G27G26G 7G 4G19G15
  21314378.653    -4345107.630 9    542701.50729       104.000
  21206586.236   -14647428.336 9   3847023.69228        96.000
  23091291.032     6637216.676 7  -2126655.07726        60.000
  20398419.278    -4642321.922 9  -2904953.01729        96.000
  24517500.198   -21570997.653 6  -2426282.38525        32.000
  23945085.802    27743276.233 7   7426251.19224        42.000
  23725095.788    -3816287.238 6    386242.86225        36.000
 96  6  6 15 56 15.0000000  0  7G 2G27G26G 7G 4G19G15
  21315943.929    -4336909.174 9    549089.92229       106.000
  21213606.776   -14610546.743 9   3875762.58128        96.000
  23091485.567     6638254.735 7  -2125846.17526        58.000
  20397667.159    -4646259.324 9  -2908021.11929        96.000
  24508130.634   -21620185.024 6  -2464610.20825        30.000
  23955027.759    27795548.847 6   7466983.05024        40.000
  23728591.368    -3797886.018 6    400581.44825        34.000
 96  6  6 15 56 30.0000000  0  7G 2G27G26G 7G 4G19G15
  21317507.796    -4328674.863 9    555506.26429       106.000
  21220648.271   -14573550.836 9   3904590.54428        98.000
  23091714.459     6639426.359 7  -2124933.24226        60.000
  20396941.481    -4650087.558 9  -2911004.15029        96.000
  24498773.872   -21669376.553 6  -2502941.25625        26.000
  23964978.680    27847866.181 6   7507749.70524        38.000
  23732128.679    -3779344.020 6    415029.77425        34.000
 96  6  6 15 56 45.0000000  0  7G 2G27G26G 7G 4G19G15
  21319084.315    -4320405.907 9    561949.58129       104.000
  21227707.244   -14536439.396 9   3933508.53028        96.000
  23091961.758     6640729.120 7  -2123918.11626        62.000
  20396230.194    -4653805.852 9  -2913901.53429        96.000
  24489422.446   -21718573.177 6  -2541276.25325        26.000
  23974952.206    27900227.849 6   7548550.99023        38.000
  23735688.355    -3760662.891 6    429586.47425        36.000
 96  6  6 15 57  0.0000000  0  7G 2G27G26G 7G 4G19G15
  21320663.562    -4312096.283 9    568424.61029       104.000
  21234794.608   -14499210.083 9   3962518.37028        98.000
  23092231.721     6642167.162 7  -2122797.57526        60.000
  20395550.025    -4657410.411 9  -2916710.27929        96.000
  24480053.661   -21767775.973 6  -2579616.05825        24.000
  23984923.243    27952637.991 6   7589390.08923        40.000
  23739257.264    -3741840.102 6    444253.55225        34.000
 96  6  6 15 57 15.0000000  0  7G 2G27G26G 7G 4G19G15
  21322254.051    -4303742.529 9    574934.04529       104.000
  21241895.612   -14461867.547 9   3991616.47028        94.000
  23092527.586     6643740.139 7  -2121571.86826        58.000
  20394882.267    -4660902.595 9  -2919431.46529        98.000
  24470685.597   -21816988.371 6  -2617963.34325        24.000
  23994906.392    28005096.045 6   7630266.46923        36.000
  23742866.645    -3722876.362 6    459030.47425        34.000
 96  6  6 15 57 30.0000000  0  7G 2G27G26G 7G 4G19G15
  21323852.634    -4295342.745 9    581479.31529       104.000
  21249025.935   -14424414.299 9   4020800.77428        94.000
  23092854.480     6645445.561 7  -2120242.97326        60.000
  20394239.602    -4664279.595 9  -2922062.90829        96.000
  24461316.213   -21866210.947 6  -2656318.56125        22.000
  24004896.946    28057602.633 6   7671180.63524        34.000
  23746507.925    -3703771.492 6    473917.37625        34.000
 96  6  6 15 57 45.0000000  0  7G 2G27G26G 7G 4G19G15
  21325457.483    -4286897.073 9    588060.35529       104.000
  21256174.637   -14386850.106 9   4050071.57928        94.000
  23093208.954     6647282.501 7  -2118811.58126        60.000
  20393620.530    -4667534.561 9  -2924599.24029        96.000
  24451954.984   -21915441.685 6  -2694680.15624        26.000
  24014885.641    28110160.432 6   7712134.73124        32.000
  23750177.025    -3684525.183 6    488914.51925        36.000
 96  6  6 15 58  0.0000000  0  7G 2G27G26G 7G 4G19G15
  21327078.221    -4278401.337 9    594680.40729       106.000
  21263340.845   -14349174.193 9   4079429.42128        92.000
  23093582.825     6649255.138 7  -2117274.50626        60.000
  20393027.961    -4670661.715 9  -2927035.98529        98.000
  24442593.005   -21964678.048 6  -2733046.15424        24.000
  24024915.857    28162774.713 6   7753132.81124        32.000
  23753861.114    -3665135.040 6    504023.73025        34.000
 96  6  6 15 58 15.0000000  0  7G 2G27G26G 7G 4G19G15
  21328701.867    -4269857.135 9    601338.21829       104.000
  21270537.483   -14311388.475 9   4108872.80828        96.000
  23093976.573     6651362.102 7  -2115632.72426        58.000
  20392453.408    -4673664.088 9  -2929375.48929        96.000
  24433215.977   -22013924.723 6  -2771420.16124        22.000
  24034918.462    28215444.025 6   7794173.79024        28.000
  23757572.665    -3645603.569 6    519243.05325        38.000
 96  6  6 15 58 30.0000000  0  7G 2G27G26G 7G 4G19G15
  21330336.665    -4261271.628 9    608028.21229       106.000
  21277743.984   -14273499.486 9   4138396.68328        92.000
  23094402.158     6653594.105 7  -2113893.49626        58.000
  20391902.240    -4676549.788 9  -2931624.09029        96.000
  24423840.567   -22063190.722 6  -2809809.28323        22.000
  24044956.083    28268161.587 6   7835252.35824        28.000
  23761318.182    -3625938.285 6    534566.60525        40.000
 96  6  6 15 58 45.0000000  0  7G 2G27G26G 7G 4G19G15
  21331975.361    -4252646.825 9    614748.84429       104.000
  21284971.171   -14235506.664 9   4168001.46928        92.000
  23094851.667     6655948.488 7  -2112058.90726        60.000
  20391379.881    -4679319.006 9  -2933781.91929        96.000
  24414445.101   -22112478.714 6  -2848215.46523        24.000
  24055014.570    28320926.841 6   7876368.17024        28.000
  23765084.984    -3606138.773 6    549994.79325        38.000
 96  6  6 15 59  0.0000000  0  7G 2G27G26G 7G 4G19G15
  21333627.877    -4243976.391 9    621505.03329       104.000
  21292222.641   -14197405.619 9   4197690.58828        92.000
  23095326.538     6658429.095 7  -2110125.97026        60.000
  20390872.842    -4681967.082 9  -2935845.36029        96.000
  24405063.516   -22161784.875 6  -2886635.83323        26.000
  24065057.347    28373740.467 6   7917521.52925        26.000
  23768878.318    -3586200.230 6    565531.31225        38.000
 96  6  6 15 59 15.0000000  0  7G 2G27G26G 7G 4G19G15
  21335287.348    -4235260.838 9    628296.36129       108.000
  21299493.088   -14159195.981 9   4227464.31328        90.000
  23095815.769     6661035.479 7  -2108095.03926        56.000
  20390391.706    -4684491.778 9  -2937812.65629        96.000
  24395682.530   -22211103.965 6  -2925066.21223        28.000
  24075116.434    28426603.627 6   7958713.55925        26.000
  23772697.254    -3566121.085 6    581177.38625        40.000
 96  6  6 15 59 30.0000000  0  7G 2G27G26G 7G 4G19G15
  21336951.646    -4226504.690 9    635119.32529       106.000
  21306788.177   -14120877.707 9   4257322.70928        90.000
  23096341.695     6663765.028 7  -2105968.14226        60.000
  20389937.520    -4686893.430 9  -2939684.07229        96.000
  24386305.262   -22260430.302 6  -2963502.33323        32.000
  24085189.610    28479514.313 6   7999942.61925        26.000
  23776543.412    -3545902.011 6    596932.50825        40.000
 96  6  6 15 59 45.0000000  0  7G 2G27G26G 7G 4G19G15
  21338623.798    -4217712.893 9    641970.07829       106.000
  21314101.315   -14082447.089 9   4287268.61328        90.000
  23096884.140     6666619.699 7  -2103743.74726        58.000
  20389503.870    -4689173.681 9  -2941460.89929        96.000
  24376912.794   -22309761.518 6  -3001942.25323        30.000
  24095262.217    28532472.495 6   8041208.68625        28.000
  23780419.188    -3525543.433 7    612796.31025        42.000
 96  6  6 16  0  0.0000000  0  7G 2G27G26G 7G 4G19G15
  21340304.824    -4208885.033 9    648848.91229       106.000
  21321432.439   -14043903.117 9   4317302.85728        88.000
  23097452.426     6669602.103 7  -2101419.80426        58.000
  20389092.045    -4691334.046 9  -2943144.28929        96.000
  24367524.344   -22359097.554 6  -3040385.92723        30.000
  24105344.447    28585476.750 6   8082510.68325        26.000
  23784323.236    -3505045.054 6    628769.09425        40.000
 96  6  6 16  0 15.0000000  0  7G 2G27G26G 7G 4G19G15
  21341992.356    -4200022.893 9    655754.46329       108.000
  21328792.464   -14005248.670 9   4347423.18928        90.000
  23098047.454     6672708.698 7  -2098999.09626        58.000
  20388699.227    -4693384.229 9  -2944741.84029        96.000
  24358132.356   -22408441.333 6  -3078835.57823        30.000
  24115444.815    28638520.623 6   8123843.51725        28.000
  23788242.362    -3484409.556 6    644848.69325        40.000
 96  6  6 16  0 30.0000000  0  7G 2G27G26G 7G 4G19G15
  21343682.496    -4191123.050 9    662689.40429       106.000
  21336165.050   -13966478.223 9   4377633.91328        84.000
  23098655.913     6675945.534 7  -2096476.87726        58.000
  20388332.971    -4695321.990 9  -2946251.78129        98.000
  24348746.603   -22457783.500 6  -3117284.00623        32.000
  24125547.611    28691607.074 6   8165209.49925        30.000
  23792199.113    -3463631.788 7    661039.15025        42.000
 96  6  6 16  0 45.0000000  0  7G 2G27G26G 7G 4G19G15
  21345384.538    -4182187.155 9    669652.44829       106.000
  21343563.658   -13927596.977 9   4407930.99128        88.000
  23099301.726     6679308.682 7  -2093856.24826        58.000
  20387984.942    -4697149.769 9  -2947676.01729        96.000
  24339352.037   -22507126.507 6  -3155733.04623        34.000
  24135653.525    28744731.635 6   8206605.23325        32.000
  23796183.535    -3442715.392 6    677337.63125        40.000
 96  6  6 16  1  0.0000000  0  7G 2G27G26G 7G 4G19G15
  21347095.273    -4173211.646 9    676646.32729       108.000
  21350990.237   -13888601.942 9   4438316.71028        90.000
  23099963.668     6682802.129 7  -2091134.12126        56.000
  20387660.027    -4698863.821 9  -2949011.65729        96.000
  24329969.013   -22556464.183 6  -3194178.00824        34.000
  24145771.700    28797895.240 6   8248031.38625        34.000
  23800189.722    -3421656.091 7    693747.45525        44.000
 96  6  6 16  1 15.0000000  0  7G 2G27G26G 7G 4G19G15
  21348807.208    -4164197.889 9    683670.02629       104.000
  21358427.668   -13849497.049 9   4468788.02728        86.000
  23100650.942     6686423.567 7  -2088312.24626        56.000
  20387356.397    -4700467.330 9  -2950261.15029        94.000
  24320582.661   -22605798.696 6  -3232620.44923        36.000
  24155892.154    28851095.553 6   8289486.11325        34.000
  23804222.440    -3400456.731 7    710266.42325        42.000
 96  6  6 16  1 30.0000000  0  7G 2G27G26G 7G 4G19G15
  21350530.295    -4155148.423 9    690721.56329       104.000
  21365889.383   -13810285.531 9   4499342.45428        86.000
  23101365.887     6690171.398 7  -2085391.85526        56.000
  20387071.714    -4701963.800 9  -2951427.21629        96.000
  24311196.429   -22655133.209 6  -3271062.87923        36.000
  24166024.120    28904333.074 6   8330969.86725        34.000
  23808285.497    -3379119.220 7    726893.06825        44.000
 96  6  6 16  1 45.0000000  0  7G 2G27G26G 7G 4G19G15
  21352259.978    -4146062.556 9    697801.44929       106.000
  21373372.802   -13770969.400 9   4529978.38128        86.000
  23102103.407     6694046.361 7  -2082372.38826        58.000
  20386803.070    -4703358.344 9  -2952513.87329        96.000
  24301792.839   -22704472.010 6  -3309508.65824        32.000
  24176159.593    28957603.636 6   8372479.35425        34.000
  23812365.702    -3357646.589 7    743624.99725        44.000
 96  6  6 16  2  0.0000000  0  7G 2G27G26G 7G 4G19G15
  21354000.453    -4136930.491 9    704917.33429       106.000
  21380873.759   -13731542.650 9   4560700.50728        88.000
  23102866.258     6698058.762 7  -2079245.83926        58.000
  20386556.700    -4704641.681 9  -2953513.87129        94.000
  24292414.731   -22753808.625 6  -3347952.78224        34.000
  24186308.137    29010914.733 6   8414020.43825        36.000
  23816476.546    -3336031.297 6    760468.09925        40.000
 96  6  6 16  2 15.0000000  0  7G 2G27G26G 7G 4G19G15
  21355744.855    -4127752.461 9    712069.05529       108.000
  21388397.830   -13692011.254 9   4591504.19028        86.000
  23103652.944     6702204.450 7  -2076015.47726        56.000
  20386334.944    -4705815.211 9  -2954428.31629        94.000
  24283029.788   -22803145.747 6  -3386397.24325        38.000
  24196459.590    29064262.142 6   8455589.77725        36.000
  23820624.205    -3314275.999 7    777420.23825        44.000
 96  6  6 16  2 30.0000000  0  7G 2G27G26G 7G 4G19G15
  21357496.573    -4118528.810 9    719256.30429       106.000
  21395939.979   -13652374.811 9   4622389.70628        86.000
  23104471.527     6706483.387 7  -2072681.24426        58.000
  20386136.152    -4706878.377 9  -2955256.75829        94.000
  24273632.194   -22852484.137 6  -3424842.71925        34.000
  24206614.220    29117647.408 6   8497188.66625        36.000
  23824798.275    -3292381.260 7    794481.04825        42.000
 96  6  6 16  2 45.0000000  0  7G 2G27G26G 7G 4G19G15
  21359263.729    -4109261.382 9    726477.66829       106.000
  21403501.824   -13612635.892 9   4653355.08628        86.000
  23105313.135     6710893.630 7  -2069244.71226        62.000
  20385951.180    -4707829.787 9  -2955998.12529        92.000
  24264243.893   -22901827.404 6  -3463291.95725        30.000
  24216778.083    29171068.247 6   8538815.29325        36.000
  23828983.528    -3270349.375 7    811648.77925        44.000
 96  6  6 16  3  0.0000000  0  7G 2G27G26G 7G 4G19G15
  21361034.663    -4099946.956 9    733735.65729       104.000
  21411082.526   -13572790.577 9   4684403.37328        84.000
  23106173.449     6715436.028 7  -2065705.19526        58.000
  20385794.718    -4708665.564 9  -2956649.37829        94.000
  24254855.803   -22951174.350 6  -3501744.12125        34.000
  24226949.082    29224525.222 6   8580470.02125        36.000
  23833204.456    -3248177.276 7    828925.70825        46.000
 96  6  6 16  3 15.0000000  0  7G 2G27G26G 7G 4G19G15
  21362816.660    -4090587.512 9    741028.72429       104.000
  21418686.762   -13532836.426 9   4715536.46428        84.000
  23107065.511     6720111.030 7  -2062062.34626        62.000
  20385654.895    -4709385.972 9  -2957210.73929        94.000
  24245457.909   -23000523.127 6  -3540197.71025        32.000
  24237138.068    29278022.291 6   8622155.96525        36.000
  23837450.177    -3225864.043 7    846312.66625        44.000
 96  6  6 16  3 30.0000000  0  7G 2G27G26G 7G 4G19G15
  21364603.513    -4081188.795 9    748352.38629       102.000
  21426309.495   -13492778.824 9   4746750.16728        84.000
  23107980.028     6724914.645 7  -2058319.28326        62.000
  20385540.614    -4709994.376 9  -2957684.81329        94.000
  24236077.762   -23049877.990 6  -3578656.02225        34.000
  24247320.040    29331556.337 6   8663870.77325        32.000
  23841716.163    -3203414.845 7    863805.52125        44.000
 96  6  6 16  3 45.0000000  0  7G 2G27G26G 7G 4G19G15
  21366400.349    -4071748.014 9    755708.84929       102.000
  21433951.234   -13452613.568 8   4778047.74328        82.000
  23108915.800     6729850.047 7  -2054473.51526        60.000
  20385444.081    -4710485.782 9  -2958067.72429        94.000
  24226683.616   -23099235.276 6  -3617116.21925        32.000
  24257519.669    29385128.306 6   8705615.16025        32.000
  23846017.586    -3180827.044 7    881406.41725        44.000
 96  6  6 16  4  0.0000000  0  7G 2G27G26G 7G 4G19G15
  21368204.950    -4062267.262 9    763096.42929       102.000
  21441615.129   -13412341.836 8   4809428.28928        82.000
  23109886.978     6734914.265 7  -2050527.40426        60.000
  20385378.216    -4710858.819 9  -2958358.41729        94.000
  24217289.289   -23148596.106 6  -3655579.16425        30.000
  24267718.188    29438736.646 6   8747387.85325        34.000
  23850341.162    -3158101.670 7    899114.46125        46.000
 96  6  6 16  4 15.0000000  0  7G 2G27G26G 7G 4G19G15
  21370016.116    -4052746.656 9    770515.08329       104.000
  21449298.809   -13371962.452 8   4840892.74628        82.000
  23110869.698     6740107.205 7  -2046480.97026        62.000
  20385326.502    -4711112.489 9  -2958556.06829        96.000
  24207898.021   -23197961.466 6  -3694045.62225        30.000
  24277932.147    29492385.966 6   8789192.48725        30.000
  23854695.558    -3135236.950 7    916931.10325        42.000
 96  6  6 16  4 30.0000000  0  7G 2G27G26G 7G 4G19G15
  21371837.235    -4043187.126 9    777964.07029       104.000
  21457004.345   -13331474.950 8   4872441.42828        82.000
  23111882.457     6745425.287 7  -2042336.99926        62.000
  20385300.360    -4711249.399 9  -2958662.74929        94.000
  24198498.748   -23247332.310 6  -3732516.38525        28.000
  24288140.440    29546077.622 6   8831030.14224        26.000
  23859072.318    -3112233.836 7    934855.63425        48.000
 96  6  6 16  4 45.0000000  0  7G 2G27G26G 7G 4G19G15
  21373660.962    -4033594.627 9    785438.73329       104.000
  21464728.288   -13290880.290 8   4904073.62028        82.000
  23112918.479     6750865.534 7  -2038097.86726        62.000
  20385298.202    -4711273.366 9  -2958681.42729        94.000
  24189099.655   -23296710.039 6  -3770992.52225        28.000
  24298368.549    29599810.213 6   8872899.74824        24.000
  23863475.819    -3089095.381 7    952885.58525        42.000
 96  6  6 16  5  0.0000000  0  8G 9G 2G27G26G 7G 4G19G15
  24847060.428    -1518464.314 6  -1671587.93023        32.000
  21375491.645    -4023968.807 9    792939.36629       102.000
  21472472.347   -13250176.232 8   4935791.05728        82.000
  23113978.156     6756427.988 7  -2033763.49626        60.000
  20385315.680    -4711184.359 9  -2958612.07329        96.000
  24179699.392   -23346091.106 6  -3809471.27125        28.000
  24308603.464    29653585.771 6   8914802.76523        26.000
  23867904.444    -3065819.933 7    971022.30125        46.000
 96  6  6 16  5 15.0000000  0  8G 9G 2G27G26G 7G 4G19G15
  24838035.836    -1565899.130 6  -1708550.16923        26.000
  21377328.863    -4014311.010 9    800464.91829       104.000
  21480245.935   -13209363.645 8   4967593.04828        82.000
  23115051.113     6762112.242 7  -2029334.21626        62.000
  20385352.284    -4710983.590 9  -2958455.61429        94.000
  24170311.062   -23395475.732 6  -3847952.73125        30.000
  24318849.681    29707406.758 6   8956741.01823        26.000
  23872361.518    -3042408.360 7    989265.07325        44.000
 96  6  6 16  5 30.0000000  0  8G 9G 2G27G26G 7G 4G19G15
  24829004.468    -1613324.137 6  -1745504.75623        24.000
  21379176.574    -4004622.477 9    808014.42229       104.000
  21488028.308   -13168447.523 9   4999475.72128        84.000
  23116163.913     6767918.219 7  -2024810.11926        60.000
  20385409.635    -4710673.128 9  -2958213.71129        94.000
  24160910.230   -23444866.611 6  -3886439.11625        32.000
  24329090.291    29761270.593 6   8998712.81623        22.000
  23876836.910    -3018863.984 7   1007611.33025        46.000
 96  6  6 16  5 45.0000000  0  8G 9G 2G27G26G 7G 4G19G15
  24819986.531    -1660731.602 6  -1782445.55022        22.000
  21381025.364    -3994894.848 9    815594.40429       104.000
  21495832.265   -13127422.284 8   5031443.44728        82.000
  23117287.205     6773853.428 7  -2020185.27626        62.000
  20385490.429    -4710247.634 9  -2957882.14729        94.000
  24151513.055   -23494258.903 6  -3924926.57125        32.000
  24339346.611    29815179.421 6   9040719.75822        22.000
  23881346.898    -2995181.964 7   1026064.85625        44.000
 96  6  6 16  6  0.0000000  0  8G 9G 2G27G26G 7G 4G19G15
  24810977.977    -1708125.081 5  -1819375.49622        20.000
  21382883.927    -3985130.708 9    823202.80029       106.000
  21503659.516   -13086291.207 8   5063493.60928        80.000
  23118448.001     6779914.516 8  -2015462.36326        64.000
  20385590.290    -4709714.242 9  -2957466.52429        94.000
  24142105.628   -23543655.004 6  -3963417.01525        34.000
  24349624.396    29869129.276 6   9082758.62022        22.000
  23885873.434    -2971366.442 7   1044622.41325        44.000
 96  6  6 16  6 15.0000000  0  8G 9G 2G27G26G 7G 4G19G15
  24801966.396    -1755501.593 6  -1856292.27922        22.000
  21384749.356    -3975329.150 9    830840.38229       102.000
  21511506.824   -13045051.904 8   5095628.11128        82.000
  23119620.939     6786103.363 7  -2010639.88926        62.000
  20385716.802    -4709075.159 9  -2956968.53629        96.000
  24132707.614   -23593050.928 6  -4001907.30525        34.000
  24359892.048    29923123.112 6   9124831.65522        22.000
  23890428.421    -2947415.813 7   1063285.24125        42.000
 96  6  6 16  6 30.0000000  0  8G 9G 2G27G26G 7G 4G19G15
  24792947.020    -1802860.512 6  -1893195.37022        22.000
  21386622.130    -3965488.465 9    838508.44229       104.000
  21519379.164   -13003705.412 8   5127846.14228        82.000
  23120820.889     6792420.309 7  -2005717.60226        62.000
  20385857.944    -4708332.271 9  -2956389.65329        96.000
  24123317.545   -23642446.250 6  -4040397.16325        34.000
  24370177.747    29977157.829 5   9166936.63522        20.000
  23895018.933    -2923330.937 7   1082052.69125        44.000
 96  6  6 16  6 45.0000000  0  8G 9G 2G27G26G 7G 4G19G15
  24783942.394    -1850198.582 6  -1930082.10022        24.000
  21388500.659    -3955604.266 9    846210.40229       102.000
  21527266.494   -12962248.801 8   5160149.98028        80.000
  23122056.064     6798869.700 8  -2000692.12426        66.000
  20386019.832    -4707483.625 9  -2955728.36129        96.000
  24113911.616   -23691834.247 6  -4078881.28225        36.000
  24380461.977    30031233.425 6   9209073.34922        24.000
  23899632.589    -2899108.620 7   1100927.21025        48.000
 96  6  6 16  7  0.0000000  0  8G 9G 2G27G26G 7G 4G19G15
  24774937.618    -1897519.575 6  -1966955.57022        22.000
  21390391.630    -3945678.192 9    853945.01129       104.000
  21535176.338   -12920688.047 8   5192534.96228        80.000
  23123303.650     6805448.164 8  -1995566.05726        64.000
  20386199.318    -4706534.211 9  -2954988.56529        96.000
  24104519.748   -23741219.624 6  -4117363.37525        40.000
  24390759.039    30085343.000 6   9251236.62422        24.000
  23904253.650    -2874753.938 7   1119904.90524        42.000
 96  6  6 16  7 15.0000000  0  8G 9G 2G27G26G 7G 4G19G15
  24765936.649    -1944820.699 6  -2003813.57322        22.000
  21392289.826    -3935704.256 9    861716.90829       102.000
  21543101.291   -12879023.031 8   5225001.19828        78.000
  23124580.346     6812158.152 7  -1990337.50726        62.000
  20386399.609    -4705479.364 9  -2954166.60029        96.000
  24095122.664   -23790598.140 6  -4155840.10325        40.000
  24401055.441    30139488.063 6   9293427.54422        24.000
  23908921.118    -2850263.850 7   1138988.03324        44.000
 96  6  6 16  7 30.0000000  0  8G 9G 2G27G26G 7G 4G19G15
  24756938.948    -1992100.003 6  -2040654.55823        26.000
  21394194.917    -3925681.972 9    869526.47929       102.000
  21551052.237   -12837254.079 8   5257548.41828        78.000
  23125882.315     6819001.900 7  -1985004.72726        62.000
  20386620.526    -4704316.321 9  -2953260.33729        98.000
  24085729.866   -23839968.724 7  -4194310.65825        42.000
  24411383.651    30193668.735 6   9335646.21522        28.000
  23913608.583    -2825637.393 7   1158177.50724        42.000
 96  6  6 16  7 45.0000000  0  8G 9G 2G27G26G 7G 4G19G15
  24747944.395    -2039362.431 6  -2077482.39923        30.000
  21396109.302    -3915615.200 9    877370.71029       100.000
  21559018.172   -12795383.560 8   5290174.77328        76.000
  23127210.635     6825975.313 7  -1979570.90726        62.000
  20386861.679    -4703048.768 9  -2952272.63129        96.000
  24076327.595   -23889330.865 6  -4232774.64725        40.000
  24421697.770    30247879.777 6   9377888.52722        28.000
  23918324.019    -2800877.694 7   1177470.78124        44.000
 96  6  6 16  8  0.0000000  0  8G 9G 2G27G26G 7G 4G19G15
  24738957.786    -2086610.206 6  -2114298.83823        32.000
  21398033.759    -3905505.681 9    885248.25429       100.000
  21567007.851   -12753411.725 8   5322880.07228        78.000
  23128561.890     6833075.639 8  -1974038.17726        64.000
  20387123.488    -4701675.912 9  -2951202.86829        96.000
  24066937.646   -23938681.813 6  -4271229.88725        38.000
  24432010.721    30302124.466 6   9420157.04722        28.000
  23923064.247    -2775983.009 7   1196869.24024        42.000
 96  6  6 16  8 15.0000000  0  8G 9G 2G27G26G 7G 4G19G15
  24729969.678    -2133843.731 6  -2151104.19723        34.000
  21399965.592    -3895354.218 9    893158.48229       100.000
  21575009.941   -12711339.853 8   5355663.33428        74.000
  23129936.498     6840299.834 7  -1968408.96026        60.000
  20387403.704    -4700194.702 9  -2950048.69029        98.000
  24057560.407   -23988020.970 7  -4309676.00725        42.000
  24442342.828    30356404.356 6   9462453.01323        32.000
  23927825.131    -2750952.034 6   1216373.83324        40.000
 96  6  6 16  8 30.0000000  0  8G 9G 2G27G26G 7G 4G19G15
  24720981.720    -2181060.641 6  -2187896.50524        32.000
  21401906.958    -3885158.796 9    901102.96329       100.000
  21583041.591   -12669166.977 8   5388525.31228        76.000
  23131339.377     6847649.654 8  -1962681.83526        64.000
  20387710.572    -4698599.532 9  -2948805.67629        96.000
  24048172.886   -24037348.434 7  -4348112.98025        42.000
  24452680.002    30410720.193 6   9504777.07423        32.000
  23932607.810    -2725783.131 6   1235985.97024        40.000
 96  6  6 16  8 45.0000000  0  8G 9G 2G27G26G 7G 4G19G15
  24711992.114    -2228267.088 6  -2224680.76224        34.000
  21403857.078    -3874924.795 9    909077.50329       100.000
  21591080.796   -12626899.956 8   5421460.61528        74.000
  23132756.676     6855120.444 8  -1956860.47926        64.000
  20388031.200    -4696892.855 9  -2947475.81129        96.000
  24038780.149   -24086667.771 7  -4386543.59125        42.000
  24463031.116    30465066.187 6   9547124.56423        34.000
  23937425.325    -2700482.198 6   1255700.99124        40.000
 96  6  6 16  9  0.0000000  0  8G 9G 2G27G26G 7G 4G19G15
  24703011.681    -2275462.882 6  -2261456.66225        36.000
  21405810.766    -3864650.956 9    917083.10329       102.000
  21599143.294   -12584536.404 8   5454471.16928        76.000
  23134201.436     6862712.977 8  -1950944.21326        64.000
  20388382.077    -4695070.239 9  -2946055.59029        98.000
  24029390.049   -24135976.865 6  -4424966.24525        38.000
  24473372.337    30519446.166 6   9589498.53023        34.000
  23942269.732    -2675047.525 6   1275520.23524        40.000
 96  6  6 16  9 15.0000000  0  8G 9G 2G27G26G 7G 4G19G15
  24694033.556    -2322652.704 6  -2298227.90425        40.000
  21407774.346    -3854342.197 9    925115.90229       100.000
  21607220.932   -12542078.338 8   5487555.35628        74.000
  23135670.808     6870421.879 7  -1944937.29026        62.000
  20388746.594    -4693132.193 9  -2944545.42729        94.000
  24020014.430   -24185279.503 6  -4463383.86725        38.000
  24483725.789    30573858.626 6   9631897.81324        38.000
  23947130.207    -2649481.406 6   1295441.87725        36.000
 96  6  6 16  9 30.0000000  0  8G 9G 2G27G26G 7G 4G19G15
  24685060.918    -2369835.349 6  -2334993.59125        40.000
  21409740.895    -3843999.623 9    933175.03928       102.000
  21615324.952   -12499521.215 8   5520716.73228        76.000
  23137158.079     6878249.800 8  -1938837.61426        64.000
  20389139.712    -4691076.558 9  -2942943.63329        98.000
  24010638.031   -24234573.503 6  -4501794.74925        38.000
  24494089.944    30628308.374 6   9674326.17124        36.000
  23952017.993    -2623781.140 6   1315468.05125        36.000
 96  6  6 16  9 45.0000000  0  8G 9G 2G27G26G 7G 4G19G15
  24676083.933    -2417014.168 6  -2371756.31525        40.000
  21411713.559    -3833623.257 9    941260.50828       100.000
  21623438.415   -12456866.372 8   5553954.24328        76.000
  23138667.534     6886194.923 7  -1932646.62826        60.000
  20389553.276    -4688909.397 9  -2941254.93129        98.000
  24001260.763   -24283862.320 6  -4540201.59125        40.000
  24504447.564    30682793.399 6   9716781.96024        34.000
  23956928.893    -2597949.631 6   1335596.49325        36.000
 96  6  6 16 10  0.0000000  0  8G 9G 2G27G26G 7G 4G19G15
  24667107.607    -2464186.138 7  -2408513.68125        42.000
  21413696.327    -3823207.323 9    949376.80528       100.000
  21631575.982   -12414110.247 8   5587270.69928        76.000
  23140199.743     6894259.869 7  -1926362.27726        62.000
  20389984.048    -4686627.836 9  -2939477.09029        96.000
  23991876.749   -24333141.818 6  -4578601.19625        36.000
  24514831.265    30737317.513 6   9759268.27324        36.000
  23961876.518    -2571982.794 6   1355830.35425        36.000
 96  6  6 16 10 15.0000000  0  8G 9G 2G27G26G 7G 4G19G15
  24658128.763    -2511347.831 6  -2445263.05025        40.000
  21415686.169    -3812751.088 9    957524.53228       102.000
  21639729.947   -12371252.585 8   5620666.25828        76.000
  23141763.730     6902444.045 7  -1919985.01126        62.000
  20390441.741    -4684231.087 9  -2937609.49229        96.000
  23982496.303   -24382416.301 6  -4616996.83125        36.000
  24525215.387    30791879.455 6   9801784.03225        36.000
  23966845.788    -2545882.025 6   1376168.58325        34.000
 96  6  6 16 10 30.0000000  0  8G 9G 2G27G26G 7G 4G19G15
  24649163.020    -2558494.190 7  -2482000.43125        42.000
  21417683.027    -3802250.558 9    965706.75928       100.000
  21647907.955   -12328287.658 8   5654145.40928        76.000
  23143340.789     6910751.650 7  -1913511.54626        62.000
  20390918.771    -4681719.957 9  -2935652.75629        96.000
  23973120.984   -24431684.055 6  -4655387.28225        36.000
  24535604.514    30846480.340 6   9844330.13725        36.000
  23971827.949    -2519646.026 6   1396612.24025        34.000
 96  6  6 16 10 45.0000000  0  8G 9G 2G27G26G 7G 4G19G15
  24640193.229    -2605627.865 6  -2518727.98825        40.000
  21419690.437    -3791706.022 9    973923.28528       100.000
  21656101.793   -12285218.838 8   5687705.50928        76.000
  23144946.627     6919180.853 7  -1906943.35826        60.000
  20391419.334    -4679100.643 9  -2933611.73829        96.000
  23963746.713   -24480944.630 6  -4693772.08625        34.000
  24546003.355    30901119.183 6   9886905.79524        36.000
  23976854.149    -2493276.767 6   1417159.67325        34.000
 96  6  6 16 11  0.0000000  0  8G 9G 2G27G26G 7G 4G19G15
  24631225.807    -2652749.524 6  -2555446.12825        38.000
  21421703.783    -3781115.639 9    982175.53428       102.000
  21664314.007   -12242046.157 8   5721346.53428        76.000
  23146570.033     6927727.954 7  -1900283.28026        62.000
  20391939.054    -4676376.050 9  -2931488.68129        96.000
  23954374.931   -24530198.034 6  -4732151.31225        34.000
  24556395.241    30955797.096 6   9929511.90625        32.000
  23981892.851    -2466774.486 6   1437810.82925        32.000
 96  6  6 16 11 15.0000000  0  8G 9G 2G27G26G 7G 4G19G15
  24622256.347    -2699862.156 6  -2592157.23825        36.000
  21423730.260    -3770484.702 9    990459.36828       102.000
  21672547.837   -12198773.616 8   5755065.37828        74.000
  23148220.091     6936385.722 7  -1893536.97926        62.000
  20392476.013    -4673553.275 9  -2929289.10929        96.000
  23945002.460   -24579452.476 6  -4770531.38725        34.000
  24566826.610    31010507.467 6   9972143.32325        34.000
  23986966.419    -2440144.317 6   1458561.55425        36.000
 96  6  6 16 11 30.0000000  0  8G 9G 2G27G26G 7G 4G19G15
  24613297.799    -2746955.600 6  -2628853.44225        34.000
  21425760.455    -3759802.400 9    998783.24628       102.000
  21680805.621   -12155391.802 8   5788869.36428        76.000
  23149891.104     6945167.395 7  -1886694.16526        62.000
  20393031.138    -4670622.979 9  -2927005.76829        98.000
  23935636.194   -24628696.504 6  -4808903.32025        36.000
  24577237.233    31065260.389 6  10014807.88825        34.000
  23992060.132    -2413376.426 6   1479419.63025        32.000
 96  6  6 16 11 45.0000000  0  8G 9G 2G27G26G 7G 4G19G15
  24604333.075    -2794046.600 6  -2665547.71725        32.000
  21427799.193    -3749085.853 9   1007133.78028       100.000
  21689077.284   -12111919.669 8   5822743.71428        76.000
  23151584.572     6954055.600 7  -1879768.29926        62.000
  20393606.410    -4667603.503 9  -2924652.94529        98.000
  23926263.333   -24677946.687 6  -4847280.09225        34.000
  24587659.577    31120036.146 6  10057490.29025        30.000
  23997169.705    -2386490.030 6   1500370.02225        32.000
 96  6  6 16 12  0.0000000  0  8G 9G 2G27G26G 7G 4G19G15
  24595364.214    -2841129.206 6  -2702235.42625        30.000
  21429847.465    -3738331.199 9   1015514.03828       104.000
  21697367.475   -12068353.654 8   5856691.25528        76.000
  23153294.378     6963053.893 7  -1872756.63226        60.000
  20394198.980    -4664487.539 9  -2922224.90329        98.000
  23916894.429   -24727196.204 6  -4885656.30825        38.000
  24598085.400    31174835.848 6  10100191.31224        28.000
  24002317.381    -2359480.405 6   1521416.49525        34.000
 96  6  6 16 12 15.0000000  0  8G 9G 2G27G26G 7G 4G19G15
  24586419.096    -2888191.272 6  -2738907.10125        30.000
  21431903.532    -3727530.973 9   1023929.79328       104.000
  21705680.510   -12024684.237 8   5890719.34928        78.000
  23155026.998     6972171.084 7  -1865652.34626        60.000
  20394816.133    -4661262.482 9  -2919711.87929        98.000
  23907518.779   -24776436.216 6  -4924025.10725        36.000
  24608521.865    31229668.775 6  10142918.19324        30.000
  24007476.240    -2332338.399 6   1542566.09525        30.000
 96  6  6 16 12 30.0000000  0  8G 9G 2G27G26G 7G 4G19G15
  24577473.169    -2935232.159 6  -2775562.39225        30.000
  21433965.864    -3716684.289 9   1032381.75928       102.000
  21714009.464   -11980911.874 8   5924827.68128        78.000
  23156793.016     6981407.912 7  -1858454.83226        60.000
  20395450.254    -4657931.074 9  -2917115.97929        96.000
  23898154.852   -24825668.768 6  -4962388.08325        38.000
  24618964.416    31284534.914 6  10185670.99424        28.000
  24012678.089    -2305064.721 6   1563818.31025        34.000
 96  6  6 16 12 45.0000000  0  8G 9G 2G27G26G 7G 4G19G15
  24568518.608    -2982253.284 6  -2812202.19825        28.000
  21436039.349    -3705789.565 9   1040871.14128       102.000
  21722358.264   -11937039.268 8   5959014.10828        76.000
  23158566.108     6990765.820 7  -1851162.97426        60.000
  20396101.793    -4654493.808 9  -2914437.59029        96.000
  23888778.992   -24874889.062 6  -5000741.54325        36.000
  24629401.480    31339434.035 6  10228449.50924        24.000
  24017887.792    -2277658.433 6   1585173.85525        30.000
 96  6  6 16 13  0.0000000  0  8G 9G 2G27G26G 7G 4G19G15
  24559582.335    -3029256.951 6  -2848828.40925        28.000
  21438122.876    -3694850.378 9   1049395.16928       104.000
  21730725.022   -11893070.109 8   5993275.76728        78.000
  23160373.047     7000244.658 7  -1843776.90026        62.000
  20396776.475    -4650950.994 9  -2911676.94429        98.000
  23879421.780   -24924098.407 6  -5039086.47625        40.000
  24639860.310    31394361.995 6  10271250.51124        22.000
  24023124.627    -2250122.387 6   1606630.47125        32.000
 96  6  6 16 13 15.0000000  0  8G 9G 2G27G26G 7G 4G19G15
  24550639.376    -3076239.182 6  -2885437.91625        28.000
  21440212.700    -3683868.565 9   1057952.43728       100.000
  21739108.628   -11848999.871 8   6027616.18928        76.000
  23162202.891     7009849.847 7  -1836292.34726        60.000
  20397470.945    -4647296.579 9  -2908829.36929       100.000
  23870055.245   -24973297.073 6  -5077423.09425        40.000
  24650323.636    31449319.311 6  10314074.41824        22.000
  24028386.764    -2222455.430 6   1628189.10525        34.000
 96  6  6 16 13 30.0000000  0  8G 9G 2G27G26G 7G 4G19G15
  24541694.708    -3123198.323 6  -2922029.44425        26.000
  21442311.007    -3672845.780 9   1066541.61128       104.000
  21747515.558   -11804828.213 8   6062035.65228        74.000
  23164058.966     7019585.474 7  -1828706.16026        60.000
  20398187.239    -4643528.656 9  -2905893.31729        96.000
  23860703.159   -25022482.502 7  -5115749.37625        42.000
  24660790.050    31504306.923 5  10356921.85423        20.000
  24033676.752    -2194656.876 6   1649850.29925        32.000
 96  6  6 16 13 45.0000000  0  8G 9G 2G27G26G 7G 4G19G15
  24532768.418    -3170125.827 6  -2958596.27925        26.000
  21444415.550    -3661775.383 9   1075167.86528       104.000
  21755944.973   -11760548.398 8   6096539.38028        76.000
  23165928.831     7029459.637 7  -1821012.00926        60.000
  20398930.754    -4639637.582 9  -2902861.31629        98.000
  23851346.456   -25071644.914 7  -5154057.72725        42.000
  24671260.842    31559333.609 5  10399799.66822        16.000
  24038993.601    -2166718.769 6   1671620.22325        32.000
 96  6  6 16 14  0.0000000  0  8G 9G 2G27G26G 7G 4G19G15
  24523838.950    -3217019.654 6  -2995136.92725        26.000
  21446533.554    -3650656.828 9   1083831.68928       102.000
  21764385.809   -11716160.900 8   6131127.01628        74.000
  23167834.822     7039470.872 7  -1813211.04726        60.000
  20399692.167    -4635624.819 9  -2899734.49029        98.000
  23841996.709   -25120784.924 7  -5192348.61825        44.000
  24681718.562    31614397.377 5  10442706.40322        14.000
  24044339.770    -2138640.740 6   1693499.19825        36.000
 96  6  6 16 14 15.0000000  0  8G 9G 2G27G26G 7G 4G19G15
  24514924.591    -3263892.119 6  -3031660.90525        26.000
  21448653.326    -3639500.544 9   1092524.91428       104.000
  21772852.638   -11671678.311 8   6165788.77028        76.000
  23169764.466     7049608.065 7  -1805311.95526        58.000
  20400477.833    -4631503.386 9  -2896522.97729        98.000
  23832640.966   -25169913.303 7  -5230630.44525        42.000
  24692219.062    31669486.493 5  10485633.01522        16.000
  24049712.381    -2110434.486 6   1715478.07925        36.000
 96  6  6 16 14 30.0000000  0  8G 9G 2G27G26G 7G 4G19G15
  24506003.037    -3310741.277 6  -3068166.68824        28.000
  21450787.998    -3628301.680 9   1101251.28028       106.000
  21781340.122   -11627099.193 8   6200525.72628        76.000
  23171714.706     7059871.973 7  -1797314.14326        58.000
  20401280.018    -4627272.867 9  -2893226.46929        98.000
  23823290.109   -25219029.790 7  -5268903.00325        42.000
  24702706.072    31724604.916 5  10528582.39722        20.000
  24055099.621    -2082098.690 6   1737557.89725        38.000
 96  6  6 16 14 45.0000000  0  7G 9G 2G27G26G 7G 4G15
  24497101.899    -3357568.375 6  -3104655.37524        30.000
  21452924.170    -3617062.492 9   1110009.08728       106.000
  21789837.110   -11582425.202 8   6235336.59728        76.000
  23173696.154     7070260.649 7  -1789219.08526        62.000
  20402106.546    -4622934.558 9  -2889845.97129        94.000
  23813955.981   -25268130.670 7  -5307163.38625        44.000
  24060516.421    -2053634.327 6   1759737.90025        36.000
 96  6  6 16 15  0.0000000  0  7G 9G 2G27G26G 7G 4G15
  24488194.106    -3404370.819 6  -3141124.78524        32.000
  21455071.403    -3605781.435 9   1118799.51828       104.000
  21798360.689   -11537653.791 8   6270223.40028        78.000
  23175694.421     7080776.686 7  -1781024.77126        60.000
  20402952.200    -4618482.718 9  -2886377.00629        96.000
  23804619.425   -25317210.333 7  -5345407.27025        44.000
  24065963.530    -2025038.979 6   1782020.00525        40.000
 96  6  6 16 15 15.0000000  0  7G 9G 2G27G26G 7G 4G15
  24479289.640    -3451147.767 6  -3177574.32824        30.000
  21457225.412    -3594460.816 9   1127620.76928       106.000
  21806895.301   -11492783.342 8   6305187.35928        74.000
  23177723.656     7091418.229 7  -1772732.66826        60.000
  20403823.157    -4613915.022 9  -2882817.76229        96.000
  23795280.020   -25366272.379 7  -5383637.41425        42.000
  24071421.971    -1996312.571 7   1804404.19225        42.000
 96  6  6 16 15 30.0000000  0  7G 9G 2G27G26G 7G 4G15
  24470395.368    -3497902.877 6  -3214006.85924        30.000
  21459387.035    -3583100.920 9   1136472.63228       104.000
  21815456.714   -11447816.606 8   6340226.35928        78.000
  23179772.138     7102181.305 7  -1764345.86626        58.000
  20404714.710    -4609233.074 9  -2879169.48029        96.000
  23785936.599   -25415318.222 6  -5421854.95825        40.000
  24076909.852    -1967456.695 6   1826889.27825        36.000
 96  6  6 16 15 45.0000000  0  7G 9G 2G27G26G 7G 4G15
  24461490.572    -3544640.138 6  -3250425.46724        30.000
  21461558.492    -3571698.370 9   1145357.74028       102.000
  21824028.889   -11402756.638 8   6375338.01028        74.000
  23181849.579     7113066.006 7  -1755864.30526        60.000
  20405625.509    -4604440.635 9  -2875435.12029        96.000
  23776616.801   -25464343.645 7  -5460056.54425        44.000
  24082424.924    -1938471.338 6   1849475.22325        38.000
 96  6  6 16 16  0.0000000  0  7G 9G 2G27G26G 7G 4G15
  24452603.615    -3591360.991 6  -3286831.29624        34.000
  21463737.414    -3560251.897 9   1154277.07028       104.000
  21832623.489   -11357603.366 8   6410522.36127        76.000
  23183935.505     7124074.159 7  -1747286.56426        58.000
  20406558.014    -4599538.921 9  -2871615.59529        94.000
  23767292.206   -25513348.433 7  -5498242.09025        42.000
  24087974.172    -1909355.978 6   1872162.50825        36.000
 96  6  6 16 16 15.0000000  0  7G 9G 2G27G26G 7G 4G15
  24443717.347    -3638068.429 6  -3323226.72224        34.000
  21465919.543    -3548765.110 9   1163227.79328       102.000
  21841229.122   -11312361.344 8   6445775.85727        76.000
  23186053.329     7135201.704 7  -1738615.76026        58.000
  20407509.225    -4594534.500 9  -2867716.04829        96.000
  23757966.292   -25562334.072 7  -5536412.68725        42.000
  24093539.670    -1880114.773 6   1894947.84025        40.000
 96  6  6 16 16 30.0000000  0  7G 9G 2G27G26G 7G 4G15
  24434837.014    -3684754.293 6  -3359605.29924        36.000
  21468114.624    -3537232.790 9   1172214.02828       100.000
  21849853.911   -11267023.033 8   6481104.40227        74.000
  23188196.066     7146455.689 7  -1729846.42526        60.000
  20408485.979    -4589419.822 9  -2863730.58229        96.000
  23748652.070   -25611293.757 7  -5574563.02325        42.000
  24099124.863    -1850741.273 7   1917836.28125        42.000
 96  6  6 16 16 45.0000000  0  7G 9G 2G27G26G 7G 4G15
  24425953.324    -3731420.327 6  -3395968.40924        38.000
  21470318.368    -3525657.968 9   1181233.36628       102.000
  21858500.195   -11221592.191 8   6516505.03727        74.000
  23190359.338     7157832.654 7  -1720981.25726        58.000
  20409475.504    -4584198.266 9  -2859661.83929        96.000
  23739346.452   -25660231.832 7  -5612696.58225        42.000
  24104737.218    -1821239.205 7   1940824.86825        42.000
 96  6  6 16 17  0.0000000  0  7G 9G 2G27G26G 7G 4G15
  24417081.176    -3778071.446 6  -3432319.89224        40.000
  21472528.168    -3514047.811 9   1190280.23428       102.000
  21867166.805   -11176072.980 8   6551974.53727        76.000
  23192550.431     7169331.699 7  -1712020.96126        58.000
  20410490.751    -4578877.966 9  -2855516.14229        98.000
  23730023.597   -25709151.903 6  -5650816.12925        40.000
  24110379.911    -1791612.997 7   1963910.23525        42.000
 96  6  6 16 17 15.0000000  0  7G 9G 2G27G26G 7G 4G15
  24408198.985    -3824700.414 6  -3468654.14624        40.000
  21474744.384    -3502395.196 9   1199360.18928       102.000
  21875840.970   -11130456.284 8   6587519.98527        74.000
  23194759.242     7180960.169 7  -1702959.81526        56.000
  20411523.506    -4573453.620 9  -2851289.37829        96.000
  23720727.242   -25758049.161 6  -5688917.88325        40.000
  24116040.353    -1761854.888 7   1987098.33925        44.000
 96  6  6 16 17 30.0000000  0  7G 9G 2G27G26G 7G 4G15
  24399338.080    -3871309.656 6  -3504973.04224        40.000
  21476969.503    -3490701.638 9   1208472.05628       102.000
  21884548.262   -11084744.616 8   6623139.45627        76.000
  23197001.570     7192716.020 7  -1693799.47026        60.000
  20412572.750    -4567931.533 9  -2846986.45629        96.000
  23711425.792   -25806925.276 6  -5727003.12625        40.000
  24121725.197    -1731968.041 7   2010386.77125        46.000
 96  6  6 16 17 45.0000000  0  7G 9G 2G27G26G 7G 4G15
  24390472.647    -3917895.944 6  -3541274.05725        40.000
  21479203.617    -3478963.251 9   1217618.84928       100.000
  21893258.523   -11038936.323 8   6658834.21427        72.000
  23199261.915     7204599.501 7  -1684539.63226        58.000
  20413643.459    -4562316.202 9  -2842610.87429        98.000
  23702130.696   -25855776.641 6  -5765069.07125        40.000
  24127439.421    -1701951.566 7   2033776.22225        42.000
 96  6  6 16 18  0.0000000  0  7G 9G 2G27G26G 7G 4G15
  24381610.902    -3964453.637 6  -3577552.73225        40.000
  21481446.304    -3467180.415 9   1226800.28028       102.000
  21901997.563   -10993030.971 8   6694604.59427        74.000
  23201546.933     7216607.108 7  -1675183.05426        62.000
  20414728.468    -4556608.756 9  -2838163.51529        96.000
  23692836.021   -25904603.882 6  -5803116.25625        40.000
  24133177.779    -1671805.646 7   2057266.54525        42.000
 96  6  6 16 18 15.0000000  0  7G 9G 2G27G26G 7G 4G15
  24372755.632    -4010979.150 6  -3613806.33925        36.000
  21483699.874    -3455355.665 9   1236014.34428       104.000
  21910751.802   -10947027.953 8   6730451.07327        72.000
  23203846.132     7228734.127 7  -1665733.44226        58.000
  20415832.333    -4550809.230 9  -2833644.40329        98.000
  23683550.429   -25953411.535 6  -5841148.17825        40.000
  24138933.974    -1641532.422 7   2080856.03525        42.000
 96  6  6 16 18 30.0000000  0  7G 9G 2G27G26G 7G 4G15
  24363905.429    -4057470.381 6  -3650033.25925        36.000
  21485951.705    -3443487.809 9   1245262.03328       102.000
  21919525.948   -10900927.166 8   6766373.74927        74.000
  23206181.725     7240978.486 7  -1656192.38826        58.000
  20416956.045    -4544914.468 9  -2829051.08929        98.000
  23674262.079   -26002200.986 6  -5879165.90725        40.000
  24144718.949    -1611132.166 6   2104544.54225        40.000
 96  6  6 16 18 45.0000000  0  7G 9G 2G27G26G 7G 4G15
  24355067.188    -4103928.914 6  -3686234.72225        36.000
  21488220.055    -3431571.479 9   1254547.47528       102.000
  21928317.122   -10854727.545 8   6802373.43427        72.000
  23208535.155     7253341.121 7  -1646559.18626        60.000
  20418095.647    -4538921.808 9  -2824381.48129        98.000
  23664977.627   -26050972.420 6  -5917169.62025        40.000
  24150528.987    -1580603.883 6   2128332.80725        40.000
 96  6  6 16 19  0.0000000  0  7G 9G 2G27G26G 7G 4G15
  24346225.259    -4150360.817 6  -3722415.38025        36.000
  21490501.206    -3419609.598 9   1263868.42528       104.000
  21937123.525   -10808433.454 8   6838446.71727        72.000
  23210906.004     7265819.455 7  -1636835.84126        58.000
  20419252.546    -4532834.742 9  -2819638.30729        98.000
  23655706.815   -26099729.550 7  -5955162.16025        42.000
  24156361.959    -1549951.118 7   2152218.09125        42.000
 96  6  6 16 19 15.0000000  0  7G 9G 2G27G26G 7G 4G15
  24337400.178    -4196765.262 6  -3758574.67225        32.000
  21492785.504    -3407602.445 9   1273224.64228       104.000
  21945954.362   -10762044.462 8   6874593.96827        74.000
  23213308.871     7278414.996 7  -1627021.15526        62.000
  20420428.392    -4526648.645 9  -2814817.97429        96.000
  23646431.206   -26148468.880 6  -5993140.84525        40.000
  24162218.644    -1519172.185 7   2176201.64225        42.000
 96  6  6 16 19 30.0000000  0  7G 9G 2G27G26G 7G 4G15
  24328578.576    -4243141.351 6  -3794711.84525        32.000
  21495076.398    -3395548.299 9   1282617.48628       102.000
  21954793.233   -10715561.462 8   6910814.47327        72.000
  23215723.849     7291126.228 7  -1617116.31026        60.000
  20421627.591    -4520359.899 9  -2809917.66229        98.000
  23637158.116   -26197190.052 7  -6031105.36025        42.000
  24168104.320    -1488267.445 7   2200283.25225        46.000
 96  6  6 16 19 45.0000000  0  7G 9G 2G27G26G 7G 4G15
  24319749.957    -4289486.878 6  -3830825.21925        32.000
  21497382.612    -3383443.829 9   1292049.53728       104.000
  21963657.316   -10668983.234 8   6947109.16927        72.000
  23218168.596     7303954.454 7  -1607120.30526        60.000
  20422843.220    -4513963.981 9  -2804933.82429        98.000
  23627886.285   -26245892.314 6  -6069055.15825        40.000
  24174007.323    -1457235.424 7   2224464.02925        44.000
 96  6  6 16 20  0.0000000  0  7G 9G 2G27G26G 7G 4G15
  24310944.783    -4335803.206 6  -3866915.82625        32.000
  21499693.832    -3371293.637 9   1301517.21428       104.000
  21972545.353   -10622310.625 8   6983477.41327        72.000
  23220634.000     7316895.422 7  -1597036.42526        62.000
  20424082.952    -4507457.933 9  -2799864.18129        98.000
  23618629.413   -26294577.637 7  -6106991.73925        44.000
  24179938.687    -1426077.992 7   2248742.54925        42.000
 96  6  6 16 20 15.0000000  0  7G 9G 2G27G26G 7G 4G15
  24302130.255    -4382089.461 6  -3902983.01825        30.000
  21502013.296    -3359096.634 9   1311021.36728       104.000
  21981442.564   -10575540.043 8   7019922.00127        72.000
  23223116.641     7329955.709 7  -1586859.60026        60.000
  20425340.851    -4500833.212 9  -2794702.05629        98.000
  23609370.173   -26343244.690 7  -6144914.09425        44.000
  24185889.087    -1394792.128 7   2273121.13725        44.000
 96  6  6 16 20 30.0000000  0  7G 9G 2G27G26G 7G 4G15
  24293344.478    -4428352.948 6  -3939032.46225        32.000
  21504347.390    -3346857.187 9   1320558.59828       106.000
  21990359.771   -10528676.223 8   7056439.24727        72.000
  23225623.985     7343135.738 7  -1576589.47026        60.000
  20426626.091    -4494092.109 9  -2789449.24229       100.000
  23600107.276   -26391895.180 7  -6182823.53725        42.000
  24191868.418    -1363381.083 7   2297597.28025        42.000
 96  6  6 16 20 45.0000000  0  7G 9G 2G27G26G 7G 4G15
  24284535.826    -4474595.196 6  -3975065.40425        30.000
  21506682.174    -3334574.692 9   1330129.37428       106.000
  21999292.597   -10481718.928 8   7093029.31827        70.000
  23228154.413     7356437.571 7  -1566224.43226        58.000
  20427928.749    -4487236.044 9  -2784106.85429       100.000
  23590849.715   -26440526.359 7  -6220717.93925        42.000
  24197869.993    -1331844.560 7   2322171.20225        42.000
 96  6  6 16 21  0.0000000  0  7G 9G 2G27G26G 7G 4G15
  24275729.692    -4520817.145 6  -4011082.46925        28.000
  21509026.161    -3322251.026 9   1339732.21528       108.000
  22008251.714   -10434666.329 8   7129693.65327        70.000
  23230708.975     7369861.250 7  -1555764.44526        60.000
  20429256.440    -4480268.577 9  -2778677.67729       102.000
  23581606.543   -26489134.323 7  -6258594.28225        44.000
  24203890.245    -1300182.566 6   2346842.81824        38.000
 96  6  6 16 21 15.0000000  0  7G 9G 2G27G26G 7G 4G15
  24266945.473    -4567014.627 6  -4047080.47525        30.000
  21511378.662    -3309888.334 9   1349365.49128       108.000
  22017222.974   -10387514.640 8   7166435.22427        70.000
  23233285.691     7383406.579 7  -1545209.65126        60.000
  20430600.410    -4473189.169 9  -2773161.24229       100.000
  23572363.522   -26537715.632 7  -6296449.79125        44.000
  24209937.089    -1268394.021 6   2371613.10524        38.000
 96  6  6 16 21 30.0000000  0  7G 9G 2G27G26G 7G 4G15
  24258160.385    -4613188.670 6  -4083060.21525        32.000
  21513741.327    -3297487.983 9   1359028.08428       108.000
  22026212.311   -10340264.917 8   7203253.16527        68.000
  23235887.560     7397067.432 7  -1534564.83726        58.000
  20431969.802    -4466001.745 9  -2767560.65329       100.000
  23563109.649   -26586270.510 6  -6334284.74925        40.000
  24216017.510    -1236482.099 6   2396479.55324        40.000
 96  6  6 16 21 45.0000000  0  7G 9G 2G27G26G 7G 4G15
  24249382.942    -4659338.168 6  -4119020.79025        30.000
  21516104.681    -3285049.868 9   1368720.12628       106.000
  22035225.811   -10292916.204 8   7240148.23527        68.000
  23238507.506     7410841.707 7  -1523831.66326        56.000
  20433359.250    -4458709.807 9  -2761878.61829       100.000
  23553891.150   -26634800.913 7  -6372100.61925        46.000
  24222112.021    -1204447.920 6   2421441.22224        40.000
 96  6  6 16 22  0.0000000  0  7G 9G 2G27G26G 7G 4G15
  24240607.477    -4705458.678 6  -4154958.83525        32.000
  21518477.568    -3272570.915 9   1378443.96928       104.000
  22044252.292   -10245467.539 8   7277121.19827        68.000
  23241151.256     7424731.075 7  -1513008.80826        58.000
  20434766.655    -4451311.193 9  -2756113.46729        98.000
  23544656.643   -26683301.606 6  -6409893.34025        40.000
  24228230.995    -1172288.797 6   2446500.27324        36.000
 96  6  6 16 22 15.0000000  0  7G 9G 2G27G26G 7G 4G15
  24231831.862    -4751550.917 6  -4190874.84025        32.000
  21520866.194    -3260050.508 9   1388200.12228       106.000
  22053298.919   -10197923.481 8   7314168.50127        68.000
  23243813.743     7438735.923 7  -1502095.94426        58.000
  20436193.398    -4443808.958 9  -2750267.56629       100.000
  23535430.081   -26731769.837 7  -6447660.77825        42.000
  24234371.464    -1140005.338 6   2471656.24824        34.000
 96  6  6 16 22 30.0000000  0  7G 9G 2G27G26G 7G 4G15
  24223063.082    -4797614.045 6  -4226768.20525        34.000
  21523255.930    -3247485.940 9   1397990.70328       106.000
  22062368.030   -10150285.802 8   7351288.75227        68.000
  23246505.879     7452857.478 7  -1491092.14426        60.000
  20437639.866    -4436206.040 9  -2744343.22229        98.000
  23526220.936   -26780202.679 7  -6485400.63925        44.000
  24240544.011    -1107597.718 6   2496908.88924        34.000
 96  6  6 16 22 45.0000000  0  7G 9G 2G27G26G 7G 4G15
  24214304.496    -4843649.645 6  -4262640.07125        36.000
  21525650.762    -3234878.636 9   1407814.58028       106.000
  22071450.543   -10102557.762 8   7388479.40227        68.000
  23249209.287     7467090.792 7  -1480001.25426        56.000
  20439105.012    -4428509.206 9  -2738345.68629        98.000
  23517007.175   -26828601.507 7  -6523113.96325        44.000
  24246734.425    -1075069.842 6   2522255.28023        32.000
 96  6  6 16 23  0.0000000  0  7G 9G 2G27G26G 7G 4G15
  24205554.184    -4889653.363 6  -4298487.11125        36.000
  21528058.635    -3222222.012 9   1417676.87728       106.000
  22080552.002   -10054733.331 8   7425745.17027        68.000
  23251940.187     7481437.088 7  -1468822.33426        56.000
  20440590.634    -4420713.604 9  -2732271.18829        98.000
  23507798.660   -26876963.267 6  -6560798.41325        38.000
  24252946.455    -1042417.128 6   2547698.99123        30.000
 96  6  6 16 23 15.0000000  0  7G 9G 2G27G26G 7G 4G15
  24196806.749    -4935624.694 6  -4334308.91825        38.000
  21530478.470    -3209516.499 9   1427577.26828       106.000
  22089665.543   -10006813.827 8   7463085.02727        66.000
  23254690.992     7495893.047 7  -1457557.96826        56.000
  20442092.834    -4412817.101 9  -2726118.07129        98.000
  23498604.445   -26925289.407 7  -6598455.11225        42.000
  24259187.804    -1009639.585 6   2573239.84323        32.000
 96  6  6 16 23 30.0000000  0  7G 9G 2G27G26G 7G 4G15
  24188059.585    -4981564.663 6  -4370106.25825        40.000
  21532905.740    -3196763.716 9   1437514.49328       106.000
  22098799.799    -9958804.991 8   7500494.47127        66.000
  23257461.704     7510456.135 7  -1446210.14826        56.000
  20443612.032    -4404818.727 9  -2719885.57629       100.000
  23489413.018   -26973585.105 7  -6636088.12225        44.000
  24265442.853     -976740.715 6   2598875.32723        32.000
 96  6  6 16 23 45.0000000  0  7G 9G 2G27G26G 7G 4G15
  24179325.371    -5027471.636 6  -4405877.86225        40.000
  21535342.423    -3183961.300 9   1447490.40428       106.000
  22107954.052    -9910708.410 8   7537972.31226        68.000
  23260258.678     7525128.950 7  -1434776.80426        56.000
  20445153.984    -4396717.788 9  -2713573.15529       100.000
  23480234.152   -27021849.339 7  -6673696.61525        42.000
  24271715.051     -943719.024 6   2624606.53023        26.000
 96  6  6 16 24  0.0000000  0  7G 9G 2G27G26G 7G 4G15
  24170591.608    -5073349.997 6  -4441627.24225        38.000
  21537786.121    -3171113.262 9   1457501.85228       104.000
  22117119.397    -9862530.475 8   7575513.54226        66.000
  23263069.772     7539911.476 7  -1423257.95826        56.000
  20446715.873    -4388515.113 9  -2707181.45529       100.000
  23471056.246   -27070086.028 7  -6711283.63825        44.000
  24278042.321     -910577.460 6   2650431.13723        32.000
 96  6  6 16 24 15.0000000  0  7G 9G 2G27G26G 7G 4G15
  24161870.945    -5119198.914 6  -4477353.66225        40.000
  21540240.762    -3158216.408 9   1467551.34728       102.000
  22126309.445    -9814268.528 8   7613120.24026        68.000
  23265906.228     7554808.012 7  -1411650.27726        56.000
  20448293.351    -4380207.509 9  -2700707.99829        98.000
  23461876.931   -27118291.929 7  -6748846.61225        44.000
  24284367.102     -877313.629 6   2676350.98123        28.000
 96  6  6 16 24 30.0000000  0  7G 9G 2G27G26G 7G 4G15
  24153146.175    -5165020.282 6  -4513058.61225        38.000
  21542706.165    -3145274.024 9   1477636.32928       102.000
  22135503.060    -9765919.134 8   7650795.06626        64.000
  23268760.552     7569818.766 7  -1399953.59826        54.000
  20449897.720    -4371798.598 9  -2694155.59829       100.000
  23452714.164   -27166471.294 7  -6786388.98225        44.000
  24290717.126     -843929.406 6   2702364.63323        24.000
 96  6  6 16 24 45.0000000  0  7G 9G 2G27G26G 7G 4G15
  24144439.632    -5210809.510 6  -4548738.54525        38.000
  21545176.784    -3132285.887 9   1487756.94028       102.000
  22144726.295    -9717479.515 8   7688540.18926        66.000
  23271637.720     7584942.577 7  -1388168.81626        54.000
  20451517.079    -4363287.951 9  -2687523.93629       100.000
  23443545.221   -27214626.829 7  -6823912.75225        42.000
  24297096.860     -810423.577 6   2728473.03723        28.000
 96  6  6 16 25  0.0000000  0  7G 9G 2G27G26G 7G 4G15
  24135730.212    -5256569.288 6  -4584395.46025        40.000
  21547656.668    -3119257.163 9   1497909.18328       104.000
  22153961.432    -9668953.296 8   7726352.82026        66.000
  23274534.255     7600173.717 7  -1376300.42926        56.000
  20453155.085    -4354679.883 9  -2680816.34029       100.000
  23434382.305   -27262764.875 7  -6861422.89125        42.000
  24303489.574     -776799.291 6   2754673.75423        26.000
 96  6  6 16 25 15.0000000  0  7G 9G 2G27G26G 7G 4G15
  24127027.446    -5302296.741 6  -4620027.20625        40.000
  21550140.478    -3106188.154 9   1508092.83428       104.000
  22163211.948    -9620342.961 8   7764230.97726        66.000
  23277455.523     7615514.188 7  -1364346.83126        54.000
  20454813.507    -4345973.181 9  -2674031.88929       100.000
  23425232.549   -27310882.648 7  -6898917.24325        46.000
  24309905.283     -743055.410 6   2780967.69523        24.000
 96  6  6 16 25 30.0000000  0  7G 9G 2G27G26G 7G 4G15
  24118332.266    -5347991.519 7  -4655633.51625        42.000
  21552633.462    -3093080.059 9   1518306.92528       100.000
  22172470.528    -9571652.043 8   7802171.93426        66.000
  23280394.178     7630966.216 7  -1352306.31026        56.000
  20456484.041    -4337170.884 9  -2667172.96529       102.000
  23416068.223   -27358981.127 7  -6936396.54725        42.000
  24316356.727     -709194.592 6   2807352.69323        28.000
 96  6  6 16 25 45.0000000  0  7G 9G 2G27G26G 7G 4G15
  24109640.563    -5393644.305 6  -4691207.04525        40.000
  21555138.678    -3079924.064 9   1528558.33528       100.000
  22181758.638    -9522873.722 8   7840180.97926        68.000
  23283361.644     7646540.428 7  -1340170.57226        54.000
  20458179.247    -4328268.429 9  -2660235.98829       102.000
  23406929.890   -27407050.284 7  -6973853.01625        44.000
  24322814.886     -675208.653 6   2833835.26524        28.000
 96  6  6 16 26  0.0000000  0  7G 9G 2G27G26G 7G 4G15
  24100968.347    -5439262.892 7  -4726754.01725        44.000
  21557652.408    -3066728.543 9   1538840.56128       102.000
  22191058.200    -9474014.013 8   7878253.46726        68.000
  23286346.947     7662229.423 7  -1327945.39526        54.000
  20459891.932    -4319275.653 9  -2653228.62629       102.000
  23397787.898   -27455097.268 7  -7011292.14925        44.000
  24329308.570     -641104.566 6   2860409.87224        30.000
 96  6  6 16 26 15.0000000  0  7G 9G 2G27G26G 7G 4G15
  24092287.107    -5484846.772 7  -4762273.90325        42.000
  21560169.315    -3053493.062 9   1549153.92128       102.000
  22200372.992    -9425069.029 8   7916392.40326        70.000
  23289353.686     7678033.036 7  -1315630.92226        52.000
  20461619.186    -4310193.607 9  -2646151.70629       102.000
  23388645.128   -27503122.413 7  -7048714.34925        44.000
  24335823.960     -606882.765 6   2887076.16324        30.000
 96  6  6 16 26 30.0000000  0  7G 9G 2G27G26G 7G 4G15
  24083618.968    -5530396.815 7  -4797767.44625        42.000
  21562696.326    -3040216.188 9   1559499.53528       102.000
  22209700.224    -9376036.806 8   7954599.30926        68.000
  23292378.142     7693949.533 7  -1303228.47726        54.000
  20463363.288    -4301023.651 9  -2639006.28329       104.000
  23379513.360   -27551124.384 7  -7086118.45825        46.000
  24342357.936     -572543.602 6   2913833.95624        28.000
 96  6  6 16 26 45.0000000  0  7G 9G 2G27G26G 7G 4G15
  24074957.694    -5575911.848 7  -4833233.65025        42.000
  21565229.123    -3026896.108 9   1569878.81228       102.000
  22219045.205    -9326917.874 8   7992873.78026        68.000
  23295433.237     7709976.298 7  -1290740.08926        52.000
  20465126.548    -4291762.761 9  -2631790.00229       102.000
  23370391.515   -27599101.294 7  -7123503.03125        48.000
  24348908.521     -538085.722 6   2940684.20824        26.000
 96  6  6 16 27  0.0000000  0  7G 9G 2G27G26G 7G 4G15
  24066308.112    -5621395.898 7  -4868675.75525        44.000
  21567770.073    -3013530.324 9   1580293.70028        98.000
  22228410.482    -9277715.664 8   8031213.13726        68.000
  23298502.512     7726113.820 7  -1278165.41825        52.000
  20466908.664    -4282407.040 9  -2624499.83829       104.000
  23361256.359   -27647049.608 7  -7160865.32125        48.000
  24355502.067     -503508.963 6   2967627.14524        30.000
 96  6  6 16 27 15.0000000  0  7G 9G 2G27G26G 7G 4G15
  24057655.022    -5666855.815 7  -4904099.04525        46.000
  21570326.494    -3000119.915 9   1590743.37328        98.000
  22237787.300    -9228430.631 8   8069617.02926        68.000
  23301592.713     7742364.110 7  -1265502.85925        52.000
  20468704.781    -4272955.621 9  -2617135.09429       102.000
  23352140.060   -27694966.846 7  -7198203.39625        48.000
  24362103.737     -468816.033 6   2994660.57925        28.000
 96  6  6 16 27 30.0000000  0  7G 9G 2G27G26G 7G 4G15
  24049013.145    -5712289.338 7  -4939501.75925        44.000
  21572886.451    -2986660.921 9   1601230.87728        98.000
  22247185.704    -9179056.979 8   8108090.00226        70.000
  23304709.056     7758730.746 7  -1252749.63525        52.000
  20470522.842    -4263404.906 9  -2609692.99329       102.000
  23343035.873   -27742848.407 7  -7235513.68925        50.000
  24368720.816     -434004.824 6   3021786.16225        30.000
 96  6  6 16 27 45.0000000  0  7G 9G 2G27G26G 7G 4G15
  24040370.188    -5757700.577 7  -4974887.13625        44.000
  21575459.031    -2973155.625 9   1611754.48428        98.000
  22256592.921    -9129596.077 8   8146630.94726        68.000
  23307845.574     7775210.422 7  -1239908.37125        52.000
  20472357.932    -4253757.649 9  -2602175.62429       102.000
  23333922.062   -27790697.490 7  -7272798.69125        48.000
  24375369.103     -399078.245 6   3049001.65025        32.000
 96  6  6 16 28  0.0000000  0  7G 9G 2G27G26G 7G 4G15
  24031733.887    -5803094.403 7  -5010258.93025        44.000
  21578029.661    -2959608.698 9   1622310.53628        96.000
  22266025.231    -9080048.126 8   8185239.71526        70.000
  23311006.766     7791799.089 7  -1226982.17425        52.000
  20474214.396    -4244012.909 9  -2594582.32229       104.000
  23324827.198   -27838513.067 7  -7310057.57825        50.000
  24382035.018     -364038.631 6   3076305.21025        32.000
 96  6  6 16 28 15.0000000  0  7G 9G 2G27G26G 7G 4G15
  24023100.194    -5848466.138 7  -5045613.49425        42.000
  21580618.429    -2946013.546 9   1632904.14328        96.000
  22275473.461    -9030407.244 8   8223920.89926        70.000
  23314179.020     7808501.409 7  -1213967.39425        52.000
  20476086.270    -4234163.529 9  -2586907.47929       102.000
  23315734.583   -27886290.138 7  -7347286.42225        50.000
  24388729.204     -328881.042 6   3103700.74525        34.000
 96  6  6 16 28 30.0000000  0  7G 9G 2G27G26G 7G 4G15
  24014472.467    -5893819.506 7  -5080953.77925        44.000
  21583215.891    -2932370.058 9   1643535.43228        96.000
  22284928.675    -8980679.058 8   8262670.10226        68.000
  23317375.617     7825314.605 7  -1200866.19825        52.000
  20477983.417    -4224210.185 9  -2579151.63429       106.000
  23306645.055   -27934028.513 7  -7384485.13325        48.000
  24395443.566     -293608.400 6   3131185.88325        36.000
 96  6  6 16 28 45.0000000  0  7G 9G 2G27G26G 7G 4G15
  24005845.489    -5939150.054 7  -5116276.25825        44.000
  21585822.196    -2918675.908 9   1654206.19328        96.000
  22294414.858    -8930863.858 8   8301487.14126        70.000
  23320602.643     7842242.081 7  -1187675.96025        54.000
  20479897.382    -4214151.029 9  -2571313.32529       102.000
  23297574.475   -27981724.787 7  -7421651.06225        50.000
  24402167.311     -258218.499 6   3158762.43925        38.000
 96  6  6 16 29  0.0000000  0  7G 9G 2G27G26G 7G 4G15
  23997228.794    -5984453.966 7  -5151578.00225        44.000
  21588439.804    -2904935.734 9   1664912.81828        98.000
  22303909.615    -8880963.893 8   8340370.20226        68.000
  23323842.020     7859283.048 7  -1174397.32425        54.000
  20481829.455    -4203990.350 9  -2563395.92429       104.000
  23288505.573   -28029380.671 7  -7458785.48625        50.000
  24408927.901     -222713.366 6   3186428.73125        34.000
 96  6  6 16 29 15.0000000  0  7G 9G 2G27G26G 7G 4G15
  23988608.292    -6029725.515 7  -5186854.51225        42.000
  21591062.808    -2891149.541 9   1675655.28628        96.000
  22313420.650    -8830980.850 8   8379318.00026        68.000
  23327102.203     7876438.828 7  -1161029.19325        52.000
  20483780.144    -4193732.457 9  -2555402.76029       104.000
  23279441.918   -28076995.584 7  -7495887.98825        50.000
  24415699.013     -187092.987 6   3214184.86125        36.000
 96  6  6 16 29 30.0000000  0  7G 9G 2G27G26G 7G 4G15
  23979997.443    -6074959.991 7  -5222102.13725        42.000
  21593692.798    -2877321.587 9   1686430.31928        94.000
  22322947.575    -8780917.604 8   8418328.31526        66.000
  23330394.794     7893702.231 7  -1147577.23525        54.000
  20485750.170    -4183381.976 9  -2547337.44829       104.000
  23270386.866   -28124571.385 7  -7532960.04425        48.000
  24422510.628     -151360.009 6   3242028.72925        36.000
 96  6  6 16 29 45.0000000  0  7G 9G 2G27G26G 7G 4G15
  23971400.415    -6120154.706 7  -5257318.76325        46.000
  21596331.001    -2863452.068 9   1697237.74628        94.000
  22332488.620    -8730777.634 8   8457398.40426        66.000
  23333698.926     7911071.041 7  -1134043.08825        52.000
  20487737.734    -4172938.931 9  -2539200.00129       102.000
  23261343.867   -28172109.182 7  -7570002.43325        50.000
  24429332.435     -115514.781 6   3269960.04725        36.000
 96  6  6 16 30  0.0000000  0  7G 9G 2G27G26G 7G 4G15
  23962806.864    -6165307.257 7  -5292502.55025        44.000
  21598981.137    -2849538.818 9   1708079.20728        94.000
  22342048.192    -8680562.097 8   8496527.35626        66.000
  23337022.605     7928548.187 7  -1120424.55725        54.000
  20489744.005    -4162400.629 9  -2530988.35529       102.000
  23252310.730   -28219606.876 7  -7607013.58225        50.000
  24436177.237      -79555.519 6   3297980.24325        38.000
 96  6  6 16 30 15.0000000  0  7G 9G 2G27G26G 7G 4G15
  23954218.799    -6210416.381 7  -5327652.50725        42.000
  21601634.000    -2835581.752 9   1718954.83128        92.000
  22351616.818    -8630270.532 8   8535715.56226        64.000
  23340368.769     7946132.349 7  -1106722.62525        54.000
  20491764.217    -4151768.023 9  -2522703.20829       102.000
  23243276.215   -28267065.602 7  -7643994.40525        50.000
  24443036.458      -43482.641 6   3326088.98625        38.000
 96  6  6 16 30 30.0000000  0  7G 9G 2G27G26G 7G 4G15
  23945637.780    -6255479.133 6  -5362766.32625        40.000
  21604301.253    -2821580.235 9   1729865.10628        92.000
  22361201.572    -8579904.976 8   8574961.42526        64.000
  23343735.168     7963822.200 7  -1092938.33425        54.000
  20493806.433    -4141042.447 9  -2514345.60729       102.000
  23234249.524   -28314488.988 7  -7680947.68025        50.000
  24449919.813       -7296.443 6   3354286.01125        36.000
 96  6  6 16 30 45.0000000  0  7G 9G 2G27G26G 7G 4G15
  23937072.380    -6300494.818 6  -5397843.43125        38.000
  21606971.625    -2807533.991 9   1740810.23628        94.000
  22370799.008    -8529465.341 7   8614265.02426        62.000
  23347123.813     7981617.758 7  -1079071.67825        56.000
  20495867.116    -4130223.683 9  -2505915.39529       102.000
  23225229.578   -28361874.473 7  -7717871.41625        48.000
  24456833.686       29004.032 6   3382572.07125        40.000
 96  6  6 16 31  0.0000000  0  7G 9G 2G27G26G 7G 4G15
  23928516.753    -6345463.897 7  -5432884.29025        42.000
  21609653.928    -2793447.226 9   1751786.91828        94.000
  22380410.144    -8478952.483 7   8653625.67426        62.000
  23350527.866     7999514.527 7  -1065126.17325        54.000
  20497941.980    -4119316.241 9  -2497416.09329       102.000
  23216217.427   -28409226.848 7  -7754769.36025        48.000
  24463759.102       65415.685 6   3410944.75425        40.000
 96  6  6 16 31 15.0000000  0  7G 9G 2G27G26G 7G 4G15
  23919960.496    -6390403.812 6  -5467902.36525        40.000
  21612337.400    -2779333.759 9   1762784.44428        94.000
  22390032.283    -8428383.774 7   8693029.84526        60.000
  23353951.136     8017495.821 7  -1051114.79925        56.000
  20500032.583    -4108333.062 9  -2488857.75929       102.000
  23207216.278   -28456561.348 7  -7791653.35025        50.000
  24470707.002      101923.405 6   3439392.32325        40.000
 96  6  6 16 31 30.0000000  0  7G 9G 2G27G26G 7G 4G15
  23911414.552    -6435305.770 7  -5502890.93525        42.000
  21615034.423    -2765177.625 9   1773815.17528        94.000
  22399668.062    -8377742.775 7   8732490.32526        60.000
  23357386.668     8035576.423 7  -1037026.03225        52.000
  20502139.974    -4097256.724 9  -2480226.85229       102.000
  23198213.361   -28503863.102 7  -7828511.84126        50.000
  24477687.370      138540.761 6   3467925.30825        38.000
 96  6  6 16 31 45.0000000  0  7G 9G 2G27G26G 7G 4G15
  23902883.298    -6480168.053 7  -5537848.52525        42.000
  21617736.482    -2750971.472 9   1784884.89128        94.000
  22409317.063    -8327019.686 7   8772014.76726        58.000
  23360854.487     8053765.600 7  -1022852.65625        56.000
  20504268.260    -4086079.057 9  -2471516.98529       102.000
  23189219.617   -28551125.140 7  -7865339.37926        52.000
  24484668.637      175273.749 6   3496548.38525        36.000
 96  6  6 16 32  0.0000000  0  7G 9G 2G27G26G 7G 4G15
  23894354.083    -6524998.115 7  -5572781.02025        42.000
  21620451.283    -2736717.457 9   1795991.91628        96.000
  22418989.656    -8276218.486 7   8811600.11326        60.000
  23364334.028     8072063.228 7  -1008594.77925        56.000
  20506410.937    -4074806.089 9  -2462732.86629       102.000
  23180235.287   -28598354.725 7  -7902141.63326        52.000
  24491680.303      212118.138 7   3525258.30225        42.000
 96  6  6 16 32 15.0000000  0  7G 9G 2G27G26G 7G 4G15
  23885833.142    -6569794.324 7  -5607687.10825        44.000
  21623169.501    -2722413.329 9   1807137.99928        96.000
  22428674.272    -8225333.360 7   8851250.84026        60.000
  23367838.392     8090471.371 7   -994250.80925        56.000
  20508573.430    -4063437.193 9  -2453873.97029       102.000
  23171246.100   -28645546.476 7  -7938914.38526        50.000
  24498707.558      249076.631 6   3554057.12725        36.000
 96  6  6 16 32 30.0000000  0  7G 9G 2G27G26G 7G 4G15
  23877310.792    -6614555.720 7  -5642566.13425        44.000
  21625901.690    -2708058.453 9   1818323.59528        92.000
  22438373.158    -8174365.227 7   8890966.23926        60.000
  23371364.581     8108990.494 7   -979820.34725        56.000
  20510758.168    -4051973.046 9  -2444940.87229       102.000
  23162283.445   -28692697.753 7  -7975655.64826        52.000
  24505761.075      286149.646 6   3582945.14125        32.000
 96  6  6 16 32 45.0000000  0  7G 9G 2G27G26G 7G 4G15
  23868801.423    -6659286.918 7  -5677421.60225        46.000
  21628643.352    -2693657.709 9   1829544.96928        92.000
  22448086.853    -8123318.838 7   8930742.62326        58.000
  23374905.729     8127617.407 7   -965305.87525        54.000
  20512955.406    -4040418.401 9  -2435937.24629       100.000
  23153314.014   -28739809.911 7  -8012366.40226        52.000
  24512832.729      323332.209 6   3611918.56625        32.000
 96  6  6 16 33  0.0000000  0  7G 9G 2G27G26G 7G 4G15
  23860297.210    -6703986.390 7  -5712252.38425        46.000
  21631390.320    -2679211.753 9   1840801.54328        94.000
  22457815.268    -8072192.011 7   8970581.68426        58.000
  23378470.142     8146353.808 7   -950706.10625        54.000
  20515174.230    -4028775.285 9  -2426864.69129       102.000
  23144356.755   -28786878.757 7  -8049043.41826        54.000
  24519933.014      360624.252 6   3640977.26425        34.000
 96  6  6 16 33 15.0000000  0  7G 9G 2G27G26G 7G 4G15
  23851795.396    -6748645.500 7  -5747051.63825        46.000
  21634150.329    -2664718.231 9   1852095.18328        96.000
  22467557.504    -8020978.460 7   9010488.32826        58.000
  23382060.157     8165205.286 7   -936016.65825        56.000
  20517406.635    -4017037.238 9  -2417718.15829       100.000
  23135410.798   -28833898.213 7  -8085681.91326        54.000
  24527050.746      398030.387 6   3670124.89225        32.000
 96  6  6 16 33 30.0000000  0  7G 9G 2G27G26G 7G 4G15
  23843307.342    -6793266.906 7  -5781821.53825        46.000
  21636915.075    -2650178.411 9   1863424.90628        94.000
  22477323.962    -7969678.963 7   9050461.91726        58.000
  23385670.018     8184170.435 7   -921238.62825        56.000
  20519657.806    -4005204.550 9  -2408497.88929       102.000
  23126466.370   -28880867.926 7  -8122281.67526        52.000
  24534191.413      435549.016 6   3699360.12725        34.000
 96  6  6 16 33 45.0000000  0  7G 9G 2G27G26G 7G 4G15
  23834824.894    -6837850.871 7  -5816562.29325        46.000
  21639692.623    -2635593.834 9   1874789.51728        96.000
  22487099.865    -7918291.896 7   9090503.76526        56.000
  23389301.943     8203248.338 7   -906372.77325        56.000
  20521926.246    -3993278.384 9  -2399204.76529       102.000
  23117545.416   -28927787.067 7  -8158842.02526        50.000
  24541349.647      473179.280 6   3728682.42225        34.000
 96  6  6 16 34  0.0000000  0  7G 9G 2G27G26G 7G 4G15
  23826350.631    -6882398.086 7  -5851274.39525        46.000
  21642475.476    -2620968.792 9   1886185.64528        96.000
  22496893.515    -7866824.777 7   9130608.00926        56.000
  23392949.518     8222432.452 7   -891424.12325        54.000
  20524213.513    -3981263.998 9  -2389842.90129       102.000
  23108625.781   -28974660.343 7  -8195366.64626        54.000
  24548529.107      510917.082 6   3758088.50625        30.000
 96  6  6 16 34 15.0000000  0  7G 9G 2G27G26G 7G 4G15
  23817876.097    -6926903.197 7  -5885953.67025        46.000
  21645266.634    -2606303.735 9   1897612.96028        96.000
  22506706.741    -7815278.438 7   9170773.96326        58.000
  23396620.207     8241720.823 7   -876394.22525        56.000
  20526515.889    -3969159.987 9  -2380411.20529       104.000
  23099710.103   -29021484.904 7  -8231853.29926        52.000
  24555728.143      548763.796 6   3787579.41525        30.000
 96  6  6 16 34 30.0000000  0  7G 9G 2G27G26G 7G 4G15
  23809414.575    -6971362.002 7  -5920596.91625        48.000
  21648064.087    -2591597.998 9   1909071.97828        96.000
  22516528.392    -7763651.423 7   9211002.78926        58.000
  23400306.845     8261111.916 7   -861284.29425        56.000
  20528835.533    -3956961.980 9  -2370906.27529       104.000
  23090812.173   -29068257.150 7  -8268299.16226        50.000
  24562958.748      586720.614 6   3817156.15525        30.000
 96  6  6 16 34 45.0000000  0  7G 9G 2G27G26G 7G 4G15
  23800967.083    -7015763.653 7  -5955195.59325        46.000
  21650871.703    -2576842.420 9   1920569.82528       100.000
  22526365.841    -7711937.096 7   9251299.63226        58.000
  23404026.160     8280612.430 7   -846089.11425        54.000
  20531179.340    -3944661.901 9  -2361321.79629       102.000
  23081923.747   -29114972.361 7  -8304700.62126        52.000
  24570211.956      624794.971 6   3846824.43825        28.000
 96  6  6 16 35  0.0000000  0  7G 9G 2G27G26G 7G 4G15
  23792529.604    -7060098.632 7  -5989742.30325        46.000
  21653693.500    -2562024.650 9   1932116.12228       100.000
  22536231.172    -7660123.867 7   9291673.55026        58.000
  23407751.891     8300230.882 7   -830802.04425        56.000
  20533538.347    -3932249.972 9  -2351650.17629       104.000
  23073045.933   -29161621.833 7  -8341050.81726        54.000
  24577482.463      662997.227 6   3876592.41225        24.000
 96  6  6 16 35 15.0000000  0  7G 9G 2G27G26G 7G 4G15
  23784104.147    -7104384.844 7  -6024251.00525        46.000
  21656522.342    -2547160.068 9   1943698.90928       100.000
  22546101.988    -7608230.405 7   9332109.99326        56.000
  23411504.063     8319949.769 7   -815436.69925        56.000
  20535921.637    -3919741.420 9  -2341903.24829       104.000
  23064174.744   -29208227.188 7  -8377366.66826        54.000
  24584762.413      701309.579 6   3906446.20125        22.000
 96  6  6 16 35 30.0000000  0  7G 9G 2G27G26G 7G 4G15
  23775682.587    -7148624.317 7  -6058723.32225        46.000
  21659359.937    -2532243.920 9   1955321.87328        98.000
  22555994.090    -7556257.137 7   9372608.59826        56.000
  23415276.831     8339769.494 7   -799992.78025        56.000
  20538317.788    -3907133.705 9  -2332079.06429       104.000
  23055313.179   -29254790.526 7  -8413649.78526        54.000
  24592072.133      739732.981 6   3936386.44725        24.000
 96  6  6 16 35 45.0000000  0  7G 9G 2G27G26G 7G 4G15
  23767272.869    -7192818.402 7  -6093160.26725        46.000
  21662205.957    -2517273.440 9   1966987.17628        98.000
  22565892.338    -7504206.605 7   9413167.44726        54.000
  23419067.857     8359690.275 7   -784470.09825        56.000
  20540740.201    -3894428.287 9  -2322178.74029       104.000
  23046462.676   -29301313.164 7  -8449901.20126        56.000
  24599405.236      778266.763 6   3966412.80025        22.000
 96  6  6 16 36  0.0000000  0  7G 9G 2G27G26G 7G 4G15
  23758872.475    -7236966.835 7  -6127561.61125        46.000
  21665064.148    -2502249.627 9   1978694.03728        96.000
  22575815.438    -7452082.460 7   9453783.64726        56.000
  23422877.050     8379711.840 7   -768868.89125        54.000
  20543174.007    -3881626.740 9  -2312203.50329       106.000
  23037613.582   -29347795.811 7  -8486121.40126        52.000
  24606753.899      816909.734 5   3996524.17225        20.000
 96  6  6 16 36 15.0000000  0  7G 9G 2G27G26G 7G 4G15
  23750478.136    -7281067.585 7  -6161925.78425        46.000
  21667935.350    -2487171.749 9   1990443.03928        98.000
  22585744.984    -7399884.884 7   9494457.06226        54.000
  23426705.729     8399834.101 7   -753189.20225        56.000
  20545631.106    -3868729.935 9  -2302154.04329       106.000
  23028786.883   -29394238.934 7  -8522310.82726        54.000
  24614151.547      855661.963 5   4026720.62824        20.000
 96  6  6 16 36 30.0000000  0  7G 9G 2G27G26G 7G 4G15
  23742094.980    -7325123.692 7  -6196255.21925        48.000
  21670816.716    -2472040.047 9   2002233.97228        98.000
  22595702.591    -7347612.363 7   9535188.86826        56.000
  23430553.805     8420056.693 7   -737431.38225        56.000
  20548100.106    -3855736.617 9  -2292029.38329       104.000
  23019947.802   -29440642.602 7  -8558469.51626        56.000
  24621526.172      894522.739 5   4057001.71424        20.000
 96  6  6 16 36 45.0000000  0  7G 9G 2G27G26G 7G 4G15
  23733715.511    -7369135.540 7  -6230550.14925        46.000
  21673705.606    -2456851.044 9   2014069.54628       100.000
  22605660.167    -7295260.684 7   9575982.35526        54.000
  23434425.145     8440383.517 7   -721592.32025        54.000
  20550591.861    -3842646.451 9  -2281829.24129       106.000
  23011129.796   -29487004.926 7  -8594595.95026        56.000
  24628950.412      933494.025 6   4087369.02824        24.000
 96  6  6 16 37  0.0000000  0  7G 9G 2G27G26G 7G 4G15
  23725350.372    -7413109.199 7  -6264815.32425        48.000
  21676607.237    -2441609.109 9   2025946.37227        98.000
  22615637.560    -7242835.142 7   9616833.38526        56.000
  23438309.406     8460812.655 7   -705673.54025        56.000
  20553096.567    -3829466.255 9  -2271558.96529       104.000
  23002313.620   -29533329.648 7  -8630693.12726        56.000
  24636377.920      972571.752 5   4117819.15223        20.000
 96  6  6 16 37 15.0000000  0  7G 9G 2G27G26G 7G 4G15
  23716989.670    -7457046.023 7  -6299051.77925        46.000
  21679516.423    -2426317.438 9   2037861.95427        98.000
  22625626.315    -7190335.072 7   9657742.51326        54.000
  23442216.571     8481343.734 7   -689675.30625        56.000
  20555624.237    -3816196.088 9  -2261218.58929       104.000
  22993504.338   -29579614.731 7  -8666759.41326        56.000
  24643838.526     1011754.982 6   4148351.52423        22.000
 96  6  6 16 37 30.0000000  0  7G 9G 2G27G26G 7G 4G15
  23708635.173    -7500944.411 7  -6333258.29625        48.000
  21682434.963    -2410978.650 9   2049814.25427        98.000
  22635633.027    -7137759.188 7   9698710.73226        54.000
  23446141.904     8501977.188 7   -673597.30825        54.000
  20558166.028    -3802835.429 9  -2250807.67429       100.000
  22984702.282   -29625856.411 7  -8702791.86626        54.000
  24651314.390     1051043.578 6   4178966.02623        22.000
 96  6  6 16 37 45.0000000  0  7G 9G 2G27G26G 7G 4G15
  23700294.348    -7544798.782 7  -6367430.52425        50.000
  21685359.738    -2395588.931 9   2061806.23627        96.000
  22645648.434    -7085105.655 7   9739739.43726        54.000
  23450089.361     8522715.138 7   -657437.89525        54.000
  20560729.103    -3789384.360 9  -2240326.32529       102.000
  22975917.583   -29672045.448 7  -8738783.30226        54.000
  24658819.934     1090440.948 6   4209665.22522        28.000
 96  6  6 16 38  0.0000000  0  7G 9G 2G27G26G 7G 4G15
  23691959.158    -7588609.378 7  -6401568.65025        52.000
  21688300.372    -2380149.023 9   2073837.33227        96.000
  22655686.894    -7032373.823 7   9780829.13026        56.000
  23454061.011     8543556.139 7   -641198.17525        54.000
  20563303.841    -3775844.139 9  -2229775.50629       100.000
  22967134.414   -29718179.537 7  -8774731.92326        52.000
  24666330.485     1129946.035 6   4240448.32722        26.000
 96  6  6 16 38 15.0000000  0  6G 9G 2G27G26G 7G 4
  23683622.200    -7632379.911 7  -6435675.52325        50.000
  21691250.630    -2364663.035 9   2085904.33927       100.000
  22665736.657    -6979565.460 7   9821978.45726        54.000
  23458038.688     8564495.811 7   -624881.59825        52.000
  20565896.386    -3762219.968 9  -2219159.27729       102.000
  22958368.722   -29764259.204 7  -8810638.13926        54.000
 96  6  6 16 38 30.0000000  0  6G 9G 2G27G26G 7G 4
  23675307.276    -7676110.438 7  -6469751.23925        52.000
  21694204.065    -2349131.260 9   2098006.99527        98.000
  22675797.902    -6926681.519 7   9863186.72026        56.000
  23462041.816     8585535.248 7   -608487.23525        54.000
  20568502.692    -3748512.888 9  -2208478.43129       100.000
  22949610.165   -29810283.934 7  -8846501.52526        54.000
 96  6  6 16 38 45.0000000  0  6G 9G 2G27G26G 7G 4
  23666997.958    -7719795.889 7  -6503791.82725        52.000
  21697168.143    -2333549.668 9   2110148.48327        96.000
  22685877.914    -6873720.037 7   9904455.38826        52.000
  23466069.558     8606679.263 7   -592011.39925        52.000
  20571129.623    -3734720.424 9  -2197731.05729       100.000
  22940862.431   -29856247.019 7  -8882316.89626        54.000
 96  6  6 16 39  0.0000000  0  6G 9G 2G27G26G 7G 4
  23658688.311    -7763434.754 7  -6537796.11025        50.000
  21700142.594    -2317919.445 9   2122327.89027        98.000
  22695966.589    -6820687.890 7   9945779.10826        54.000
  23470105.964     8627926.665 7   -575454.97025        50.000
  20573769.086    -3720846.619 9  -2186920.29829       102.000
  22932126.569   -29902149.802 7  -8918085.26426        54.000
 96  6  6 16 39 15.0000000  0  6G 9G 2G27G26G 7G 4
  23650396.531    -7807025.729 7  -6571763.10625        52.000
  21703128.377    -2302240.902 9   2134544.90827        98.000
  22706074.602    -6767586.109 7   9987157.09626        54.000
  23474174.897     8649276.164 7   -558819.02825        52.000
  20576423.418    -3706888.209 9  -2176043.62029        98.000
  22923405.666   -29947991.153 7  -8953805.79426        54.000
 96  6  6 16 39 30.0000000  0  6G 9G 2G27G26G 7G 4
  23642108.859    -7850564.325 7  -6605689.26425        54.000
  21706121.055    -2286509.322 9   2146803.30327        98.000
  22716193.796    -6714411.688 7  10028591.70026        54.000
  23478259.209     8670729.020 7   -542102.54725        52.000
  20579097.777    -3692841.789 9  -2165098.35729        98.000
  22914692.319   -29993768.672 7  -8989476.56426        56.000
 96  6  6 16 39 45.0000000  0  6G 9G 2G27G26G 7G 4
  23633834.797    -7894054.444 7  -6639577.62225        54.000
  21709124.946    -2270725.979 9   2159102.00627        98.000
  22726321.895    -6661172.427 7  10070076.82426        54.000
  23482353.385     8692281.487 7   -525308.44125        52.000
  20581789.614    -3678711.214 9  -2154087.51429       100.000
  22905994.980   -30039485.977 7  -9025100.39326        58.000
 96  6  6 16 40  0.0000000  0  6G 9G 2G27G26G 7G 4
  23625564.302    -7937496.449 7  -6673428.53926        52.000
  21712137.710    -2254891.605 9   2171440.45527        96.000
  22736468.071    -6607868.449 7  10111612.32226        54.000
  23486473.493     8713932.086 7   -508437.87125        50.000
  20584490.834    -3664495.721 9  -2143010.52529       100.000
  22897302.317   -30085145.384 7  -9060679.12926        56.000
 96  6  6 16 40 15.0000000  0  6G 9G 2G27G26G 7G 4
  23617309.607    -7980889.310 7  -6707241.13226        56.000
  21715159.438    -2239008.108 9   2183817.19727        98.000
  22746625.849    -6554496.500 7  10153200.84326        54.000
  23490614.136     8735682.059 7   -491489.84225        50.000
  20587214.478    -3650192.569 9  -2131865.20529       100.000
  22888624.015   -30130749.537 7  -9096214.79426        56.000
 96  6  6 16 40 30.0000000  0  6G 9G 2G27G26G 7G 4
  23609058.149    -8024231.962 7  -6741014.60126        52.000
  21718189.770    -2223081.392 9   2196227.62627        98.000
  22756792.500    -6501060.995 7  10194838.85426        56.000
  23494778.253     8757529.300 7   -474466.06525        54.000
  20589951.583    -3635804.025 9  -2120653.34929       100.000
  22879957.375   -30176302.825 7  -9131710.83526        58.000
 96  6  6 16 40 45.0000000  0  6G 9G 2G27G26G 7G 4
  23600821.561    -8067527.904 7  -6774751.69126        54.000
  21721230.205    -2207115.082 9   2208668.90627        98.000
  22766972.823    -6447566.743 7  10236522.67926        56.000
  23498948.726     8779467.939 7   -457371.00625        50.000
  20592703.528    -3621334.427 9  -2109378.34029       100.000
  22871297.180   -30221812.043 7  -9167172.55826        58.000
 96  6  6 16 41  0.0000000  0  6G 9G 2G27G26G 7G 4
  23592592.648    -8110766.188 7  -6808443.86226        54.000
  21724273.998    -2191095.599 9   2221151.60627        96.000
  22777165.107    -6393998.788 7  10278263.90126        54.000
  23503146.780     8801508.307 7   -440196.76225        52.000
  20595476.458    -3606770.695 9  -2098029.97829       100.000
  22862649.727   -30267267.455 7  -9202592.34526        58.000
 96  6  6 16 41 15.0000000  0  6G 9G 2G27G26G 7G 4
  23584373.568    -8153949.432 7  -6842093.13425        52.000
  21727333.950    -2175023.916 9   2233674.99527        96.000
  22787372.081    -6340354.614 7  10320064.53826        54.000
  23507355.027     8823649.393 7   -422943.98725        50.000
  20598266.897    -3592112.296 9  -2086607.84629       100.000
  22854006.411   -30312671.835 7  -9237972.34626        60.000
 96  6  6 16 41 30.0000000  0  6G 9G 2G27G26G 7G 4
  23576168.038    -8197083.655 7  -6875704.18625        52.000
  21730401.966    -2158905.812 9   2246234.55227       100.000
  22797598.571    -6286637.391 7  10361922.05726        52.000
  23511582.550     8845884.773 7   -405617.72025        50.000
  20601072.175    -3577365.046 9  -2075116.49329       100.000
  22845377.664   -30358033.488 7  -9273319.08326        58.000
 96  6  6 16 41 45.0000000  0  6G 9G 2G27G26G 7G 4
  23567975.250    -8240167.475 7  -6909275.96925        54.000
  21733476.937    -2142740.454 9   2258830.92827        96.000
  22807824.761    -6232844.932 7  10403838.22926        52.000
  23515836.125     8868216.725 7   -388216.23325        54.000
  20603895.890    -3562528.150 9  -2063555.26529       102.000
  22836750.836   -30403348.890 7  -9308629.73726        58.000
 96  6  6 16 42  0.0000000  0  6G 9G 2G27G26G 7G 4
  23559779.974    -8283198.144 7  -6942806.35425        50.000
  21736565.699    -2126527.705 9   2271464.22327        96.000
  22818080.542    -6178975.899 7  10445814.07426        54.000
  23520104.151     8890647.205 7   -370737.93725        52.000
  20606737.293    -3547601.838 9  -2051924.38429       102.000
  22828140.047   -30448618.078 7  -9343904.41426        60.000
 96  6  6 16 42 15.0000000  0  6G 9G 2G27G26G 7G 4
  23551596.749    -8326174.512 7  -6976294.43125        50.000
  21739658.208    -2110266.700 9   2284135.13627        96.000
  22828346.155    -6125027.783 7  10487851.53926        52.000
  23524392.862     8913178.265 7   -353181.28925        52.000
  20609592.336    -3532586.649 9  -2040224.24029       104.000
  22819531.597   -30493841.676 7  -9379143.54526        58.000
 96  6  6 16 42 30.0000000  0  6G 9G 2G27G26G 7G 4
  23543431.691    -8369101.056 7  -7009743.67425        52.000
  21742760.100    -2093958.752 9   2296842.61627        94.000
  22838629.486    -6071007.655 7  10529945.11626        52.000
  23528704.567     8935808.622 7   -335547.28925        54.000
  20612469.474    -3517485.359 9  -2028456.99429       106.000
  22810939.065   -30539022.193 7  -9414349.14026        60.000
 96  6  6 16 42 45.0000000  0  6G 9G 2G27G26G 7G 4
  23535272.810    -8411973.880 7  -7043151.06225        50.000
  21745874.284    -2077596.854 9   2309592.13927        96.000
  22848922.860    -6016911.459 7  10572097.95326        52.000
  23533028.264     8958541.805 7   -317833.16125        50.000
  20615360.673    -3502294.320 9  -2016619.83129       104.000
  22802343.566   -30584152.560 7  -9449515.65726        60.000
 96  6  6 16 43  0.0000000  0  6G 9G 2G27G26G 7G 4
  23527125.590    -8454795.713 7  -7076518.70225        50.000
  21748999.561    -2061177.707 9   2322386.26827        94.000
  22859236.350    -5962737.272 7  10614311.55026        52.000
  23537372.316     8981375.767 7   -300040.45525        54.000
  20618264.463    -3487014.089 9  -2004713.15029       104.000
  22793765.035   -30629229.091 7  -9484640.21826        58.000
 96  6  6 16 43 15.0000000  0  6G 9G 2G27G26G 7G 4
  23518992.910    -8497568.403 7  -7109848.06225        50.000
  21752135.120    -2044705.047 9   2335222.10527        92.000
  22869556.915    -5908488.347 7  10656583.39626        50.000
  23541731.149     9004309.577 7   -282169.97425        52.000
  20621191.516    -3471645.025 9  -1992737.26729       108.000
  22785205.061   -30674250.853 7  -9519722.06726        62.000
 96  6  6 16 43 30.0000000  0  6G 9G 2G27G26G 7G 4
  23510863.738    -8540290.661 7  -7143138.11725        50.000
  21755279.433    -2028180.667 9   2348098.22427        94.000
  22879891.571    -5854168.106 7  10698910.82726        52.000
  23546115.433     9027342.212 7   -264222.47925        54.000
  20624134.609    -3456189.122 9  -1980693.71229       106.000
  22776645.237   -30719213.867 7  -9554758.17326        60.000
 96  6  6 16 43 45.0000000  0  6G 9G 2G27G26G 7G 4
  23502736.124    -8582965.478 7  -7176391.19125        48.000
  21758435.259    -2011608.627 9   2361011.51227        94.000
  22890238.248    -5799781.012 7  10741290.39526        50.000
  23550515.817     9050469.177 7   -246201.46325        54.000
  20627089.633    -3440651.094 9  -1968586.13529       108.000
  22768102.740   -30764116.544 7  -9589747.22726        60.000
 96  6  6 16 44  0.0000000  0  6G 9G 2G27G26G 7G 4
  23494624.670    -8625590.695 7  -7209605.65225        50.000
  21761597.919    -1994985.513 9   2373964.57127        92.000
  22900600.604    -5745325.665 7  10783723.11226        50.000
  23554935.178     9073692.027 7   -228105.78725        54.000
  20630061.955    -3425029.808 9  -1956413.72229       108.000
  22759569.058   -30808954.391 7  -9624685.79326        58.000
 96  6  6 16 44 15.0000000  0  6G 9G 2G27G26G 7G 4
  23486516.963    -8668167.168 7  -7242782.11125        48.000
  21764767.565    -1978310.276 9   2386958.27627        92.000
  22910979.389    -5690803.362 7  10826207.99926        52.000
  23559375.674     9097010.035 7   -209935.96325        54.000
  20633047.798    -3409324.988 9  -1944176.20729       108.000
  22751045.449   -30853727.820 7  -9659574.18126        58.000
 96  6  6 16 44 30.0000000  0  6G 9G 2G27G26G 7G 4
  23478429.971    -8710697.427 7  -7275922.54525        50.000
  21767952.680    -1961582.421 9   2399992.93427        92.000
  22921368.637    -5636215.241 7  10868744.14126        50.000
  23563829.420     9120424.015 7   -191691.32125        50.000
  20636052.738    -3393534.973 9  -1931872.30329       108.000
  22742537.789   -30898431.240 7  -9694407.99426        58.000
 96  6  6 16 44 45.0000000  0  6G 9G 2G27G26G 7G 4
  23470342.320    -8753181.532 7  -7309026.99325        48.000
  21771146.219    -1944804.389 9   2413066.75327        94.000
  22931763.461    -5581562.279 7  10911330.83926        50.000
  23568301.155     9143929.839 7   -173375.09425        52.000
  20639074.466    -3377664.155 9  -1919505.42129       110.000
  22734045.718   -30943063.504 7  -9729186.33926        60.000
 96  6  6 16 45  0.0000000  0  6G 9G 2G27G26G 7G 4
  23462268.460    -8795617.686 7  -7342094.13725        50.000
  21774345.754    -1927977.064 9   2426178.93227        92.000
  22942183.917    -5526844.349 7  10953968.15026        48.000
  23572796.453     9167525.370 7   -154988.94225        52.000
  20642111.783    -3361714.532 9  -1907077.14829       110.000
  22725568.336   -30987624.422 7  -9763909.13126        58.000
 96  6  6 16 45 15.0000000  0  6G 9G 2G27G26G 7G 4
  23454203.053    -8838006.797 7  -7375124.60925        52.000
  21777558.870    -1911104.497 9   2439326.38427        90.000
  22952603.084    -5472066.564 7  10996652.12426        48.000
  23577303.442     9191210.731 7   -136532.88625        50.000
  20645158.754    -3345687.054 9  -1894588.21029       108.000
  22717099.469   -31032117.957 7  -9798579.37626        60.000
 96  6  6 16 45 30.0000000  0  6G 9G 2G27G26G 7G 4
  23446144.932    -8880341.761 7  -7408112.89225        54.000
  21780778.191    -1894183.761 9   2452511.35027        92.000
  22963040.628    -5417224.722 7  11039386.00826        48.000
  23581822.184     9214990.783 7   -118002.99025        48.000
  20648228.329    -3329576.937 9  -1882034.87929       112.000
  22708643.763   -31076542.286 7  -9833195.72426        60.000
 96  6  6 16 45 45.0000000  0  6G 9G 2G27G26G 7G 4
  23438102.369    -8922621.056 7  -7441057.79725        52.000
  21784007.915    -1877213.324 9   2465735.06827        92.000
  22973486.296    -5362316.311 7  11082171.72626        48.000
  23586370.156     9238866.443 7    -99398.62125        50.000
  20651302.311    -3313382.377 9  -1869415.73829       108.000
  22700206.374   -31120898.509 7  -9867759.00126        60.000
 96  6  6 16 46  0.0000000  0  6G 9G 2G27G26G 7G 4
  23430068.771    -8964846.724 7  -7473960.86425        54.000
  21787247.293    -1860194.230 9   2478996.70627        92.000
  22983945.066    -5307342.574 7  11125008.39426        44.000
  23590931.888     9262834.306 7    -80722.37325        48.000
  20654406.752    -3297103.387 9  -1856730.80729       114.000
  22691778.818   -31165191.842 7  -9902273.25726        60.000
 96  6  6 16 46 15.0000000  0  6G 9G 2G27G26G 7G 4
  23422047.014    -9007015.711 7  -7506819.79726        54.000
  21790493.056    -1843124.207 9   2492298.00728        92.000
  22994421.163    -5252306.117 7  11167893.87826        46.000
  23595508.399     9286895.043 7    -61973.78025        48.000
  20657516.739    -3280737.063 9  -1843977.83329       110.000
  22683362.355   -31209424.486 7  -9936740.25126        62.000
 96  6  6 16 46 30.0000000  0  6G 9G 2G27G26G 7G 4
  23414028.076    -9049126.683 7  -7539633.52626        54.000
  21793748.982    -1826004.129 9   2505638.32328        90.000
  23004902.507    -5197207.127 7  11210828.09826        46.000
  23600109.764     9311048.685 7    -43152.76125        50.000
  20660650.859    -3264283.458 9  -1831156.83529       112.000
  22674962.860   -31253594.058 7  -9971158.05226        62.000
 96  6  6 16 46 45.0000000  0  6G 9G 2G27G26G 7G 4
  23406024.876    -9091176.963 7  -7572399.97226        56.000
  21797017.229    -1808835.627 9   2519016.36628        92.000
  23015396.862    -5142047.186 7  11253809.88226        44.000
  23604719.553     9335290.733 7    -24262.84625        50.000
  20663796.072    -3247744.148 9  -1818269.06029       110.000
  22666557.789   -31297703.975 7 -10005529.41426        62.000
 96  6  6 16 47  0.0000000  0  6G 9G 2G27G26G 7G 4
  23398037.985    -9133161.486 7  -7605115.15726        56.000
  21800297.948    -1791617.880 9   2532432.78728        92.000
  23025911.004    -5086821.863 7  11296842.58226        44.000
  23609353.774     9359621.591 7     -5303.80625        48.000
  20666960.021    -3231115.231 9  -1805311.46229       110.000
  22658182.936   -31341753.914 8 -10039854.02026        64.000
 96  6  6 16 47 15.0000000  0  6G 9G 2G27G26G 7G 4
  23390055.891    -9175082.477 7  -7637780.88726        52.000
  21803580.615    -1774352.453 9   2545886.36228        92.000
  23036429.642    -5031531.222 7  11339926.15926        44.000
  23613993.722     9384042.565 7     13725.48225        48.000
  20670145.736    -3214394.039 9  -1792281.97629       110.000
  22649805.716   -31385744.465 7 -10074132.35126        62.000
 96  6  6 16 47 30.0000000  0  6G 9G 2G27G26G 7G 4
  23382094.183    -9216941.079 7  -7670397.94426        54.000
  21806874.705    -1757039.186 9   2559377.20028        92.000
  23046968.246    -4976173.282 7  11383062.15125        44.000
  23618662.720     9408553.045 7     32824.56025        50.000
  20673342.393    -3197582.244 9  -1779181.87229       108.000
  22641447.532   -31429675.152 8 -10108364.04626        64.000
 96  6  6 16 47 45.0000000  0  6G 9G 2G27G26G 7G 4
  23374141.319    -9258739.553 7  -7702968.17326        54.000
  21810180.276    -1739681.017 9   2572903.04828        90.000
  23057513.326    -4920751.466 7  11426247.93725        44.000
  23623341.851     9433149.033 7     51990.24325        48.000
  20676557.637    -3180683.621 9  -1766014.10829       110.000
  22633105.897   -31473545.437 8 -10142548.66326        64.000
 96  6  6 16 48  0.0000000  0  6G 9G 2G27G26G 7G 4
  23366200.686    -9300477.623 7  -7735491.32726        56.000
  21813492.893    -1722276.101 9   2586465.32128        92.000
  23068070.067    -4865270.085 7  11469480.15425        44.000
  23628029.855     9457829.785 7     71221.98125        50.000
  20679793.267    -3163700.812 9  -1752780.76329       110.000
  22624762.913   -31517352.861 8 -10176684.29926        64.000
 96  6  6 16 48 15.0000000  0  6G 9G 2G27G26G 7G 4
  23358266.229    -9342155.591 7  -7767967.64926        56.000
  21816812.765    -1704824.570 9   2600063.89128        92.000
  23078637.901    -4809732.120 7  11512756.44725        46.000
  23632744.511     9482596.584 7     90520.78325        48.000
  20683038.011    -3146637.154 9  -1739484.41929       110.000
  22616439.924   -31561097.195 7 -10210770.77226        62.000
 96  6  6 16 48 30.0000000  0  7G 9G 2G27G26G24G 7G 4
  23350342.624    -9383773.809 7  -7800397.42226        54.000
  21820140.041    -1687327.644 9   2613697.85728        90.000
  23089226.391    -4754138.058 7  11556076.48225        46.000
  23637484.290     9507450.239 7    109887.22925        52.000
  24910776.878    -1816483.667 6  -1753628.62922        26.000
  20686296.665    -3129497.699 9  -1726128.98329       108.000
  22608126.320   -31604776.649 7 -10244806.69826        62.000
 96  6  6 16 48 45.0000000  0  7G 9G 2G27G26G24G 7G 4
  23342439.645    -9425332.922 7  -7832781.12526        56.000
  21823481.618    -1669785.599 9   2627366.98128        92.000
  23099811.643    -4698482.446 7  11599444.48725        44.000
  23642225.988     9532392.813 7    129322.97025        48.000
  24900932.983    -1868142.292 5  -1793882.17022        20.000
  20689575.975    -3112281.615 9  -1712713.85329       110.000
  22599825.127   -31648387.783 7 -10278789.35626        62.000
 96  6  6 16 49  0.0000000  0  7G 9G 2G27G26G24G 7G 4
  23334543.921    -9466836.658 7  -7865121.68526        56.000
  21826826.762    -1652199.780 9   2641070.20228        90.000
  23110415.212    -4642768.797 7  11642857.66325        46.000
  23646985.403     9557423.288 7    148827.20325        48.000
  24891102.398    -1919815.033 5  -1834146.69022        18.000
  20692864.788    -3094990.833 9  -1699240.52029       108.000
  22591544.709   -31691934.857 8 -10312722.13026        64.000
 96  6  6 16 49 15.0000000  0  7G 9G 2G27G26G24G 7G 4
  23326648.947    -9508286.105 7  -7897419.93926        56.000
  21830181.860    -1634565.978 9   2654810.81728        92.000
  23121029.484    -4586994.702 7  11686317.95225        46.000
  23651770.990     9582546.325 7    168403.59425        48.000
  24881273.853    -1971500.603 5  -1874421.17922        20.000
  20696170.749    -3077624.572 9  -1685708.36429       108.000
  22583268.668   -31735415.984 8 -10346603.50926        66.000
 96  6  6 16 49 30.0000000  0  7G 9G 2G27G26G24G 7G 4
  23318776.307    -9549677.710 7  -7929673.12126        54.000
  21833547.450    -1616879.106 9   2668592.78128        92.000
  23131655.658    -4531161.099 7  11729824.62525        48.000
  23656567.489     9607764.026 7    188053.74225        48.000
  24871454.990    -2023197.185 5  -1914704.17722        20.000
  20699490.981    -3060179.589 9  -1672114.87429       110.000
  22575004.470   -31778830.592 8 -10380433.05626        64.000
 96  6  6 16 49 45.0000000  0  7G 9G 2G27G26G24G 7G 4
  23310909.033    -9591007.609 7  -7961878.21026        54.000
  21836925.871    -1599136.509 9   2682418.18328        90.000
  23142286.119    -4475268.701 7  11773377.12225        46.000
  23661385.604     9633075.146 7    207776.65125        48.000
  24861605.159    -2074901.965 6  -1954993.73522        22.000
  20702824.763    -3042655.683 9  -1658459.88129       108.000
  22566761.376   -31822178.064 8 -10414210.28026        64.000
 96  6  6 16 50  0.0000000  0  7G 9G 2G27G26G24G 7G 4
  23303059.478    -9632275.472 7  -7994035.01226        54.000
  21840308.579    -1581335.931 9   2696288.76128        88.000
  23152935.376    -4419316.985 7  11816975.83325        46.000
  23666216.249     9658479.112 7    227571.93725        48.000
  24851779.821    -2126612.595 6  -1995287.64222        26.000
  20706174.674    -3025049.097 9  -1644740.46729       108.000
  22558522.510   -31865459.260 8 -10447935.87626        64.000
 96  6  6 16 50 15.0000000  0  7G 9G 2G27G26G24G 7G 4
  23295216.367    -9673486.257 7  -8026147.28926        54.000
  21843708.166    -1563477.129 9   2710204.69828        88.000
  23163598.574    -4363305.351 7  11860621.22125        48.000
  23671071.029     9683972.710 7    247437.04425        48.000
  24841934.337    -2178331.570 6  -2035588.18021        24.000
  20709541.882    -3007361.286 9  -1630957.76029       108.000
  22550293.717   -31908679.562 7 -10481614.02326        62.000
 96  6  6 16 50 30.0000000  0  7G 9G 2G27G26G24G 7G 4
  23287383.300    -9714643.254 7  -8058217.64426        56.000
  21847121.213    -1545563.270 9   2724163.54328        88.000
  23174265.760    -4307230.577 7  11904315.81425        48.000
  23675938.249     9709554.302 7    267370.74725        48.000
  24832092.180    -2230056.347 6  -2075893.16422        30.000
  20712921.982    -2989589.756 9  -1617109.81429       106.000
  22542086.628   -31951838.627 8 -10515244.44426        64.000
 96  6  6 16 50 45.0000000  0  7G 9G 2G27G26G24G 7G 4
  23279560.755    -9755748.512 7  -8090247.73126        56.000
  21850539.866    -1527595.910 9   2738164.07227        88.000
  23184941.819    -4251091.550 7  11948060.46225        46.000
  23680823.907     9735219.756 7    287369.75925        48.000
  24822234.045    -2281787.136 6  -2116202.92822        28.000
  20716320.490    -2971732.285 9  -1603194.90929       110.000
  22533885.146   -31994935.496 8 -10548826.38726        64.000
 96  6  6 16 51  0.0000000  0  7G 9G 2G27G26G24G 7G 4
  23271750.322    -9796797.726 7  -8122234.11026        54.000
  21853967.693    -1509570.038 9   2752210.18327        88.000
  23195637.005    -4194888.505 7  11991855.00425        48.000
  23685718.288     9760970.050 7    307434.94025        48.000
  24812387.482    -2333524.545 6  -2156517.78422        28.000
  20719736.085    -2953782.924 9  -1589208.39629       106.000
  22525692.328   -32037968.875 8 -10582358.88426        64.000
 96  6  6 16 51 15.0000000  0  7G 9G 2G27G26G24G 7G 4
  23263953.620    -9837788.641 7  -8154175.05726        58.000
  21857409.430    -1491484.269 9   2766303.00027        88.000
  23206350.718    -4138621.257 7  12035699.62325        48.000
  23690635.724     9786806.750 7    327567.42225        48.000
  24802535.462    -2385267.785 6  -2196837.25422        30.000
  20723168.499    -2935741.411 9  -1575150.07329       108.000
  22517516.897   -32080938.188 8 -10615841.43526        64.000
 96  6  6 16 51 30.0000000  0  7G 9G 2G27G26G24G 7G 4
  23256159.736    -9878720.944 7  -8186070.35126        56.000
  21860863.069    -1473341.364 9   2780440.36028        88.000
  23217071.146    -4082290.848 7  12079593.41225        46.000
  23695568.239     9812726.898 7    347764.85825        46.000
  24792689.888    -2437017.516 6  -2237161.73423        34.000
  20726620.010    -2917612.452 9  -1561023.61429       106.000
  22509354.358   -32123840.513 8 -10649271.79626        64.000
 96  6  6 16 51 45.0000000  0  7G 9G 2G27G26G24G 7G 4
  23248383.119    -9919592.892 7  -8217918.61726        58.000
  21864326.782    -1455140.926 9   2794622.48228        88.000
  23227806.534    -4025897.310 7  12123536.42325        50.000
  23700522.400     9838733.497 7    368029.69325        48.000
  24782853.907    -2488769.189 6  -2277487.72723        38.000
  20730082.882    -2899396.562 9  -1546829.41629       106.000
  22501205.639   -32166671.440 8 -10682646.52726        66.000
 96  6  6 16 52  0.0000000  0  7G 9G 2G27G26G24G 7G 4
  23240617.895    -9960410.108 7  -8249724.24626        56.000
  21867798.288    -1436886.306 9   2808846.84727        88.000
  23238540.513    -3969443.207 7  12167526.58525        46.000
  23705486.933     9864824.957 7    388360.69925        46.000
  24773008.993    -2540525.910 6  -2317817.68223        38.000
  20733565.871    -2881102.880 9  -1532574.60529       106.000
  22493067.923   -32209431.225 8 -10715965.81626        64.000
 96  6  6 16 52 15.0000000  0  7G 9G 2G27G26G24G 7G 4
  23232860.705   -10001170.532 7  -8281485.58926        56.000
  21871285.084    -1418576.398 9   2823114.29527        88.000
  23249291.580    -3912928.551 7  12211563.92125        46.000
  23710467.085     9891002.206 7    408758.56725        46.000
  24763156.553    -2592286.219 6  -2358150.39223        40.000
  20737062.291    -2862732.421 9  -1518259.96629       104.000
  22484943.967   -32252114.651 8 -10749225.60726        64.000
 96  6  6 16 52 30.0000000  0  7G 9G 2G27G26G24G 7G 4
  23225115.327   -10041871.107 7  -8313200.29026        56.000
  21874779.166    -1400212.779 9   2837423.59727        86.000
  23260064.682    -3856353.912 7  12255648.02825        46.000
  23715466.544     9917266.701 7    429224.36925        48.000
  24753307.172    -2644047.185 7  -2398483.60324        42.000
  20740568.333    -2844287.452 9  -1503887.25529       104.000
  22476832.693   -32294718.293 8 -10782423.25026        64.000
 96  6  6 16 52 45.0000000  0  7G 9G 2G27G26G24G 7G 4
  23217380.712   -10082505.416 7  -8344863.39326        58.000
  21878284.729    -1381796.018 9   2851774.31027        86.000
  23270841.082    -3799722.081 7  12299776.69325        46.000
  23720480.123     9943619.618 7    449759.04825        48.000
  24743459.889    -2695808.673 6  -2438817.27324        40.000
  20744096.801    -2825770.016 9  -1489458.09529       104.000
  22468744.922   -32337240.422 8 -10815557.34526        66.000
 96  6  6 16 53  0.0000000  0  7G 9G 2G27G26G24G 7G 4
  23209663.364   -10123069.391 7  -8376471.69826        56.000
  21881798.056    -1363323.257 9   2866168.66327        86.000
  23281627.345    -3743037.483 7  12343946.48925        44.000
  23725513.309     9970062.532 7    470363.89325        46.000
  24733591.111    -2747573.027 6  -2479153.11625        36.000
  20747630.574    -2807184.133 9  -1474975.58629       104.000
  22460665.035   -32379682.499 8 -10848629.06926        66.000
 96  6  6 16 53 15.0000000  0  7G 9G 2G27G26G24G 7G 4
  23201962.236   -10163562.458 7  -8408024.73726        58.000
  21885326.044    -1344795.420 9   2880605.95627        88.000
  23292419.424    -3686302.369 7  12388155.65425        42.000
  23730563.613     9996596.911 7    491040.02725        48.000
  24723751.533    -2799338.979 6  -2519490.25225        38.000
  20751179.517    -2788533.017 9  -1460442.24029       104.000
  22452602.417   -32422045.292 8 -10881639.01126        66.000
 96  6  6 16 53 30.0000000  0  7G 9G 2G27G26G24G 7G 4
  23194261.407   -10203989.534 7  -8439526.32926        58.000
  21888862.276    -1326217.707 9   2895082.07827        86.000
  23303238.124    -3629518.034 7  12432403.13925        44.000
  23735625.758    10023217.417 7    511783.26625        48.000
  24713901.012    -2851108.178 6  -2559829.90925        36.000
  20754742.431    -2769820.918 9  -1445861.40229       104.000
  22444557.456   -32464331.779 8 -10914589.50826        66.000
 96  6  6 16 53 45.0000000  0  7G 9G 2G27G26G24G 7G 4
  23186584.621   -10244354.765 7  -8470979.75726        60.000
  21892401.326    -1307594.303 9   2909593.81727        84.000
  23314044.473    -3572692.254 7  12476682.94125        44.000
  23740708.500    10049914.854 7    532586.43825        48.000
  24704048.333    -2902885.522 6  -2600175.88825        36.000
  20758316.527    -2751052.894 9  -1431236.96829       104.000
  22436526.676   -32506548.149 8 -10947485.34426        70.000
 96  6  6 16 54  0.0000000  0  7G 9G 2G27G26G24G 7G 4
  23178910.114   -10284668.284 7  -8502392.86926        60.000
  21895952.188    -1288935.932 9   2924132.78927        86.000
  23324857.717    -3515835.717 6  12520986.68825        40.000
  23745802.933    10076674.859 7    553438.37525        48.000
  24694193.735    -2954682.525 6  -2640537.23225        34.000
  20761894.220    -2732237.414 9  -1416575.56429       104.000
  22428502.911   -32548709.194 8 -10980338.09326        70.000
 96  6  6 16 54 15.0000000  0  7G 9G 2G27G26G24G 7G 4
  23171251.976   -10324908.327 7  -8533748.74926        62.000
  21899512.613    -1270223.335 9   2938714.02627        86.000
  23335692.366    -3458926.969 6  12565331.09125        40.000
  23750909.747    10103513.762 7    574351.74725        48.000
  24684339.557    -3006477.647 6  -2680897.05125        34.000
  20765490.740    -2713350.272 9  -1401858.31329       106.000
  22420493.955   -32590793.967 8 -11013131.40826        70.000
 96  6  6 16 54 30.0000000  0  7G 9G 2G27G26G24G 7G 4
  23163614.673   -10365076.666 7  -8565048.73926        62.000
  21903082.931    -1251459.106 9   2953335.50127        86.000
  23346535.410    -3401966.230 7  12609716.11325        42.000
  23756026.245    10130430.496 7    595325.80325        46.000
  24674486.219    -3058270.523 6  -2721255.19225        32.000
  20769097.603    -2694388.430 9  -1387082.85429       106.000
  22412497.861   -32632806.096 8 -11045868.10426        70.000
 96  6  6 16 54 45.0000000  0  7G 9G 2G27G26G24G 7G 4
  23155979.049   -10405175.490 7  -8596294.57726        60.000
  21906663.472    -1232644.858 9   2967995.94227        86.000
  23357372.877    -3344951.585 6  12654143.05725        38.000
  23761163.879    10157425.477 7    616360.82225        48.000
  24664624.396    -3110061.592 6  -2761611.87625        28.000
  20772718.047    -2675349.776 9  -1372247.53629       106.000
  22404515.677   -32674749.120 8 -11078550.94926        72.000
 96  6  6 16 55  0.0000000  0  7G 9G 2G27G26G24G 7G 4
  23148360.094   -10445208.553 7  -8627489.18026        62.000
  21910257.115    -1213780.657 9   2982695.31927        86.000
  23368248.418    -3287884.146 7  12698611.15625        42.000
  23766312.604    10184495.201 7    637454.09525        48.000
  24654765.391    -3161856.185 6  -2801971.27525        26.000
  20776357.827    -2656236.008 9  -1357353.69429       108.000
  22396547.703   -32716626.125 8 -11111182.38026        72.000
 96  6  6 16 55 15.0000000  0  7G 9G 2G27G26G24G 7G 4
  23140758.286   -10485178.049 8  -8658634.22926        64.000
  21913857.742    -1194863.494 9   2997435.96227        86.000
  23379108.310    -3230757.909 7  12743125.05725        42.000
  23771480.846    10211641.334 7    658606.91325        48.000
  24644901.889    -3213650.858 6  -2842330.80024        22.000
  20780008.130    -2637042.498 9  -1342397.71929       106.000
  22388595.918   -32758432.717 8 -11143758.92826        72.000
 96  6  6 16 55 30.0000000  0  7G 9G 2G27G26G24G 7G 4
  23133162.385   -10525086.127 8  -8689731.40726        64.000
  21917463.316    -1175897.456 9   3012214.68027        86.000
  23389992.905    -3173569.846 6  12787687.14425        40.000
  23776665.427    10238860.601 7    679816.70925        48.000
  24635044.713    -3265446.526 6  -2882691.06424        24.000
  20783675.761    -2617769.497 9  -1327379.79129       106.000
  22380652.587   -32800170.575 8 -11176281.91726        72.000
 96  6  6 16 55 45.0000000  0  7G 9G 2G27G26G24G 7G 4
  23125580.814   -10564928.645 7  -8720777.53526        60.000
  21921076.445    -1156877.877 9   3027035.12527        84.000
  23400894.618    -3116317.231 7  12832299.51825        42.000
  23781857.053    10266156.523 7    701086.24025        48.000
  24625203.696    -3317242.463 6  -2923051.47924        24.000
  20787362.219    -2598412.986 9  -1312296.79229       108.000
  22372723.706   -32841835.005 8 -11208747.67826        72.000
 96  6  6 16 56  0.0000000  0  7G 9G 2G27G26G24G 7G 4
  23118015.731   -10604695.116 7  -8751764.37126        62.000
  21924713.347    -1137794.603 9   3041905.19927        86.000
  23411794.322    -3058991.315 7  12876969.05725        42.000
  23787067.086    10293541.411 7    722425.07225        46.000
  24615345.351    -3369027.026 6  -2963403.07124        24.000
  20791061.987    -2578962.209 9  -1297140.36029       106.000
  22364810.924   -32883415.417 8 -11241147.99326        72.000
 96  6  6 16 56 15.0000000  0  7G 9G 2G27G26G24G 7G 4
  23110462.220   -10644386.907 8  -8782693.04426        64.000
  21928358.074    -1118649.685 9   3056823.28727        86.000
  23422715.731    -3001591.960 6  12921695.80125        40.000
  23792296.996    10321017.711 7    743835.14125        46.000
  24605494.591    -3420800.528 6  -3003746.07924        24.000
  20794780.943    -2559416.826 9  -1281910.19129       108.000
  22356915.410   -32924908.447 8 -11273480.20526        74.000
 96  6  6 16 56 30.0000000  0  7G 9G 2G27G26G24G 7G 4
  23102921.480   -10684021.208 8  -8813576.90826        64.000
  21932007.837    -1099458.777 9   3071777.26527        88.000
  23433648.563    -2944136.500 6  12966466.24225        40.000
  23797540.725    10348570.757 7    765305.02125        48.000
  24595646.378    -3472580.227 6  -3044093.83224        28.000
  20798515.487    -2539794.540 9  -1266620.10529       108.000
  22349028.110   -32966328.659 8 -11305755.67926        74.000
 96  6  6 16 56 45.0000000  0  7G 9G 2G27G26G24G 7G 4
  23095383.199   -10723594.392 7  -8844413.13926        60.000
  21935672.530    -1080217.874 9   3086770.17527        90.000
  23444601.870    -2886622.742 7  13011282.12625        42.000
  23802796.987    10376206.550 7    786839.43225        46.000
  24585786.354    -3524364.985 6  -3084445.59024        28.000
  20802262.323    -2520093.700 9  -1251268.79929       108.000
  22341165.033   -33007672.747 8 -11337971.82626        76.000
 96  6  6 16 57  0.0000000  0  7G 9G 2G27G26G24G 7G 4
  23087866.563   -10763104.325 7  -8875200.07926        62.000
  21939343.998    -1060924.673 9   3101803.81727        88.000
  23455551.160    -2829053.491 6  13056141.26425        40.000
  23808068.027    10403925.341 7    808438.44625        44.000
  24575930.317    -3576157.642 6  -3124803.49323        30.000
  20806027.507    -2500314.475 9  -1235856.41929       108.000
  22333311.640   -33048937.146 8 -11370125.88327        74.000
 96  6  6 16 57 15.0000000  0  7G 9G 2G27G26G24G 7G 4
  23080360.599   -10802547.534 7  -8905935.02726        62.000
  21943022.422    -1041576.827 9   3116880.06427        86.000
  23466519.367    -2771429.232 6  13101043.22525        40.000
  23813367.489    10431727.567 7    830102.49225        46.000
  24566071.732    -3627955.572 6  -3165165.57423        30.000
  20809806.061    -2480457.495 9  -1220383.45029       106.000
  22325476.294   -33090117.286 8 -11402214.26727        76.000
 96  6  6 16 57 30.0000000  0  7G 9G 2G27G26G24G 7G 4
  23072872.143   -10841921.935 7  -8936616.38226        62.000
  21946715.805    -1022177.457 9   3131996.43227        86.000
  23477499.655    -2713751.762 6  13145986.67125        40.000
  23818672.496    10459615.752 7    851833.51825        48.000
  24556211.289    -3679754.795 6  -3205528.57523        32.000
  20813603.262    -2460522.763 9  -1204849.90029       108.000
  22317653.420   -33131210.378 8 -11434234.85127        74.000
 96  6  6 16 57 45.0000000  0  7G 9G 2G27G26G24G 7G 4
  23065388.484   -10881228.158 8  -8967244.58226        64.000
  21950418.092    -1002725.860 9   3147153.52827        86.000
  23488480.184    -2656026.422 6  13190967.40925        40.000
  23823993.962    10487590.497 7    873632.01025        46.000
  24546351.534    -3731554.800 6  -3245892.20323        34.000
  20817408.618    -2440512.157 9  -1189257.21129       106.000
  22309852.281   -33172219.142 8 -11466189.72327        74.000
 96  6  6 16 58  0.0000000  0  7G 9G 2G27G26G24G 7G 4
  23057925.960   -10920465.402 7  -8997819.07126        62.000
  21954126.315     -983217.750 9   3162354.63627        86.000
  23499473.423    -2598253.603 6  13235985.15825        38.000
  23829332.846    10515652.128 7    895498.20625        46.000
  24536500.414    -3783351.183 6  -3286253.03023        34.000
  20821233.490    -2420424.572 9  -1173604.56529       106.000
  22302066.341   -33213140.673 8 -11498076.61327        74.000
 96  6  6 16 58 15.0000000  0  7G 9G 2G27G26G24G 7G 4
  23050470.301   -10959635.004 7  -9028340.80626        62.000
  21957852.885     -963654.439 9   3177598.77227        86.000
  23510473.918    -2540434.801 6  13281038.73125        36.000
  23834690.557    10543798.158 7    917430.16125        46.000
  24526644.228    -3835144.762 6  -3326611.66123        34.000
  20825065.947    -2400262.981 9  -1157894.23929       106.000
  22294292.303   -33253977.177 8 -11529897.23727        74.000
 96  6  6 16 58 30.0000000  0  7G 9G 2G27G26G24G 7G 4
  23043030.862   -10998737.287 7  -9058810.11926        62.000
  21961586.110     -944034.426 9   3192887.09227        84.000
  23521488.113    -2482569.902 6  13326128.23825        40.000
  23840061.219    10572027.125 7    939426.70125        44.000
  24516787.052    -3886935.505 6  -3366968.06623        34.000
  20828916.601    -2380029.307 9  -1142127.74029       106.000
  22286540.059   -33294729.590 8 -11561652.35727        74.000
 96  6  6 16 58 45.0000000  0  7G 9G 2G27G26G24G 7G 4
  23035601.795   -11037768.850 7  -9089224.32026        62.000
  21965329.289     -924353.190 9   3208223.09927        84.000
  23532506.745    -2424656.714 6  13371255.35525        38.000
  23845452.057    10600342.377 7    961490.49725        44.000
  24506934.073    -3938720.280 6  -3407319.86124        36.000
  20832782.905    -2359720.234 9  -1126302.48729       108.000
  22278799.508   -33335397.596 8 -11593341.66927        74.000
 96  6  6 16 59  0.0000000  0  7G 9G 2G27G26G24G 7G 4
  23028188.707   -11076730.208 7  -9119583.80026        62.000
  21969084.429     -904611.874 9   3223605.94627        84.000
  23543537.008    -2366696.901 6  13416418.82025        38.000
  23850855.936    10628740.474 7    983618.87925        46.000
  24497081.633    -3990500.618 6  -3447668.14824        38.000
  20836659.461    -2339336.747 9  -1110419.25929       108.000
  22271074.636   -33375982.793 8 -11624966.48727        72.000
 96  6  6 16 59 15.0000000  0  7G 9G 2G27G26G24G 7G 4
  23020789.499   -11115618.269 7  -9149886.17026        60.000
  21972853.240     -884807.930 9   3239037.57427        84.000
  23554581.063    -2308688.320 6  13461620.25125        38.000
  23856273.486    10657219.780 7   1005810.51425        46.000
  24487226.616    -4042271.974 6  -3488009.44924        38.000
  20840555.833    -2318879.074 9  -1094478.22029       106.000
  22263369.670   -33416485.219 8 -11656526.80627        76.000
 96  6  6 16 59 30.0000000  0  7G 9G 2G27G26G24G 7G 4
  23013403.542   -11154434.252 7  -9180132.37926        58.000
  21976637.880     -864941.742 9   3254517.72827        86.000
  23565619.781    -2250630.586 6  13506859.98625        36.000
  23861705.365    10685780.718 7   1028065.79925        42.000
  24477373.877    -4094029.838 6  -3528340.22724        34.000
  20844461.260    -2298347.386 9  -1078479.50129       108.000
  22255677.175   -33456904.396 8 -11688022.24527        74.000
 96  6  6 16 59 45.0000000  0  7G 9G 2G27G26G24G 7G 4
  23006027.329   -11193175.453 7  -9210320.31326        60.000
  21980426.867     -845009.618 9   3270049.23227        86.000
  23576683.412    -2192522.723 6  13552138.82525        38.000
  23867154.453    10714424.259 7   1050385.43025        44.000
  24467532.710    -4145774.239 6  -3568660.53325        38.000
  20848384.284    -2277738.918 9  -1062420.96029       108.000
  22248005.876   -33497241.748 8 -11719453.91627        76.000
 96  6  6 17  0  0.0000000  0  7G 9G 2G27G26G24G 7G 4
  22998670.871   -11231844.242 7  -9240451.83126        62.000
  21984234.981     -825013.355 9   3285630.73127        86.000
  23587750.790    -2134367.884 6  13597454.21625        38.000
  23872623.267    10743142.290 7   1072763.05525        44.000
  24457687.225    -4197511.785 6  -3608975.44325        36.000
  20852318.041    -2257055.671 9  -1046304.14629       108.000
  22240341.112   -33537501.621 8 -11750825.23827        74.000
 96  6  6 17  0 15.0000000  0  7G 9G 2G27G26G24G 7G 4
  22991326.676   -11270437.710 8  -9270524.63526        64.000
  21988052.058     -804955.155 9   3301260.50927        84.000
  23598824.614    -2076164.219 6  13642807.70525        36.000
  23878106.741    10771933.464 7   1095197.72725        46.000
  24447849.926    -4249242.304 6  -3649284.92625        34.000
  20856268.885    -2236297.821 9  -1030129.19829       108.000
  22232697.394   -33577681.056 8 -11782133.86727        76.000
 96  6  6 17  0 30.0000000  0  7G 9G 2G27G26G24G 7G 4
  22983997.859   -11308956.684 8  -9300539.40726        64.000
  21991876.810     -784838.839 9   3316935.53527        86.000
  23609910.009    -2017915.585 6  13688196.25425        34.000
  23883597.470    10800798.671 7   1117690.06825        46.000
  24438003.212    -4300968.331 6  -3689590.88525        34.000
  20860231.302    -2215467.048 9  -1013897.42729       108.000
  22225065.547   -33617782.874 8 -11813382.01527        76.000
 96  6  6 17  0 45.0000000  0  7G 9G 2G27G26G24G 7G 4
  22976678.097   -11347400.793 7  -9330495.85126        62.000
  21995718.441     -764665.745 9   3332654.81627        84.000
  23620995.015    -1959623.537 6  13733618.52925        34.000
  23889100.850    10829737.511 7   1140239.82325        44.000
  24428156.679    -4352690.615 6  -3729893.94525        32.000
  20864210.418    -2194564.262 9   -997609.54429       110.000
  22217448.960   -33657806.002 8 -11844568.84427        76.000
 96  6  6 17  1  0.0000000  0  7G 9G 2G27G26G24G 7G 4
  22969377.971   -11385769.955 8  -9360393.88526        64.000
  21999565.558     -744438.649 9   3348416.18127        84.000
  23632096.000    -1901288.374 6  13779074.45325        32.000
  23894627.044    10858750.513 7   1162847.32925        44.000
  24418312.754    -4404409.084 6  -3770194.00025        30.000
  20868200.685    -2173591.404 9   -981267.06829       108.000
  22209850.420   -33697747.947 8 -11875692.43227        74.000
 96  6  6 17  1 15.0000000  0  7G 9G 2G27G26G24G 7G 4
  22962092.204   -11424061.442 8  -9390231.40826        66.000
  22003425.865     -724156.492 8   3364220.44227        82.000
  23643206.759    -1842908.092 6  13824565.53525        30.000
  23900164.840    10887837.471 7   1185512.44125        44.000
  24408472.036    -4456118.955 6  -3810487.39425        30.000
  20872206.002    -2152548.907 9   -964870.32729       108.000
  22202267.110   -33737606.366 8 -11906750.92227        76.000
 96  6  6 17  1 30.0000000  0  7G 9G 2G27G26G24G 7G 4
  22954818.340   -11462277.210 8  -9420009.91426        64.000
  22007295.406     -703820.071 9   3380067.00427        86.000
  23654326.870    -1784482.653 6  13870091.80625        32.000
  23905703.746    10916999.723 7   1208236.23325        46.000
  24398641.122    -4507819.017 6  -3850773.11825        28.000
  20876224.331    -2131436.713 9   -948419.27129       112.000
  22194694.862   -33777380.106 8 -11937743.43727        76.000
 96  6  6 17  1 45.0000000  0  7G 9G 2G27G26G24G 7G 4
  22947563.063   -11500415.797 8  -9449728.27426        64.000
  22011178.288     -683431.643 9   3395954.08127        84.000
  23665452.078    -1726012.393 6  13915653.02525        34.000
  23911266.425    10946237.146 7   1231018.62725        46.000
  24388799.565    -4559512.866 6  -3891054.01725        28.000
  20880251.503    -2110254.415 9   -931913.58429       108.000
  22187144.979   -33817069.502 8 -11968670.21227        74.000
 96  6  6 17  2  0.0000000  0  7G 9G 2G27G26G24G 7G 4
  22940319.297   -11538477.886 8  -9479387.04526        66.000
  22015062.429     -662994.196 8   3411879.36227        82.000
  23676581.993    -1667498.905 6  13961247.91325        32.000
  23916851.258    10975543.655 7   1253854.86625        44.000
  24378963.645    -4611202.930 6  -3931331.98125        28.000
  20884297.322    -2089005.307 9   -915355.83129       110.000
  22179603.190   -33856678.017 8 -11999533.95627        78.000
 96  6  6 17  2 15.0000000  0  7G 9G 2G27G26G24G 7G 4
  22933089.143   -11576464.461 7  -9508986.95926        62.000
  22018963.928     -642506.399 9   3427843.85827        84.000
  23687723.690    -1608937.892 6  14006879.74925        32.000
  23922443.527    11004919.324 7   1276744.95825        44.000
  24369133.870    -4662884.636 6  -3971603.43825        26.000
  20888355.642    -2067689.706 9   -898746.28429       112.000
  22172080.708   -33896200.149 8 -12030330.41627        74.000
 96  6  6 17  2 30.0000000  0  7G 9G 2G27G26G24G 7G 4
  22925874.427   -11614376.363 8  -9538528.69526        64.000
  22022871.843     -621968.298 9   3443847.56227        84.000
  23698890.929    -1550328.097 6  14052549.73925        36.000
  23928043.860    11034364.952 7   1299689.59725        44.000
  24359298.249    -4714556.082 6  -4011866.86425        28.000
  20892422.837    -2046310.562 9   -882087.21029       110.000
  22164580.650   -33935637.215 8 -12061060.57027        76.000
 96  6  6 17  2 45.0000000  0  7G 9G 2G27G26G24G 7G 4
  22918675.001   -11652211.825 7  -9568010.86426        62.000
  22026792.649     -601376.517 9   3459893.10527        84.000
  23710054.331    -1491665.654 6  14098260.69325        36.000
  23933652.167    11063880.450 7   1322688.63225        44.000
  24349472.461    -4766214.652 6  -4052120.24425        30.000
  20896503.042    -2024864.441 9   -865375.94629       110.000
  22157092.674   -33974985.331 8 -12091721.43127        76.000
 96  6  6 17  3  0.0000000  0  7G 9G 2G27G26G24G 7G 4
  22911491.345   -11689975.067 8  -9597436.75126        66.000
  22030719.240     -580734.582 8   3475977.70927        82.000
  23721220.611    -1432950.809 6  14144012.47025        36.000
  23939286.047    11093459.038 7   1345736.85725        44.000
  24339642.776    -4817863.745 6  -4092366.30725        28.000
  20900595.419    -2003355.039 9   -848615.38329       112.000
  22149622.266   -34014246.442 8 -12122314.48627        76.000
 96  6  6 17  3 15.0000000  0  7G 9G 2G27G26G24G 7G 4
  22904315.362   -11727663.878 8  -9626804.65426        64.000
  22034656.085     -560038.905 8   3492104.21227        82.000
  23732402.450    -1374181.461 6  14189806.77825        38.000
  23944927.242    11123099.502 7   1368833.30025        44.000
  24329804.727    -4869499.604 6  -4132601.92025        30.000
  20904703.325    -1981779.509 9   -831803.28329       112.000
  22142168.915   -34053418.892 8 -12152838.45227        76.000
 96  6  6 17  3 30.0000000  0  7G 9G 2G27G26G24G 7G 4
  22897160.755   -11765276.144 8  -9656112.90226        66.000
  22038607.260     -539287.403 8   3508274.20527        82.000
  23743597.839    -1315355.293 6  14235645.28425        38.000
  23950582.557    11152801.268 7   1391977.49125        42.000
  24319986.164    -4921121.498 6  -4172826.74225        30.000
  20908820.165    -1960135.143 9   -814937.55929       110.000
  22134724.679   -34092500.773 8 -12183291.85027        76.000
 96  6  6 17  3 45.0000000  0  7G 9G 2G27G26G24G 7G 4
  22890022.157   -11802809.600 8  -9685359.74426        70.000
  22042564.220     -518482.597 8   3524485.71727        82.000
  23754803.901    -1256472.873 6  14281527.60225        38.000
  23956246.296    11182564.716 6   1415169.79425        40.000
  24310162.055    -4972729.532 6  -4213040.75125        32.000
  20912955.982    -1938423.046 9   -798019.03729       112.000
  22127310.572   -34131491.544 8 -12213674.24727        78.000
 96  6  6 17  4  0.0000000  0  7G 9G 2G27G26G24G 7G 4
  22882894.892   -11840264.595 8  -9714545.43826        70.000
  22046536.650     -497623.828 8   3540739.29327        82.000
  23766024.653    -1197537.576 6  14327451.19425        40.000
  23961919.538    11212389.349 7   1438409.71925        42.000
  24300351.077    -5024322.736 6  -4253243.21125        36.000
  20917095.486    -1916646.966 9   -781050.66529       108.000
  22119906.567   -34170390.861 8 -12243985.38527        76.000
 96  6  6 17  4 15.0000000  0  7G 9G 2G27G26G24G 7G 4
  22875774.851   -11877644.686 8  -9743672.77726        66.000
  22050513.727     -476710.762 8   3557035.17027        80.000
  23777243.037    -1138551.333 6  14373414.47425        40.000
  23967606.182    11242275.942 7   1461697.95725        42.000
  24290540.009    -5075899.823 6  -4293433.12025        38.000
  20921250.370    -1894808.770 9   -764033.89629       108.000
  22112522.439   -34209198.308 8 -12274224.93427        78.000
 96  6  6 17  4 30.0000000  0  7G 9G 2G27G26G24G 7G 4
  22868681.042   -11914946.513 8  -9772739.11626        66.000
  22054501.806     -455743.673 8   3573373.16027        82.000
  23788485.074    -1079513.932 6  14419417.61625        40.000
  23973306.106    11272228.789 6   1485037.79925        40.000
  24280718.538    -5127460.967 6  -4333610.55725        40.000
  20925420.903    -1872905.857 9   -746966.70729       110.000
  22105154.620   -34247912.518 8 -12304391.85527        78.000
 96  6  6 17  4 45.0000000  0  7G 9G 2G27G26G24G 7G 4
  22861596.346   -11952168.781 8  -9801743.47126        70.000
  22058505.834     -434724.464 8   3589751.74227        82.000
  23799723.184    -1020430.425 6  14465456.68125        38.000
  23979015.353    11302248.165 6   1508429.50025        40.000
  24270917.064    -5179006.711 7  -4373776.04225        42.000
  20929598.690    -1850938.202 9   -729849.05129       108.000
  22097807.906   -34286535.044 8 -12334487.30127        80.000
 96  6  6 17  5  0.0000000  0  7G 9G 2G27G26G24G 7G 4
  22854530.088   -11989309.267 8  -9830684.10326        68.000
  22062510.732     -413650.980 8   3606172.62827        80.000
  23810977.933     -961302.251 6  14511530.51225        38.000
  23984748.644    11332339.122 6   1531876.97125        40.000
  24261109.653    -5230533.633 6  -4413926.87625        40.000
  20933794.795    -1828902.924 9   -712678.71229       110.000
  22090473.304   -34325063.660 8 -12364509.58327        78.000
 96  6  6 17  5 15.0000000  0  7G 9G 2G27G26G24G 7G 4
  22847479.779   -12026367.731 8  -9859560.82626        70.000
  22066535.116     -392523.167 8   3622635.85627        82.000
  23822238.947     -902133.500 6  14557635.99825        36.000
  23990490.779    11362504.845 6   1555382.70025        40.000
  24251307.219    -5282041.932 6  -4454063.15225        40.000
  20937997.616    -1806801.867 9   -695457.11329       108.000
  22083158.517   -34363500.726 8 -12394460.54327        80.000
 96  6  6 17  5 30.0000000  0  7G 9G 2G27G26G24G 7G 4
  22840442.001   -12063344.356 8  -9888373.77426        68.000
  22070566.305     -371339.715 8   3639142.43127        80.000
  23833506.946     -842927.867 6  14603770.19825        36.000
  23996244.516    11392747.170 7   1578948.12125        42.000
  24241506.704    -5333532.014 6  -4494185.28625        40.000
  20942217.405    -1784633.680 9   -678183.20429       108.000
  22075861.689   -34401847.365 8 -12424341.00827        76.000
 96  6  6 17  5 45.0000000  0  7G 9G 2G27G26G24G 7G 4
  22833417.894   -12100239.660 8  -9917123.33626        68.000
  22074605.768     -350100.874 8   3655692.17527        80.000
  23844776.475     -783687.794 6  14649931.27825        34.000
  24002014.651    11423069.089 6   1602575.55225        40.000
  24231712.754    -5385006.360 7  -4534295.14824        42.000
  20946449.964    -1762398.861 9   -660857.36929       108.000
  22068580.779   -34440106.521 8 -12454153.31927        78.000
 96  6  6 17  6  0.0000000  0  7G 9G 2G27G26G24G 7G 4
  22826415.761   -12137054.568 8  -9945810.29326        68.000
  22078660.162     -328801.948 8   3672288.73027        80.000
  23856054.157     -724414.384 6  14696118.32525        34.000
  24007795.789    11453471.074 6   1626265.39625        40.000
  24221923.991    -5436465.165 6  -4574392.88024        40.000
  20950691.158    -1740096.130 9   -643478.61829       106.000
  22061317.738   -34478276.657 8 -12483896.27427        80.000
 96  6  6 17  6 15.0000000  0  7G 9G 2G27G26G24G 7G 4
  22819422.503   -12173797.199 8  -9974440.89426        70.000
  22082725.048     -307444.721 8   3688930.70727        80.000
  23867335.437     -665113.805 6  14742326.51125        32.000
  24013597.372    11483944.728 6   1650011.09625        38.000
  24212134.358    -5487914.621 6  -4614483.30924        40.000
  20954949.800    -1717728.371 9   -626049.20429       108.000
  22054072.623   -34516362.629 8 -12513573.64927        80.000
 96  6  6 17  6 30.0000000  0  7G 9G 2G27G26G24G 7G 4
  22812445.403   -12210466.402 8 -10003014.31226        72.000
  22086799.827     -286026.606 8   3705620.14527        82.000
  23878624.692     -605780.934 6  14788559.85725        32.000
  24019408.430    11514488.819 7   1673811.62425        42.000
  24202340.229    -5539353.075 6  -4654565.18424        38.000
  20959220.943    -1695289.759 9   -608564.56929       110.000
  22046839.680   -34554361.933 8 -12543183.47927        80.000
 96  6  6 17  6 45.0000000  0  7G 9G 2G27G26G24G 7G 4
  22805482.933   -12247059.967 8 -10031528.76226        70.000
  22090885.518     -264543.377 8   3722360.29627        80.000
  23889927.138     -546414.416 6  14834819.44125        30.000
  24025230.459    11545104.108 7   1697667.72525        42.000
  24192554.733    -5590777.264 6  -4694635.92424        38.000
  20963504.888    -1672779.121 9   -591023.81729       110.000
  22039619.749   -34592270.702 8 -12572722.75427        80.000
 96  6  6 17  7  0.0000000  0  7G 9G 2G27G26G24G 7G 4
  22798528.677   -12283584.379 8 -10059989.34126        70.000
  22094987.399     -242995.800 8   3739150.61227        80.000
  23901233.001     -487018.245 6  14881102.10325        28.000
  24031073.024    11575788.446 6   1721577.53325        40.000
  24182773.404    -5642188.596 6  -4734696.63924        36.000
  20967799.594    -1650199.244 9   -573429.11029       110.000
  22032426.079   -34630090.600 8 -12602192.79727        80.000
 96  6  6 17  7 15.0000000  0  7G 9G 2G27G26G24G 7G 4
  22791590.610   -12320034.946 8 -10088392.35626        68.000
  22099101.510     -221377.386 8   3755996.11427        82.000
  23912546.059     -427587.460 6  14927411.80425        30.000
  24036930.399    11606545.343 6   1745543.91525        40.000
  24172990.337    -5693586.704 6  -4774747.07224        36.000
  20972111.090    -1627546.123 9   -555777.33429       108.000
  22025249.527   -34667815.800 8 -12631589.05127        80.000
 96  6  6 17  7 30.0000000  0  7G 9G 2G27G26G24G 7G 4
  22784670.261   -12356418.725 8 -10116743.36026        68.000
  22103229.053     -199693.131 8   3772892.92227        80.000
  23923860.076     -368125.335 6  14973745.84525        32.000
  24042789.483    11637364.898 6   1769559.10725        40.000
  24163216.293    -5744978.756 6  -4814792.83724        38.000
  20976434.517    -1604823.306 9   -538071.24429       110.000
  22018086.646   -34705449.609 8 -12660914.07927        82.000
 96  6  6 17  7 45.0000000  0  7G 9G 2G27G26G24G 7G 4
  22777762.113   -12392734.889 8 -10145041.65426        70.000
  22107369.277     -177946.388 8   3789838.43326        80.000
  23935174.064     -308631.524 6  15020104.57525        28.000
  24048664.576    11668244.625 6   1793621.20925        40.000
  24153430.498    -5796366.047 6  -4854834.83124        36.000
  20980773.713    -1582033.541 9   -520312.98829       110.000
  22010945.140   -34742991.935 8 -12690167.84027        82.000
 96  6  6 17  8  0.0000000  0  7G 9G 2G27G26G24G 7G 4
  22770864.309   -12428976.969 8 -10173282.22126        70.000
  22111517.745     -156136.164 8   3806833.38826        82.000
  23946496.086     -249100.067 6  15066492.69925        28.000
  24054558.795    11699186.356 6   1817731.66425        40.000
  24143660.352    -5847742.019 6  -4894867.98825        36.000
  20985123.132    -1559176.744 9   -502502.50129       110.000
  22003817.964   -34780435.933 8 -12719344.96927        82.000
 96  6  6 17  8 15.0000000  0  7G 9G 2G27G26G24G 7G 4
  22763980.744   -12465142.111 8 -10201462.85126        70.000
  22115680.813     -134263.483 8   3823877.04926        80.000
  23957837.474     -189528.137 6  15112912.33625        30.000
  24060455.054    11730189.784 6   1841890.14825        38.000
  24133880.972    -5899101.593 6  -4934888.38925        36.000
  20989483.343    -1536253.162 9   -484639.97729       110.000
  21996715.940   -34817776.725 9 -12748441.68227        84.000
 96  6  6 17  8 30.0010000  0  7G 9G 2G27G26G24G 7G 4
  22757118.195   -12501229.523 8 -10229582.90926        70.000
  22119855.812     -112331.702 8   3840966.74926        78.000
  23969188.396     -129909.871 6  15159368.10125        34.000
  24066360.995    11761259.476 6   1866100.24125        38.000
  24124122.038    -5950447.473 6  -4974898.10225        38.000
  20993856.506    -1513262.072 9   -466724.83929       108.000
  21989626.269   -34855017.733 8 -12777460.63527        82.000
 96  6  6 17  8 45.0010000  0  7G 9G 2G27G26G24G 7G 4
  22750262.511   -12537234.645 8 -10257638.83626        70.000
  22124034.380      -90350.664 8   3858094.80526        78.000
  23980534.282      -70257.457 6  15205850.48925        34.000
  24072291.519    11792391.353 6   1890358.82825        40.000
  24114350.572    -6001776.857 6  -5014894.98325        40.000
  20998244.808    -1490211.667 9   -448763.49329       108.000
  21982556.982   -34892156.380 8 -12806399.81127        80.000
 96  6  6 17  9  0.0010000  0  7G 9G 2G27G26G24G 7G 4
  22743426.314   -12573152.467 8 -10285626.75826        70.000
  22128228.266      -68318.858 8   3875262.43026        78.000
  23991894.767      -10566.052 6  15252363.16325        32.000
  24078230.978    11823590.434 6   1914669.75525        40.000
  24104581.865    -6053090.918 6  -5054879.88825        40.000
  21002643.632    -1467098.641 9   -430753.34929       108.000
  21975512.849   -34929195.506 9 -12835261.46127        84.000
 96  6  6 17  9 15.0010000  0  7G 9G 2G27G26G24G 7G 4
  22736613.200   -12608980.685 8 -10313544.83726        72.000
  22132428.299      -46236.333 8   3892469.58526        78.000
  24003259.060       49166.111 6  15298907.65025        32.000
  24084177.691    11854857.239 7   1939033.48325        42.000
  24094826.439    -6104389.855 6  -5094853.05925        40.000
  21007052.021    -1443921.927 9   -412693.57629       108.000
  21968481.787   -34966134.778 8 -12864045.30627        80.000
 96  6  6 17  9 30.0010000  0  7G 9G 2G27G26G24G 7G 4
  22729810.670   -12644713.825 8 -10341388.83326        72.000
  22136642.661      -24103.254 8   3909716.11526        80.000
  24014631.626      108944.081 6  15345487.86525        34.000
  24090140.593    11886191.070 6   1963449.42925        40.000
  24085058.211    -6155669.258 7  -5134810.99025        42.000
  21011477.167    -1420680.752 9   -394583.57229       106.000
  21961473.298   -35002973.961 9 -12892751.14327        84.000
 96  6  6 17  9 45.0010000  0  7G 9G 2G27G26G24G 7G 4
  22723027.266   -12680352.382 8 -10369159.12426        70.000
  22140860.171       -1924.278 8   3926998.43026        80.000
  24026018.254      168767.151 6  15392103.23625        36.000
  24096120.223    11917591.687 6   1987917.43225        38.000
  24075307.671    -6206926.294 6  -5174751.46825        40.000
  21015912.956    -1397379.353 9   -376426.63829       108.000
  21954475.963   -35039716.528 8 -12921381.69927        78.000
 96  6  6 17 10  0.0010000  0  7G 9G 2G27G26G24G 7G 4
  22716265.327   -12715894.964 8 -10396854.63026        72.000
  22145092.671       20300.753 8   3944316.63226        80.000
  24037417.652      228633.528 6  15438752.34325        36.000
  24102107.588    11949058.429 6   2012436.94225        38.000
  24065556.922    -6258159.128 7  -5214673.11725        42.000
  21020353.662    -1374021.156 9   -358225.45529       108.000
  21947505.488   -35076364.135 8 -12949938.27327        82.000
 96  6  6 17 10 15.0010000  0  7G 9G 2G27G26G24G 7G 4
  22709521.645   -12751341.458 8 -10424475.22926        72.000
  22149330.028       42576.243 8   3961674.16926        78.000
  24048816.361      288544.804 6  15485436.44325        38.000
  24108103.048    11980590.387 6   2037007.27825        38.000
  24055819.962    -6309367.336 7  -5254575.54125        44.000
  21024809.417    -1350601.300 9   -339976.19229       106.000
  21940553.451   -35112916.633 8 -12978420.67027        80.000
 96  6  6 17 10 30.0010000  0  7G 9G 2G27G26G24G 7G 4
  22702786.778   -12786720.311 8 -10452043.19526        72.000
  22153577.547       64876.800 8   3979051.18626        80.000
  24060224.423      348472.054 6  15532132.88524        38.000
  24114111.638    12012160.404 6   2061607.23325        40.000
  24046068.223    -6360579.941 7  -5294481.48925        46.000
  21029274.646    -1327143.438 9   -321697.36829       106.000
  21933605.461   -35149403.241 8 -13006851.82527        80.000
 96  6  6 17 10 45.0010000  0  7G 9G 2G27G26G24G 7G 4
  22696075.804   -12822004.276 8 -10479537.18326        72.000
  22157830.223       87233.429 8   3996471.94126        80.000
  24071622.862      408441.292 6  15578862.10724        36.000
  24120134.858    12043794.989 6   2086257.53725        40.000
  24036322.240    -6411768.923 7  -5334368.94325        42.000
  21033752.076    -1303618.550 9   -303366.30329       104.000
  21926681.424   -35185797.237 8 -13035210.76927        80.000
 96  6  6 17 11  0.0010000  0  7G 9G 2G27G26G24G 7G 4
  22689374.273   -12857195.146 8 -10506958.63326        72.000
  22162095.371      109648.143 8   4013937.92726        80.000
  24083051.281      468450.151 6  15625622.25124        36.000
  24126161.466    12075489.064 6   2110954.20225        40.000
  24026590.977    -6462933.880 7  -5374237.68725        42.000
  21038243.177    -1280028.494 9   -284984.44929       106.000
  21919770.279   -35222099.227 8 -13063498.01627        80.000
 96  6  6 17 11 15.0010000  0  7G 9G 2G27G26G24G 7G 4
  22682697.295   -12892299.325 8 -10534312.52526        76.000
  22166371.550      132119.953 8   4031448.42526        78.000
  24094472.714      528492.776 6  15672408.67824        36.000
  24132205.072    12107239.572 6   2135694.86625        38.000
  24016853.119    -6514077.882 7  -5414090.11925        44.000
  21042740.454    -1256377.699 9   -266555.24929       104.000
  21912882.277   -35258309.813 8 -13091714.04528        80.000
 96  6  6 17 11 30.0010000  0  7G 9G 2G27G26G24G 7G 4
  22676033.689   -12927317.151 8 -10561599.12926        76.000
  22170659.961      154650.351 8   4049004.56726        80.000
  24105913.034      588568.824 6  15719221.16124        38.000
  24138255.693    12139046.584 6   2160479.49425        38.000
  24007129.770    -6565198.893 7  -5453924.61925        44.000
  21047252.900    -1232665.098 9   -248077.90629       106.000
  21906010.435   -35294426.007 8 -13119856.52128        82.000
 96  6  6 17 11 45.0010000  0  7G 9G 2G27G26G24G 7G 4
  22669388.099   -12962246.787 8 -10588817.02526        76.000
  22174956.947      177244.259 8   4066610.22226        80.000
  24117351.375      648678.612 6  15766059.93723        36.000
  24144322.563    12170910.095 6   2185308.14625        38.000
  23997403.633    -6616295.295 7  -5493739.94025        44.000
  21051778.477    -1208886.630 9   -229549.24529       104.000
  21899151.453   -35330444.877 8 -13147923.15428        82.000
 96  6  6 17 12  0.0010000  0  7G 9G 2G27G26G24G 7G 4
  22662751.414   -12997088.412 8 -10615966.33726        74.000
  22179266.553      199905.834 8   4084268.55126        80.000
  24128786.928      708820.253 6  15812923.47223        32.000
  24150396.299    12202828.806 6   2210179.83625        40.000
  23987687.360    -6667369.186 6  -5533537.71725        40.000
  21056314.787    -1185041.399 9   -210968.55029       106.000
  21892318.463   -35366362.100 8 -13175910.58728        82.000
 96  6  6 17 12 15.0010000  0  7G 9G 2G27G26G24G 7G 4
  22656143.118   -13031842.205 8 -10643047.20526        76.000
  22183599.454      222639.160 8   4101982.81926        82.000
  24140239.060      768993.060 6  15859811.31124        30.000
  24156476.869    12234801.863 6   2235093.90225        36.000
  23977968.598    -6718421.708 7  -5573318.87425        44.000
  21060864.887    -1161123.694 9   -192331.37329       102.000
  21885504.510   -35402173.017 9 -13203815.18028        84.000
 96  6  6 17 12 30.0010000  0  7G 9G 2G27G26G24G 7G 4
  22649548.374   -13066512.684 8 -10670063.16326        74.000
  22187937.241      245441.303 8   4119750.71726        80.000
  24151702.644      829192.914 6  15906720.23624        34.000
  24162576.746    12266829.128 6   2260050.18025        34.000
  23968262.247    -6769454.871 7  -5613084.92925        42.000
  21065433.784    -1137135.688 9   -173639.43029       106.000
  21878710.404   -35437878.653 9 -13231637.75328        84.000
 96  6  6 17 12 45.0010000  0  7G 9G 2G27G26G24G 7G 4
  22642965.681   -13101069.803 8 -10696990.78826        78.000
  22192289.568      268342.461 8   4137595.76026        78.000
  24163165.688      889448.291 6  15953672.45524        28.000
  24168682.229    12298940.686 6   2285072.16125        34.000
  23958565.850    -6820435.769 7  -5652810.29625        42.000
  21070018.090    -1113050.658 9   -154871.88329       106.000
  21871936.773   -35473447.454 8 -13259353.68928        80.000
 96  6  6 17 13  0.0010000  0  7G 9G 2G27G26G24G 7G 4
  22636408.291   -13135542.536 8 -10723852.65926        76.000
  22196662.730      291314.548 8   4155496.08426        82.000
  24174632.600      949730.380 6  16000645.46124        24.000
  24174799.824    12331109.429 6   2310138.69325        32.000
  23948863.877    -6871393.925 6  -5692517.90425        38.000
  21074612.110    -1088899.109 9   -136052.49129       106.000
  21865198.008   -35508907.747 9 -13286985.07528        84.000
 96  6  6 17 13 15.0010000  0  7G 9G 2G27G26G24G 7G 4
  22629864.181   -13169927.195 8 -10750645.89326        76.000
  22201046.805      314360.664 8   4173454.08226        78.000
  24186105.148     1010041.830 6  16047641.29924        24.000
  24180939.604    12363340.454 6   2335253.71725        38.000
  23939174.314    -6922328.846 6  -5732207.37725        38.000
  21079221.898    -1064677.924 9   -117178.84129       108.000
  21858469.616   -35544254.930 9 -13314528.30328        84.000
 96  6  6 17 13 30.0010000  0  7G 9G 2G27G26G24G 7G 4
  22623336.290   -13204227.340 8 -10777373.27526        76.000
  22205449.947      337476.318 8   4191466.26126        80.000
  24197595.413     1070382.999 6  16094660.30025        26.000
  24187083.730    12395630.267 6   2360414.57425        38.000
  23929482.384    -6973242.268 6  -5771880.11925        40.000
  21083842.480    -1040390.028 9    -98253.21729       108.000
  21851764.458   -35579495.243 8 -13341988.27228        82.000
 96  6  6 17 13 45.0010000  0  7G 9G 2G27G26G24G 7G 4
  22616829.205   -13238443.492 8 -10804035.17926        78.000
  22209860.553      360661.794 8   4209532.85426        80.000
  24209070.239     1130758.827 6  16141706.38225        24.000
  24193239.759    12427977.101 6   2385619.89625        38.000
  23919790.843    -7024133.599 6  -5811535.63825        40.000
  21088477.421    -1016035.974 9    -79276.04529       108.000
  21845074.440   -35614629.908 8 -13369365.92328        82.000
 96  6  6 17 14  0.0010000  0  7G 9G 2G27G26G24G 7G 4
  22610326.197   -13272577.109 8 -10830632.79926        74.000
  22214283.302      383913.675 8   4227651.19426        78.000
  24220570.758     1191169.446 6  16188779.54125        26.000
  24199402.622    12460380.434 6   2410869.25925        36.000
  23910116.571    -7075003.408 6  -5851174.40925        40.000
  21093124.744     -991620.383 9    -60250.90829       108.000
  21838408.854   -35649660.458 9 -13396662.45728        84.000
 96  6  6 17 14 15.0010000  0  7G 9G 2G27G26G24G 7G 4
  22603849.960   -13306625.580 8 -10857164.09126        76.000
  22218723.648      407228.028 8   4245818.21526        80.000
  24232079.850     1251616.999 6  16235881.44225        26.000
  24205583.383    12492843.553 6   2436165.11525        36.000
  23900443.437    -7125849.081 6  -5890794.36525        40.000
  21097780.221     -967144.055 9    -41178.44929       108.000
  21831764.944   -35684584.937 8 -13423876.31328        82.000
 96  6  6 17 14 30.0010000  0  7G 9G 2G27G26G24G 7G 4
  22597389.163   -13340588.865 8 -10883628.96826        78.000
  22223173.797      430601.142 8   4264031.00926        80.000
  24243590.022     1312099.014 6  16283010.21325        28.000
  24211772.928    12525369.621 6   2461510.06825        34.000
  23890769.225    -7176668.028 7  -5930393.49625        44.000
  21102449.009     -942609.083 9    -22060.29329       108.000
  21825138.061   -35719408.323 9 -13451011.40128        84.000
 96  6  6 17 14 45.0010000  0  7G 9G 2G27G26G24G 7G 4
  22590940.387   -13374465.952 8 -10910026.69826        74.000
  22227629.672      454030.314 8   4282287.49526        78.000
  24255107.778     1372618.436 6  16330168.18925        28.000
  24217983.849    12557958.023 6   2486903.59525        36.000
  23881109.132    -7227458.899 7  -5969970.73325        46.000
  21107128.649     -918019.090 9     -2899.26829       110.000
  21818531.385   -35754132.372 8 -13478069.08128        82.000
 96  6  6 17 15  0.0010000  0  7G 9G 2G27G26G24G 7G 4
  22584513.497   -13408257.236 8 -10936357.58026        76.000
  22232094.901      477512.260 8   4300585.10826        78.000
  24266635.788     1433174.446 6  16377354.65425        30.000
  24224189.253    12590605.553 6   2512343.20625        36.000
  23871440.106    -7278225.155 7  -6009528.82925        42.000
  21111819.861     -893375.534 9     16303.50829       108.000
  21811939.668   -35788759.027 8 -13505050.87628        82.000
 96  6  6 17 15 15.0010000  0  7G 9G 2G27G26G24G 7G 4
  22578099.887   -13441964.061 8 -10962622.62626        74.000
  22236575.059      501043.040 8   4318920.75526        78.000
  24278161.848     1493766.593 6  16424569.24125        32.000
  24230412.884    12623310.785 6   2537827.79825        34.000
  23861793.744    -7328968.099 7  -6049068.72325        46.000
  21116518.508     -868678.403 9     35548.01629       108.000
  21805372.295   -35823286.095 9 -13531955.06828        84.000
 96  6  6 17 15 30.0010000  0  7G 9G 2G27G26G24G 7G 4
  22571703.275   -13475584.882 8 -10988820.64826        76.000
  22241061.693      524621.595 8   4337293.64426        78.000
  24289692.706     1554396.621 6  16471813.34625        30.000
  24236642.272    12656070.566 6   2563354.85625        34.000
  23852140.097    -7379682.781 7  -6088586.63025        50.000
  21121229.087     -843928.191 9     54833.88629       110.000
  21798817.752   -35857713.466 8 -13558781.58428        82.000
 96  6  6 17 15 45.0010000  0  7G 9G 2G27G26G24G 7G 4
  22565318.985   -13509120.943 8 -11014952.63826        76.000
  22245556.452      548246.046 8   4355702.30726        78.000
  24301240.861     1615061.636 6  16519084.71525        30.000
  24242885.839    12688881.711 6   2588921.95125        34.000
  23842494.515    -7430367.511 7  -6128081.17325        50.000
  21125947.071     -819126.383 9     74159.97429       108.000
  21792285.485   -35892041.769 8 -13585530.88928        82.000
 96  6  6 17 16  0.0010000  0  7G 9G 2G27G26G24G 7G 4
  22558952.802   -13542564.854 8 -11041012.81026        74.000
  22250058.615      571919.207 8   4374148.91426        74.000
  24312788.747     1675758.376 6  16566380.81225        32.000
  24249144.577    12721747.412 6   2614531.52625        36.000
  23832855.108    -7481019.736 7  -6167550.39325        48.000
  21130679.265     -794268.417 9     93529.81729       108.000
  21785774.322   -35926265.725 8 -13612198.89628        82.000
 96  6  6 17 16 15.0010000  0  7G 9G 2G27G26G24G 7G 4
  22552606.525   -13575914.581 8 -11066999.60926        72.000
  22254574.958      595640.654 8   4392633.13726        76.000
  24324344.727     1736483.356 6  16613698.96625        34.000
  24255413.926    12754668.410 6   2640184.22225        38.000
  23823217.919    -7531638.451 7  -6206993.48025        50.000
  21135420.753     -769352.700 9    112944.65029       108.000
  21779281.057   -35960385.881 9 -13638786.00728        84.000
 96  6  6 17 16 30.0010000  0  7G 9G 2G27G26G24G 7G 4
  22546281.684   -13609172.351 8 -11092914.76126        76.000
  22259100.955      619413.826 8   4411157.67626        76.000
  24335915.786     1797232.142 6  16661035.56325        36.000
  24261682.077    12787641.297 6   2665877.34325        38.000
  23813599.678    -7582225.552 7  -6246411.96425        52.000
  21140170.904     -744379.857 9    132403.99529       108.000
  21772809.857   -35994404.159 8 -13665293.74528        82.000
 96  6  6 17 16 45.0010000  0  7G 9G 2G27G26G24G 7G 4
  22539968.894   -13642340.677 8 -11118760.19726        72.000
  22263635.766      643242.223 8   4429725.23026        78.000
  24347468.888     1858004.492 6  16708390.60125        36.000
  24267971.183    12820662.966 6   2691608.52625        36.000
  23803976.910    -7632783.304 7  -6285807.58025        52.000
  21144934.486     -719350.857 9    151907.10829       106.000
  21766356.405   -36028320.557 9 -13691722.10628        84.000
 96  6  6 17 17  0.0010000  0  7G 9G 2G27G26G24G 7G 4
  22533674.961   -13675417.860 8 -11144534.62926        74.000
  22268175.733      667128.551 8   4448337.95026        74.000
  24359041.387     1918802.920 6  16755765.96225        34.000
  24274256.692    12853732.707 6   2717377.11125        32.000
  23794356.690    -7683310.122 7  -6325179.08025        50.000
  21149710.090     -694261.844 9    171456.98629       108.000
  21759920.910   -36062128.568 9 -13718065.98728        86.000
 96  6  6 17 17 15.0010000  0  7G 9G 2G27G26G24G 7G 4
  22527392.631   -13708400.268 8 -11170235.19426        74.000
  22272733.897      691078.859 8   4467000.51526        72.000
  24370609.538     1979625.094 6  16803159.82425        32.000
  24280562.616    12886850.900 6   2743183.44725        32.000
  23784747.382    -7733802.830 7  -6364524.00126        50.000
  21154494.448     -669109.034 9    191056.57729       108.000
  21753508.799   -36095826.061 9 -13744323.77128        86.000
 96  6  6 17 17 30.0010000  0  7G 9G 2G27G26G24G 7G 4
  22521136.562   -13741288.985 8 -11195862.77126        72.000
  22277304.983      715090.721 8   4485711.04226        72.000
  24382187.763     2040468.349 6  16850570.12225        32.000
  24286871.479    12920015.385 6   2769025.86825        32.000
  23775153.064    -7784263.495 7  -6403843.93326        52.000
  21159293.466     -643897.332 9    210702.05129       106.000
  21747114.226   -36129417.407 9 -13770498.83928        88.000
 96  6  6 17 17 45.0010000  0  7G 9G 2G27G26G24G 7G 4
  22514899.859   -13774080.491 8 -11221414.59526        74.000
  22281888.839      739168.061 8   4504472.59426        74.000
  24393778.549     2101332.354 6  16897996.59525        32.000
  24293188.016    12953227.275 6   2794905.25925        34.000
  23765556.827    -7834691.319 7  -6443138.31626        54.000
  21164101.477     -618624.930 9    230394.83829       106.000
  21740743.187   -36162903.867 9 -13796592.15528        84.000
 96  6  6 17 18  0.0010000  0  7G 9G 2G27G26G24G 7G 4
  22508674.459   -13806777.320 8 -11246892.62927        76.000
  22286481.330      763308.931 8   4523283.63826        74.000
  24405359.891     2162212.406 6  16945435.49224        30.000
  24299516.845    12986483.645 6   2820819.34725        36.000
  23755959.302    -7885092.880 7  -6482412.22725        52.000
  21168920.821     -593296.268 9    250131.43729       106.000
  21734391.364   -36196285.597 9 -13822603.88228        88.000
 96  6  6 17 18 15.0010000  0  7G 9G 2G27G26G24G 7G 4
  22502473.342   -13839375.125 8 -11272293.51527        76.000
  22291087.461      787518.623 8   4542148.31626        74.000
  24416950.797     2223115.429 6  16992892.30724        30.000
  24305856.766    13019790.072 6   2846772.31125        36.000
  23746373.528    -7935463.359 7  -6521661.92726        52.000
  21173751.557     -567909.656 9    269913.20529       106.000
  21728062.745   -36229557.171 9 -13848529.78228        88.000
 96  6  6 17 18 30.0010000  0  7G 9G 2G27G26G24G 7G 4
  22496289.283   -13871878.224 8 -11297620.60227        74.000
  22295711.280      811796.048 8   4561065.76426        76.000
  24428547.339     2284041.863 6  17040367.44624        28.000
  24312202.353    13053145.056 6   2872763.13725        36.000
  23736801.424    -7985805.065 7  -6560889.16126        50.000
  21178594.884     -542468.573 9    289737.42629       106.000
  21721744.469   -36262717.889 9 -13874369.28228        86.000
 96  6  6 17 18 45.0010000  0  7G 9G 2G27G26G24G 7G 4
  22490120.094   -13904286.712 8 -11322873.94127        76.000
  22300345.802      836138.209 8   4580033.68626        76.000
  24440144.810     2344991.216 6  17087860.37524        26.000
  24318563.079    13086547.643 6   2898791.13224        34.000
  23727218.528    -8036119.936 7  -6600095.54225        50.000
  21183445.076     -516974.618 9    309602.85529       106.000
  21715460.010   -36295767.723 9 -13900122.37228        88.000
 96  6  6 17 19  0.0010000  0  7G 9G 2G27G26G24G 7G 4
  22483974.678   -13936596.985 8 -11348050.78127        80.000
  22304982.722      860541.025 8   4599048.84426        72.000
  24451753.643     2405966.749 6  17135373.76224        24.000
  24324932.769    13120001.397 6   2924858.94224        36.000
  23717651.731    -8086403.694 7  -6639277.62225        50.000
  21188307.470     -491425.605 9    329511.17029       106.000
  21709192.159   -36328705.304 9 -13925788.01728        88.000
 96  6  6 17 19 15.0010000  0  7G 9G 2G27G26G24G 7G 4
  22477844.852   -13968802.607 8 -11373146.07227        76.000
  22309642.246      885006.767 8   4618113.04326        76.000
  24463359.868     2466970.416 5  17182909.01523        20.000
  24331307.946    13153508.865 6   2950968.65924        34.000
  23708095.097    -8136651.576 7  -6678431.78725        52.000
  21193181.016     -465819.289 9    349464.13129       104.000
  21702945.593   -36361529.458 9 -13951365.27028        90.000
 96  6  6 17 19 30.0010000  0  7G 9G 2G27G26G24G 7G 4
  22471734.032   -14000902.656 8 -11398159.08627        76.000
  22314307.826      909534.672 8   4637225.67326        74.000
  24474960.997     2528003.959 5  17230467.52523        20.000
  24337688.099    13187071.412 6   2977121.26724        34.000
  23698535.465    -8186865.013 7  -6717559.11525        46.000
  21198062.507     -440159.867 9    369458.49129       104.000
  21696720.793   -36394242.481 9 -13976855.92928        86.000
 96  6  6 17 19 45.0010000  0  7G 9G 2G27G26G24G 7G 4
  22465646.417   -14032900.090 8 -11423092.15327        76.000
  22318987.137      934120.425 8   4656383.40426        76.000
  24486585.929     2589066.474 5  17278048.62123        20.000
  24344091.366    13220687.438 6   3003315.55224        36.000
  23688984.527    -8237048.088 7  -6756662.79425        48.000
  21202954.910     -414451.457 9    389491.01929       104.000
  21690517.247   -36426846.516 9 -14002261.65328        88.000
 96  6  6 17 20  0.0010000  0  7G 9G 2G27G26G24G 7G 4
  22459580.026   -14064792.841 8 -11447943.62827        78.000
  22323672.443      958770.444 8   4675591.19326        72.000
  24498211.761     2650162.077 6  17325655.54923        22.000
  24350496.462    13254360.580 6   3029554.33524        34.000
  23679448.219    -8287194.270 7  -6795737.71125        50.000
  21207857.776     -388687.639 9    409566.71329       104.000
  21684334.598   -36459335.585 9 -14027577.79428        88.000
 96  6  6 17 20 15.0010000  0  7G 9G 2G27G26G24G 7G 4
  22453528.746   -14096581.814 8 -11472714.26927        76.000
  22328381.073      983482.537 8   4694847.34426        74.000
  24509857.858     2711290.859 6  17373288.24923        24.000
  24356914.269    13288093.487 6   3055839.63224        34.000
  23669907.924    -8337301.229 7  -6834782.06125        46.000
  21212772.873     -362867.433 9    429686.34329       104.000
  21678172.843   -36491709.492 9 -14052804.21028        86.000
 96  6  6 17 20 30.0010000  0  7G 9G 2G27G26G24G 7G 4
  22447498.420   -14128272.465 8 -11497408.27727        76.000
  22333093.031     1008253.423 8   4714149.32126        74.000
  24521489.086     2772450.535 6  17420945.07423        22.000
  24363345.627    13321885.058 6   3082170.75924        36.000
  23660372.635    -8387371.797 7  -6873798.04125        44.000
  21217693.756     -336991.463 9    449849.43429       102.000
  21672036.331   -36523974.001 9 -14077945.37628        88.000
 96  6  6 17 20 45.0010000  0  7G 9G 2G27G26G24G 7G 4
  22441487.132   -14159867.628 8 -11522027.87027        78.000
  22337820.459     1033082.916 8   4733496.97326        74.000
  24533131.317     2833637.365 6  17468623.08123        24.000
  24369789.246    13355730.543 6   3108543.82424        40.000
  23650859.770    -8437409.682 7  -6912788.59025        44.000
  21222628.520     -311059.098 9    470056.46829       102.000
  21665915.109   -36556131.206 9 -14103002.93828        86.000
 96  6  6 17 21  0.0010000  0  7G 9G 2G27G26G24G 7G 4
  22435493.681   -14191362.525 8 -11546569.34827        76.000
  22342556.700     1057978.771 8   4752896.32026        74.000
  24544780.232     2894856.616 6  17516326.33324        26.000
  24376236.043    13389632.783 6   3134961.12224        36.000
  23641348.345    -8487407.687 7  -6951748.00725        48.000
  21227575.275     -285066.436 9    490310.47729       102.000
  21659816.941   -36588178.026 9 -14127974.47228        86.000
 96  6  6 17 21 15.0010000  0  7G 9G 2G27G26G24G 7G 4
  22429523.344   -14222761.180 8 -11571035.83527        80.000
  22347304.573     1082941.919 8   4772348.11226        72.000
  24556434.094     2956104.803 6  17564052.19224        26.000
  24382700.917    13423586.549 6   3161418.63024        34.000
  23631837.639    -8537367.321 7  -6990677.55725        42.000
  21232532.823     -259016.578 9    510609.06429       104.000
  21653739.668   -36620116.004 9 -14152861.19028        88.000
 96  6  6 17 21 30.0010000  0  7G 9G 2G27G26G24G 7G 4
  22423561.521   -14254067.381 8 -11595430.25427        80.000
  22352071.513     1107970.791 8   4791851.12326        72.000
  24568092.154     3017377.320 6  17611796.89824        28.000
  24389164.623    13457588.272 6   3187913.35024        34.000
  23622343.512    -8587291.954 7  -7029579.81225        46.000
  21237498.556     -232913.722 9    530948.95829       102.000
  21647683.231   -36651946.937 9 -14177664.51028        88.000
 96  6  6 17 21 45.0010000  0  7G 9G 2G27G26G24G 7G 4
  22417617.506   -14285283.496 8 -11619754.50327        78.000
  22356843.579     1133064.458 8   4811404.60726        72.000
  24579751.442     3078671.537 6  17659558.57524        26.000
  24395645.446    13491636.873 6   3214444.71424        34.000
  23612840.601    -8637180.449 7  -7068453.98225        42.000
  21242477.149     -206757.858 9    551330.13929       102.000
  21641645.321   -36683666.362 9 -14202380.92728        88.000
 96  6  6 17 22  0.0010000  0  7G 9G 2G27G26G24G 7G 4
  22411698.764   -14316410.993 8 -11644009.69627        82.000
  22361632.704     1158222.110 8   4831007.98226        70.000
  24591428.628     3139983.716 6  17707334.29924        30.000
  24402133.255    13525729.184 6   3241010.14324        34.000
  23603348.662    -8687030.412 7  -7107298.08825        44.000
  21247467.584     -180547.203 9    571754.02329       102.000
  21635632.503   -36715273.269 9 -14227009.67128        88.000
 96  6  6 17 22 15.0010000  0  7G 9G 2G27G26G24G 7G 4
  22405791.713   -14347446.005 8 -11668192.80527        80.000
  22366433.790     1183445.245 8   4850662.34726        72.000
  24603093.583     3201314.458 6  17755124.44424        28.000
  24408629.308    13559866.268 6   3267610.49324        34.000
  23593881.845    -8736838.933 7  -7146109.89025        42.000
  21252462.576     -154280.193 9    592221.82929       100.000
  21629634.616   -36746763.229 9 -14251547.29428        88.000
 96  6  6 17 22 30.0010000  0  7G 9G 2G27G26G24G 7G 4
  22399903.909   -14378386.745 8 -11692302.46827        80.000
  22371242.221     1208733.104 8   4870367.15526        70.000
  24614776.825     3262662.394 6  17802927.92024        32.000
  24415127.189    13594045.497 6   3294243.62424        34.000
  23584409.303    -8786608.166 7  -7184891.03825        46.000
  21257473.457     -127957.264 9    612733.19929       102.000
  21623668.836   -36778136.967 9 -14275994.35728        88.000
 96  6  6 17 22 45.0010000  0  7G 9G 2G27G26G24G 7G 4
  22394032.894   -14409232.418 8 -11716338.06527        78.000
  22376065.372     1234084.694 8   4890121.62226        72.000
  24626447.145     3324025.050 6  17850742.88825        30.000
  24421647.046    13628260.361 6   3320904.47124        36.000
  23574943.596    -8836340.625 7  -7223643.57625        46.000
  21262492.313     -101579.969 9    633286.92529       102.000
  21617721.673   -36809393.412 9 -14300350.01328        90.000
 96  6  6 17 23  0.0010000  0  7G 9G 2G27G26G24G 7G 4
  22388181.874   -14439977.173 8 -11740295.01027        82.000
  22380906.451     1259497.259 8   4909923.60526        72.000
  24638130.267     3385401.015 6  17898568.24625        30.000
  24428166.003    13662510.540 6   3347592.86624        30.000
  23565489.161    -8886031.223 7  -7262363.50225        46.000
  21267520.282      -75149.799 9    653881.85829       100.000
  21611796.844   -36840531.959 9 -14324613.81128        90.000
 96  6  6 17 23 15.0010000  0  7G 9G 2G27G26G24G 7G 4
  22382353.609   -14470616.984 9 -11764170.17427        84.000
  22385748.879     1284969.255 8   4929771.91926        70.000
  24649807.423     3446792.798 6  17946405.99725        28.000
  24434682.172    13696800.385 6   3374312.20924        30.000
  23556040.542    -8935674.274 7  -7301046.31725        44.000
  21272564.440      -48665.648 9    674518.85329       104.000
  21605892.732   -36871549.717 9 -14348783.47128        90.000
 96  6  6 17 23 30.0010000  0  8G 9G 2G27G26G24G 7G 4G 5
  22376541.353   -14501149.392 8 -11787961.65027        80.000
  22390611.962     1310498.353 8   4949664.70026        72.000
  24661494.023     3508200.195 6  17994255.85925        26.000
  24441221.754    13731131.409 6   3401063.65424        34.000
  23546605.504    -8985270.723 7  -7339692.88525        46.000
  21277610.667      -22126.114 9    695199.01229       100.000
  21600014.341   -36902444.665 9 -14372857.44328        88.000
  25041728.112    -1612000.987 6  -1804545.32222        28.000
 96  6  6 17 23 45.0010000  0  8G 9G 2G27G26G24G 7G 4G 5
  22370749.722   -14531576.397 8 -11811671.02727        78.000
  22395478.253     1336082.847 8   4969600.65226        70.000
  24673180.203     3569621.313 6  18042116.41325        26.000
  24447760.767    13765501.351 6   3427845.39824        36.000
  23537178.410    -9034823.471 7  -7378305.34725        48.000
  21282671.313        4466.646 9    715920.62429       102.000
  21594156.337   -36933219.058 9 -14396837.49028        90.000
  25034407.121    -1650468.041 6  -1834519.67222        28.000
 96  6  6 17 24  0.0010000  0  8G 9G 2G27G26G24G 7G 4G 5
  22364982.825   -14561896.115 8 -11835296.76227        82.000
  22400358.455     1361725.092 8   4989581.62626        72.000
  24684879.514     3631058.876 6  18089989.74125        24.000
  24454315.969    13799911.268 6   3454658.33624        36.000
  23527756.383    -9084333.673 7  -7416884.71425        50.000
  21287745.241       31115.241 9    736685.76529       104.000
  21588323.934   -36963874.640 9 -14420724.94028        92.000
  25027084.030    -1688946.703 6  -1864503.09922        26.000
 96  6  6 17 24 15.0010000  0  8G 9G 2G27G26G24G 7G 4G 5
  22359234.544   -14592107.869 9 -11858838.37327        84.000
  22405251.367     1387425.452 8   5009607.84726        72.000
  24696564.164     3692512.656 6  18137875.75325        26.000
  24460869.882    13834363.490 6   3481504.16224        34.000
  23518335.825    -9133802.476 7  -7455431.78825        48.000
  21292825.134       57820.475 9    757495.03729       102.000
  21582513.956   -36994415.963 9 -14444523.36328        92.000
  25019767.385    -1727436.303 6  -1894494.88921        24.000
 96  6  6 17 24 30.0010000  0  8G 9G 2G27G26G24G 7G 4G 5
  22353502.392   -14622209.121 8 -11882293.90327        80.000
  22410150.636     1413187.564 8   5029682.22426        72.000
  24708270.670     3753988.222 6  18185778.75325        28.000
  24467431.350    13868862.982 6   3508386.81225        30.000
  23508932.774    -9183228.288 7  -7493945.35025        48.000
  21297916.239       84584.975 9    778350.47129       102.000
  21576721.636   -37024840.620 9 -14468230.87728        90.000
  25012432.303    -1765933.784 6  -1924492.97821        22.000
 96  6  6 17 24 45.0010000  0  8G 9G 2G27G26G24G 7G 4G 5
  22347799.350   -14652202.301 9 -11905665.20927        84.000
  22415064.534     1439009.944 8   5049803.54826        70.000
  24719975.347     3815485.703 6  18233698.78125        24.000
  24474002.291    13903408.937 6   3535305.70325        30.000
  23499543.185    -9232611.733 7  -7532425.91425        50.000
  21303022.994      111406.851 9    799250.63729       102.000
  21570954.949   -37055151.648 9 -14491849.83228        92.000
  25005105.196    -1804441.176 5  -1954498.62721        20.000
 96  6  6 17 25  0.0010000  0  8G 9G 2G27G26G24G 7G 4G 5
  22342109.469   -14682089.100 8 -11928953.62527        82.000
  22419988.385     1464891.420 8   5069970.91626        70.000
  24731681.193     3877003.877 6  18281634.93425        22.000
  24480585.613    13938002.592 6   3562261.76425        32.000
  23490142.653    -9281955.303 7  -7570875.39825        48.000
  21308137.423      138281.569 9    820191.97329       104.000
  21565208.287   -37085348.670 9 -14515379.97328        92.000
  24997773.262    -1842961.106 5  -1984514.11021        20.000
 96  6  6 17 25 15.0010000  0  8G 9G 2G27G26G24G 7G 4G 5
  22336445.221   -14711874.572 9 -11952163.07627        84.000
  22424925.907     1490831.615 8   5090184.03326        70.000
  24743383.142     3938543.206 6  18329587.55725        22.000
  24487186.174    13972643.960 6   3589254.99725        34.000
  23480760.588    -9331261.315 7  -7609295.64125        46.000
  21313261.146      165206.405 9    841172.35829       104.000
  21559481.082   -37115433.299 9 -14538822.54328        88.000
  24990446.094    -1881495.163 5  -2014540.61422        20.000
 96  6  6 17 25 30.0010000  0  8G 9G 2G27G26G24G 7G 4G 5
  22330795.782   -14741558.242 9 -11975293.20227        84.000
  22429876.500     1516837.165 8   5110448.09526        72.000
  24755099.361     4000108.466 5  18377560.49825        18.000
  24493782.447    14007334.603 6   3616286.68225        32.000
  23471386.287    -9380531.504 7  -7647687.93426        46.000
  21318398.180      192185.435 9    862194.97929       104.000
  21553781.158   -37145399.686 9 -14562172.94828        92.000
  24983110.742    -1920040.995 5  -2044576.27222        18.000
 96  6  6 17 25 45.0010000  0  8G 9G 2G27G26G24G 7G 4G 5
  22325163.851   -14771141.232 8 -11998344.87727        82.000
  22434833.868     1542907.533 8   5130762.64926        68.000
  24766823.945     4061696.367 5  18425551.00024        16.000
  24500394.999    14042072.562 6   3643355.19325        34.000
  23462015.854    -9429769.806 7  -7686055.37026        46.000
  21323538.481      219218.383 9    883259.60329       104.000
  21548101.020   -37175250.546 9 -14585433.35728        92.000
  24975778.268    -1958597.722 5  -2074620.46822        20.000
 96  6  6 17 26  0.0010000  0  8G 9G 2G27G26G24G 7G 4G 5
  22319552.845   -14800623.116 9 -12021317.77527        86.000
  22439808.684     1569043.575 8   5151128.37026        68.000
  24778551.076     4123305.726 5  18473558.17024        20.000
  24507016.725    14076858.727 6   3670461.24025        30.000
  23452657.293    -9478975.546 7  -7724397.48226        48.000
  21328692.364      246305.070 9    904366.10829       104.000
  21542442.527   -37204985.848 9 -14608603.71728        92.000
  24968435.392    -1997162.460 5  -2104670.89521        20.000
 96  6  6 17 26 15.0010000  0  8G 9G 2G27G26G24G 7G 4G 5
  22313962.405   -14830005.903 8 -12044213.44227        82.000
  22444792.793     1595240.702 8   5171541.72126        70.000
  24790270.923     4184933.850 6  18521579.97524        22.000
  24513642.019    14111691.080 6   3697603.30425        28.000
  23443292.766    -9528149.339 7  -7762714.67026        44.000
  21333855.239      273442.245 9    925511.96129       104.000
  21536803.431   -37234606.620 9 -14631684.81628        92.000
  24961096.682    -2035737.271 5  -2134729.18121        20.000
 96  6  6 17 26 30.0010000  0  8G 9G 2G27G26G24G 7G 4G 5
  22308393.281   -14859288.305 9 -12067030.89227        84.000
  22449791.773     1621501.606 8   5192004.74926        68.000
  24802005.249     4246584.338 5  18569619.30623        18.000
  24520283.201    14146569.470 6   3724781.26425        30.000
  23433945.507    -9577289.199 7  -7801005.42325        46.000
  21339031.786      300630.874 9    946697.90629       106.000
  21531191.946   -37264106.037 9 -14654671.35628        92.000
  24953744.242    -2074323.407 5  -2164796.26721        18.000
 96  6  6 17 26 45.0010000  0  8G 9G 2G27G26G24G 7G 4G 5
  22302834.799   -14888469.993 8 -12089769.86727        82.000
  22454798.007     1647827.966 8   5212518.76626        68.000
  24813739.636     4308259.426 5  18617677.82123        18.000
  24526921.566    14181490.642 6   3751992.49025        32.000
  23424604.963    -9626394.635 7  -7839269.38325        46.000
  21344218.375      327869.034 9    967922.42629       108.000
  21525600.367   -37293482.415 9 -14677562.03128        92.000
  24946407.392    -2112921.510 6  -2194872.64122        22.000
 96  6  6 17 27  0.0010000  0  8G 9G 2G27G26G24G 7G 4G 5
  22297306.506   -14917549.574 8 -12112429.26927        82.000
  22459824.027     1674219.380 8   5233083.50326        68.000
  24825477.949     4369955.505 5  18665752.70523        16.000
  24533589.489    14216453.106 6   3779235.97024        34.000
  23415267.867    -9675465.475 7  -7877506.33126        44.000
  21349406.463      355156.264 9    989185.21029       106.000
  21520031.242   -37322737.682 9 -14700358.33028        92.000
  24939060.558    -2151532.995 5  -2224959.46022        20.000
 96  6  6 17 27 15.0010000  0  7G 9G 2G26G24G 7G 4G 5
  22291786.697   -14946527.259 8 -12135009.27727        82.000
  22464855.534     1700676.474 8   5253699.40126        68.000
  24540237.237    14251455.928 6   3806510.87425        32.000
  23405931.940    -9724496.755 7  -7915712.46126        48.000
  21354610.711      382494.541 9   1010487.76329       104.000
  21514488.889   -37351871.010 9 -14723059.63028        94.000
  24931700.923    -2190156.266 6  -2255055.48822        24.000
 96  6  6 17 27 30.0010000  0  7G 9G 2G26G24G 7G 4G 5
  22286293.480   -14975403.941 8 -12157510.58827        82.000
  22469903.499     1727198.793 8   5274366.13326        68.000
  24546904.951    14286495.374 6   3833814.30025        32.000
  23396610.404    -9773485.144 7  -7953885.19726        46.000
  21359822.692      409882.230 9   1031828.80929       106.000
  21508970.520   -37380884.367 9 -14745667.42428        94.000
  24924355.348    -2228790.157 6  -2285159.79323        24.000
 96  6  6 17 27 45.0010000  0  7G 9G 2G26G24G 7G 4G 5
  22280815.432   -15004181.020 8 -12179934.28127        82.000
  22474963.337     1753784.487 8   5295082.24426        66.000
  24553577.792    14321567.349 6   3861143.09425        30.000
  23387296.811    -9822431.997 7  -7992025.54826        48.000
  21365041.330      437316.372 9   1053206.05329       106.000
  21503469.148   -37409783.599 9 -14768186.29328        94.000
  24917001.709    -2267436.719 6  -2315273.89223        24.000
 96  6  6 17 28  0.0010000  0  7G 9G 2G26G24G 7G 4G 5
  22275362.298   -15032856.464 9 -12202278.78027        84.000
  22480033.307     1780437.424 8   5315850.75426        68.000
  24560259.626    14356674.511 6   3888499.30325        32.000
  23377986.217    -9871330.026 7  -8030127.86026        48.000
  21370271.359      464799.624 9   1074621.57229       104.000
  21497989.542   -37438567.448 9 -14790615.26428        92.000
  24909645.971    -2306094.034 6  -2345396.44423        24.000
 96  6  6 17 28 15.0010000  0  7G 9G 2G26G24G 7G 4G 5
  22269921.634   -15061431.705 9 -12224545.18727        84.000
  22485120.155     1807158.064 8   5336672.01626        68.000
  24566947.786    14391812.476 6   3915879.52424        32.000
  23368702.394    -9920177.799 7  -8068191.03526        52.000
  21375509.753      492329.572 9   1096073.47329       104.000
  21492539.794   -37467236.190 9 -14812954.52228        96.000
  24902286.935    -2344766.038 6  -2375530.41723        26.000
 96  6  6 17 28 30.0010000  0  7G 9G 2G26G24G 7G 4G 5
  22264501.057   -15089905.751 8 -12246732.75427        82.000
  22490215.728     1833947.800 8   5357547.11826        68.000
  24573642.751    14426982.608 6   3943284.75624        32.000
  23359408.588    -9968972.646 7  -8106212.95626        48.000
  21380758.069      519907.336 9   1117562.60429       104.000
  21487105.456   -37495788.296 9 -14835202.90728        94.000
  24894924.542    -2383454.873 6  -2405677.57323        28.000
 96  6  6 17 28 45.0010000  0  7G 9G 2G26G24G 7G 4G 5
  22259101.495   -15118277.361 8 -12268840.50227        80.000
  22495327.849     1860806.890 8   5378476.24726        66.000
  24580336.967    14462184.092 6   3970714.42724        32.000
  23350137.566   -10017714.320 7  -8144193.42426        52.000
  21386015.110      547532.550 9   1139088.76629       104.000
  21481693.663   -37524226.026 9 -14857362.17428        92.000
  24887552.466    -2422159.288 6  -2435836.90224        26.000
 96  6  6 17 29  0.0010000  0  7G 9G 2G26G24G 7G 4G 5
  22253728.105   -15146545.684 8 -12290867.74327        82.000
  22500453.040     1887733.276 8   5399457.82926        66.000
  24587038.378    14497417.411 6   3998168.95124        28.000
  23340871.041   -10066400.577 7  -8182130.73226        50.000
  21391281.264      575204.900 9   1160651.63229       104.000
  21476300.487   -37552551.465 9 -14879433.92828        92.000
  24880194.630    -2460877.582 6  -2466006.92224        30.000
 96  6  6 17 29 15.0010000  0  7G 9G 2G26G24G 7G 4G 5
  22248369.344   -15174709.953 9 -12312813.94327        84.000
  22505591.363     1914726.077 8   5420491.17426        66.000
  24593755.977    14532685.483 6   4025650.55724        32.000
  23331614.799   -10115028.163 7  -8220022.31726        48.000
  21396555.663      602925.066 9   1182251.75129       104.000
  21470937.379   -37580759.916 9 -14901414.53528        94.000
  24872828.489    -2499604.486 6  -2496183.67624        30.000
 96  6  6 17 29 30.0010000  0  7G 9G 2G26G24G 7G 4G 5
  22243028.032   -15202771.697 8 -12334680.20727        82.000
  22510739.879     1941786.330 8   5441577.08826        68.000
  24600475.285    14567986.986 6   4053158.28324        34.000
  23322372.228   -10163601.120 7  -8257871.32826        50.000
  21401839.205      630690.058 9   1203886.81529       106.000
  21465587.673   -37608848.530 9 -14923301.73828        94.000
  24865447.209    -2538338.031 6  -2526365.61124        30.000
 96  6  6 17 29 45.0010000  0  7G 9G 2G26G24G 7G 4G 5
  22237706.146   -15230731.194 9 -12356466.84127        86.000
  22515901.436     1968911.859 8   5462713.86026        68.000
  24607186.889    14603317.670 6   4080688.61924        34.000
  23313141.018   -10212127.438 7  -8295684.02026        50.000
  21407129.343      658496.245 9   1225553.96029       104.000
  21460262.789   -37636820.905 9 -14945098.41028        94.000
  24858079.510    -2577081.216 6  -2556555.10325        30.000
 96  6  6 17 30  0.0010000  0  7G 9G 2G26G24G 7G 4G 5
  22232410.433   -15258579.473 9 -12378166.80027        86.000
  22521078.882     1996107.401 8   5483905.18826        68.000
  24613923.915    14638685.790 6   4108248.14823        32.000
  23303920.601   -10260601.810 7  -8333456.21626        50.000
  21412432.911      686351.735 9   1247259.54229       104.000
  21454966.955   -37664668.365 9 -14966797.68829        96.000
  24850698.949    -2615827.023 6  -2586746.58325        30.000
 96  6  6 17 30 15.0010000  0  7G 9G 2G26G24G 7G 4G 5
  22227130.818   -15286320.848 9 -12399783.45227        84.000
  22526261.454     2023362.186 8   5505142.65126        66.000
  24620659.682    14674085.058 6   4135831.98923        30.000
  23294697.097   -10309032.856 7  -8371194.67526        52.000
  21417740.976      714244.898 9   1268994.45229       102.000
  21449693.636   -37692394.991 9 -14988402.84929        94.000
  24843330.530    -2654582.321 6  -2616945.53825        30.000
 96  6  6 17 30 30.0010000  0  7G 9G 2G26G24G 7G 4G 5
  22221868.860   -15313951.584 9 -12421313.88627        84.000
  22531462.133     2050675.601 8   5526425.83126        66.000
  24627391.851    14709518.947 6   4163442.76524        32.000
  23285493.498   -10357420.377 7  -8408899.20226        52.000
  21423055.667      742175.853 9   1290758.83929       102.000
  21444439.144   -37719995.888 9 -15009910.03629        94.000
  24835954.257    -2693342.107 6  -2647147.92724        30.000
 96  6  6 17 30 45.0010000  0  7G 9G 2G26G24G 7G 4G 5
  22216633.854   -15341474.466 9 -12442760.28428        84.000
  22536670.608     2078043.229 8   5547751.21126        68.000
  24634149.233    14744983.965 6   4191077.86623        28.000
  23276289.270   -10405768.155 7  -8446572.75425        50.000
  21428375.964      770141.180 9   1312549.98429       102.000
  21439208.575   -37747474.252 9 -15031321.75929        94.000
  24828575.015    -2732106.425 6  -2677353.88224        30.000
 96  6  6 17 31  0.0010000  0  7G 9G 2G26G24G 7G 4G 5
  22211411.320   -15368906.825 9 -12464136.14827        84.000
  22541884.538     2105448.162 8   5569105.70826        66.000
  24640902.088    14780461.393 6   4218722.54223        30.000
  23267096.075   -10454091.433 7  -8484227.21025        52.000
  21433701.267      798125.705 9   1334356.11129       100.000
  21434002.529   -37774846.121 9 -15052650.45929        94.000
  24821196.433    -2770888.822 6  -2707573.89125        30.000
 96  6  6 17 31 15.0010000  0  7G 9G 2G26G24G 7G 4G 5
  22206212.079   -15396232.661 9 -12485428.99327        86.000
  22547108.691     2132904.981 8   5590500.63526        66.000
  24647659.980    14815965.557 6   4246388.09523        30.000
  23257904.138   -10502376.376 7  -8521851.83325        52.000
  21439034.695      826146.348 9   1356190.36529        98.000
  21428815.849   -37802094.748 9 -15073883.14329        96.000
  24813819.800    -2809673.804 6  -2737795.89525        28.000
 96  6  6 17 31 30.0010000  0  7G 9G 2G26G24G 7G 4G 5
  22201033.584   -15423443.773 9 -12506632.44127        84.000
  22552345.886     2160422.584 8   5611942.90826        66.000
  24654418.891    14851501.157 6   4274078.14523        32.000
  23248727.401   -10550616.356 7  -8559441.38325        52.000
  21444373.249      854210.312 9   1378058.39029        96.000
  21423654.832   -37829213.640 9 -15095014.73529        92.000
  24806432.794    -2848455.891 6  -2768015.65025        30.000
 96  6  6 17 31 45.0010000  0  7G 9G 2G26G24G 7G 4G 5
  22195877.963   -15450540.454 9 -12527746.74127        86.000
  22557592.134     2187998.076 8   5633430.27426        68.000
  24661193.241    14887066.030 6   4301791.05923        32.000
  23239554.531   -10598811.155 7  -8596995.74426        50.000
  21449721.936      882319.800 9   1399961.87629        98.000
  21418519.957   -37856206.179 9 -15116047.87429        94.000
  24799047.677    -2887241.415 6  -2798238.11225        26.000
 96  6  6 17 32  0.0010000  0  7G 9G 2G26G24G 7G 4G 5
  22190744.527   -15477522.105 9 -12548771.40427        86.000
  22562850.194     2215628.643 8   5654960.56926        68.000
  24667959.197    14922659.949 6   4329526.53223        32.000
  23230394.493   -10646957.040 7  -8634511.99026        50.000
  21455079.797      910477.166 9   1421902.66929        96.000
  21413404.598   -37883073.396 9 -15136983.36129        92.000
  24791678.598    -2926034.877 6  -2828466.77125        30.000
 96  6  6 17 32 15.0010000  0  7G 9G 2G26G24G 7G 4G 5
  22185631.747   -15504388.669 9 -12569706.38827        86.000
  22568114.909     2243314.412 8   5676533.89126        66.000
  24674740.053    14958285.677 6   4357286.87123        30.000
  23221241.559   -10695051.050 7  -8671987.78626        52.000
  21460448.930      938685.493 9   1443883.17229        96.000
  21408317.270   -37909811.381 9 -15157818.15829        94.000
  24784289.493    -2964837.772 6  -2858702.76925        28.000
 96  6  6 17 32 30.0010000  0  7G 9G 2G26G24G 7G 4G 5
  22180542.440   -15531137.376 9 -12590549.52127        88.000
  22573398.332     2271063.581 8   5698156.59926        68.000
  24681528.763    14993946.971 6   4385074.82023        28.000
  23212101.517   -10743086.297 7  -8709417.81826        52.000
  21465825.348      966952.209 9   1465909.18729        96.000
  21403257.013   -37936414.741 9 -15178548.01929        94.000
  24776905.275    -3003645.232 6  -2888942.31125        26.000
 96  6  6 17 32 45.0010000  0  7G 9G 2G26G24G 7G 4G 5
  22175472.320   -15557776.371 9 -12611307.19327        88.000
  22578688.739     2298875.940 8   5719828.56526        66.000
  24688322.240    15029639.125 6   4412886.86823        30.000
  23202972.566   -10791064.604 7  -8746803.47726        50.000
  21471216.666      995276.683 9   1487980.19729        96.000
  21398217.173   -37962889.833 9 -15199177.96529        94.000
  24769509.216    -3042463.380 6  -2919190.21625        24.000
 96  6  6 17 33  0.0010000  0  7G 9G 2G26G24G 7G 4G 5
  22170422.736   -15584308.376 9 -12631981.46127        86.000
  22583995.215     2326751.028 8   5741549.40626        68.000
  24695114.758    15065358.610 6   4440720.18423        26.000
  23193852.100   -10838986.400 7  -8784145.11826        52.000
  21476618.057     1023658.546 9   1510095.93729        96.000
  21393200.685   -37989239.915 9 -15219710.47829        96.000
  24762133.662    -3081296.740 6  -2949449.91624        24.000
 96  6  6 17 33 15.0010000  0  7G 9G 2G26G24G 7G 4G 5
  22165396.745   -15610729.889 9 -12652569.64527        88.000
  22589313.144     2354692.841 8   5763322.20226        70.000
  24701918.158    15101109.250 6   4468577.77223        24.000
  23184740.748   -10886850.229 7  -8821441.57626        50.000
  21482027.482     1052098.555 9   1532256.97229        96.000
  21388211.989   -38015463.965 9 -15240144.80329        96.000
  24754725.730    -3120144.931 6  -2979721.22025        22.000
 96  6  6 17 33 30.0010000  0  7G 9G 2G26G24G 7G 4G 5
  22160390.211   -15637029.260 9 -12673062.66427        86.000
  22594646.032     2382714.226 8   5785157.04926        68.000
  24708734.929    15136904.425 6   4496470.10123        26.000
  23175650.651   -10934645.604 7  -8858684.68426        50.000
  21487455.404     1080603.514 9   1554468.62129        98.000
  21383248.865   -38041549.156 9 -15260470.91129        96.000
  24747342.411    -3158997.231 6  -3009995.67925        24.000
 96  6  6 17 33 45.0010000  0  7G 9G 2G26G24G 7G 4G 5
  22155409.819   -15663206.224 9 -12693460.30627        86.000
  22599991.541     2410818.434 8   5807056.40426        68.000
  24715551.550    15172749.519 6   4524401.36623        28.000
  23166572.066   -10982368.241 7  -8895871.13126        52.000
  21492890.611     1109172.827 9   1576730.40829        96.000
  21378313.801   -38067492.665 9 -15280686.64929        96.000
  24739938.887    -3197852.254 6  -3040272.25925        24.000
 96  6  6 17 34  0.0010000  0  7G 9G 2G26G24G 7G 4G 5
  22150448.973   -15689278.135 9 -12713776.06328        86.000
  22605353.599     2438987.152 8   5829006.05526        70.000
  24722384.060    15208628.639 6   4552359.08123        24.000
  23157493.511   -11030036.985 7  -8933015.56626        48.000
  21498335.352     1137787.483 9   1599027.53329        96.000
  21373396.785   -38093311.653 9 -15300805.32629        94.000
  24732545.195    -3236726.777 5  -3070564.12324        18.000
 96  6  6 17 34 15.0010000  0  7G 9G 2G26G24G 7G 4G 5
  22145506.415   -15715242.178 9 -12734007.78528        86.000
  22610729.358     2467224.258 8   5851008.99326        70.000
  24729212.373    15244544.733 6   4580345.64923        24.000
  23148435.552   -11077652.274 7  -8970118.35226        50.000
  21503790.046     1166444.268 9   1621357.49629        98.000
  21368511.008   -38119005.006 9 -15320826.11929        96.000
  24725146.767    -3275613.924 6  -3100865.77524        22.000
 96  6  6 17 34 30.0010000  0  7G 9G 2G26G24G 7G 4G 5
  22140587.630   -15741099.436 9 -12754156.29428        86.000
  22616114.470     2495530.935 8   5873066.12926        68.000
  24736052.617    15280496.095 6   4608359.63223        26.000
  23139383.378   -11125213.865 7  -9007179.28726        50.000
  21509249.087     1195137.785 9   1643716.07329        98.000
  21363642.078   -38144573.464 9 -15340749.58029        96.000
  24717750.407    -3314509.422 5  -3131173.92424        20.000
 96  6  6 17 34 45.0010000  0  7G 9G 2G26G24G 7G 4G 5
  22135686.053   -15766849.636 9 -12774221.38028        84.000
  22621513.312     2523906.022 8   5895176.57426        70.000
  24742903.564    15316482.473 6   4636400.92324        26.000
  23130343.676   -11172720.650 7  -9044197.55726        50.000
  21514716.582     1223865.864 9   1666101.58729        98.000
  21358800.670   -38170020.285 9 -15360578.26629        96.000
  24710343.375    -3353409.891 6  -3161485.98123        22.000
 96  6  6 17 35  0.0010000  0  7G 9G 2G26G24G 7G 4G 5
  22130804.983   -15792488.457 9 -12794199.67228        86.000
  22626926.934     2552346.564 8   5917338.01426        68.000
  24749761.047    15352503.202 6   4664469.01224        26.000
  23121310.989   -11220174.556 7  -9081174.59926        50.000
  21520190.012     1252627.188 9   1688512.98929        98.000
  21353980.907   -38195345.039 9 -15380311.83129        96.000
  24702939.101    -3392314.689 6  -3191801.36923        22.000
 96  6  6 17 35 15.0010000  0  7G 9G 2G26G24G 7G 4G 5
  22125953.351   -15818015.154 9 -12814090.61828        86.000
  22632348.231     2580846.704 8   5939545.90226        70.000
  24756629.742    15388555.141 6   4692561.40824        26.000
  23112298.539   -11267581.117 7  -9118114.73326        52.000
  21525669.199     1281420.249 9   1710949.14529        96.000
  21349186.266   -38220548.197 9 -15399950.65029        96.000
  24695538.185    -3431225.724 6  -3222121.62223        22.000
 96  6  6 17 35 30.0010000  0  7G 9G 2G26G24G 7G 4G 5
  22121115.540   -15843425.523 9 -12833890.88628        86.000
  22637784.998     2609407.430 8   5961801.00626        68.000
  24763490.642    15424641.375 6   4720680.50624        30.000
  23103281.441   -11314939.652 7  -9155017.45926        54.000
  21531154.892     1310246.469 9   1733411.12729        98.000
  21344415.669   -38245624.679 9 -15419490.76029        94.000
  24688139.217    -3470141.168 6  -3252445.25123        26.000
 96  6  6 17 35 45.0010000  0  7G 9G 2G26G24G 7G 4G 5
  22116302.073   -15868720.787 9 -12853601.48928        86.000
  22643228.929     2638025.694 8   5984100.93926        66.000
  24770359.577    15460759.338 6   4748824.39724        28.000
  23094277.055   -11362250.240 7  -9191882.82826        50.000
  21536646.970     1339107.922 9   1755900.55529       100.000
  21339665.667   -38270571.796 9 -15438930.07829        94.000
  24680718.574    -3509064.223 6  -3282774.90723        24.000
 96  6  6 17 36  0.0010000  0  7G 9G 2G26G24G 7G 4G 5
  22111509.411   -15893896.443 9 -12873218.87928        84.000
  22648687.250     2666705.138 8   6006448.51826        66.000
  24777243.741    15496910.061 6   4776993.71724        30.000
  23085281.422   -11409509.495 7  -9228708.16926        54.000
  21542147.741     1368011.892 9   1778423.13829        98.000
  21334947.803   -38295386.318 9 -15458266.05129        94.000
  24673320.955    -3547992.449 6  -3313108.47723        24.000
 96  6  6 17 36 15.0010000  0  7G 9G 2G26G24G 7G 4G 5
  22106742.591   -15918952.320 9 -12892742.94028        88.000
  22654156.844     2695444.345 8   6028842.71226        66.000
  24784121.550    15533087.706 6   4805184.09324        26.000
  23076302.398   -11456718.147 7  -9265494.08926        56.000
  21547658.676     1396958.326 9   1800978.79129       100.000
  21330246.518   -38320069.292 9 -15477499.52529        94.000
  24665921.748    -3586928.018 6  -3343447.87923        26.000
 96  6  6 17 36 30.0010000  0  7G 9G 2G26G24G 7G 4G 5
  22101998.165   -15943890.911 9 -12912175.60028        88.000
  22659638.519     2724246.240 8   6051285.70426        66.000
  24791008.382    15569290.950 6   4833394.36024        28.000
  23067329.040   -11503873.283 7  -9302238.31626        54.000
  21553169.941     1425950.328 9   1823569.94029        98.000
  21325574.252   -38344618.474 9 -15496628.73729        94.000
  24658500.565    -3625871.136 6  -3373793.22822        26.000
 96  6  6 17 36 45.0010000  0  7G 9G 2G26G24G 7G 4G 5
  22097274.545   -15968714.024 9 -12931518.29128        88.000
  22665129.607     2753109.973 8   6073776.89626        66.000
  24797910.834    15605516.911 6   4861622.36424        30.000
  23058362.967   -11550975.862 7  -9338941.64626        58.000
  21558699.793     1454992.910 9   1846200.51429       100.000
  21320928.458   -38369034.036 9 -15515653.85929        94.000
  24651089.156    -3664827.352 6  -3404148.76822        30.000
 96  6  6 17 37  0.0010000  0  7G 9G 2G26G24G 7G 4G 5
  22092573.230   -15993422.167 9 -12950771.38328        88.000
  22670634.666     2782035.394 8   6096316.18026        66.000
  24804799.884    15641760.315 6   4889863.91224        30.000
  23049412.514   -11598029.566 7  -9375606.81926        58.000
  21564234.081     1484087.396 9   1868871.54529       100.000
  21316310.036   -38393316.035 9 -15534574.88829        94.000
  24643672.590    -3703804.140 6  -3434520.16923        30.000
 96  6  6 17 37 15.0010000  0  7G 9G 2G26G24G 7G 4G 5
  22087891.251   -16018013.471 9 -12969933.41528        86.000
  22676150.518     2811027.104 8   6118907.10526        66.000
  24811708.841    15678021.585 6   4918119.48524        32.000
  23040470.394   -11645030.876 7  -9412231.19026        60.000
  21569778.743     1513236.164 9   1891584.87129       100.000
  21311712.748   -38417460.886 9 -15553389.04329        92.000
  24636247.990    -3742801.417 6  -3464907.63123        30.000
 96  6  6 17 37 30.0010000  0  7G 9G 2G26G24G 7G 4G 5
  22083236.733   -16042490.098 9 -12989006.12328        88.000
  22681683.157     2840089.680 8   6141553.25826        64.000
  24818608.355    15714301.720 6   4946389.66924        30.000
  23031529.834   -11691974.710 7  -9448810.77126        58.000
  21575340.583     1542438.966 9   1914340.28329       100.000
  21307148.168   -38441468.276 9 -15572096.09829        94.000
  24628823.360    -3781816.904 6  -3495309.26523        28.000
 96  6  6 17 37 45.0010000  0  7G 9G 2G26G24G 7G 4G 5
  22078600.353   -16066854.292 9 -13007991.19828        90.000
  22687224.162     2869223.439 8   6164254.90026        64.000
  24825508.228    15750596.899 6   4974671.59124        30.000
  23022618.173   -11738859.295 7  -9485344.18726        62.000
  21580907.009     1571690.912 9   1937133.99329        96.000
  21302600.616   -38465341.161 9 -15590698.33529        92.000
  24621402.598    -3820849.485 6  -3525724.20623        34.000
 96  6  6 17 38  0.0010000  0  7G 9G 2G26G24G 7G 4G 5
  22073979.262   -16091106.250 9 -13026888.84128        86.000
  22692783.093     2898430.723 8   6187013.79326        66.000
  24832424.021    15786907.600 6   5002965.61624        28.000
  23013704.084   -11785680.028 7  -9521827.85426        62.000
  21586484.558     1600991.543 9   1959965.65629       100.000
  21298084.903   -38489082.820 9 -15609198.32029        94.000
  24613965.286    -3859894.665 6  -3556149.05523        32.000
 96  6  6 17 38 15.0010000  0  7G 9G 2G26G24G 7G 4G 5
  22069390.669   -16115243.923 9 -13045697.41428        90.000
  22698356.895     2927714.419 8   6209832.25126        64.000
  24839328.781    15823235.637 6   5031273.13124        30.000
  23004802.647   -11832433.330 7  -9558258.94626        58.000
  21592067.653     1630340.756 9   1982835.16529       100.000
  21293593.892   -38512694.161 9 -15627596.75429        94.000
  24606531.003    -3898946.898 6  -3586579.38523        34.000
 96  6  6 17 38 30.0010000  0  7G 9G 2G26G24G 7G 4G 5
  22064818.084   -16139263.665 9 -13064414.09428        88.000
  22703948.713     2957076.629 8   6232711.87126        64.000
  24846250.269    15859584.358 6   5059596.81424        28.000
  22995923.933   -11879114.279 7  -9594633.71526        62.000
  21597659.681     1659740.779 9   2005744.26229       100.000
  21289125.335   -38536173.028 9 -15645891.99329        96.000
  24599101.037    -3938001.571 6  -3617011.60123        34.000
 96  6  6 17 38 45.0010000  0  7G 9G 2G26G24G 7G 4G 5
  22060268.104   -16163169.201 9 -13083041.77528        88.000
  22709542.481     2986511.222 7   6255647.93026        62.000
  24853175.145    15895949.634 6   5087933.29224        26.000
  22987051.965   -11925728.832 8  -9630956.72826        64.000
  21603261.813     1689184.141 9   2028687.13829       100.000
  21284682.651   -38559525.140 9 -15664088.41929        96.000
  24591669.961    -3977062.411 6  -3647448.55123        32.000
 96  6  6 17 39  0.0010000  0  7G 9G 2G26G24G 7G 4G 5
  22055748.163   -16186953.303 9 -13101574.85328        88.000
  22715158.283     3016019.111 7   6278641.05626        62.000
  24860096.903    15932336.770 6   5116286.85524        28.000
  22978195.466   -11972272.940 7  -9667224.82626        62.000
  21608876.506     1718672.268 9   2051664.89129        98.000
  21280260.562   -38582746.901 9 -15682183.29529        98.000
  24584245.091    -4016124.703 6  -3677886.66424        34.000
 96  6  6 17 39 15.0010000  0  7G 9G 2G26G24G 7G 4G 5
  22051242.223   -16210616.756 9 -13120013.88528        92.000
  22720788.775     3045597.532 7   6301689.18426        62.000
  24867038.028    15968745.669 6   5144657.41924        30.000
  22969346.912   -12018745.564 7  -9703437.25626        58.000
  21614496.296     1748199.479 9   2074673.09629        98.000
  21275869.592   -38605840.595 9 -15700178.36229        98.000
  24576801.275    -4055186.324 6  -3708324.26024        32.000
 96  6  6 17 39 30.0010000  0  7G 9G 2G26G24G 7G 4G 5
  22046760.355   -16234162.620 9 -13138361.33128        88.000
  22726433.448     3075242.097 7   6324788.81926        62.000
  24873954.240    16005177.628 6   5173045.96824        26.000
  22960522.491   -12065147.952 7  -9739594.91626        60.000
  21620117.914     1777763.817 9   2097710.24729        96.000
  21271496.310   -38628810.105 9 -15718076.67729        98.000
  24569368.070    -4094244.687 6  -3738759.33324        32.000
 96  6  6 17 39 45.0010000  0  7G 9G 2G26G24G 7G 4G 5
  22042303.881   -16257587.763 9 -13156614.67928        88.000
  22732080.188     3104951.387 7   6347938.91026        60.000
  24880895.814    16041634.428 6   5201453.83624        28.000
  22951704.036   -12111483.505 7  -9775700.51526        62.000
  21625749.725     1807362.581 9   2120774.21129        94.000
  21267147.640   -38651653.397 9 -15735876.64129        96.000
  24561945.809    -4133300.749 6  -3769192.55524        34.000
 96  6  6 17 40  0.0010000  0  7G 9G 2G26G24G 7G 4G 5
  22037868.361   -16280891.143 9 -13174773.16828        88.000
  22737751.392     3134723.099 7   6371137.62126        60.000
  24887834.151    16078116.686 6   5229881.53024        26.000
  22942903.718   -12157753.523 8  -9811755.05726        64.000
  21631392.179     1836996.240 9   2143865.36229        96.000
  21262826.372   -38674370.571 9 -15753578.33129        98.000
  24554506.339    -4172357.243 6  -3799626.18324        34.000
